[[{"header":{"parameterUnit":"m.s-1","parameterCategory":1,"la1":30.6,"la2":29.2853,"lo1":-89.7004,"lo2":-87.6739,"dy":0.0162,"dx":0.0183,"nx":112,"ny":82,"refTime":"2025-05-19T06:00:00:Z","depth":0,"parameterNumber":2,"parameterNumberName":"U-component_of_WINDS"},"data":[0.0,0.0,0.0,0.0,0.0,0.0,0.0,0.0,0.0,0.0,0.0,0.0,0.0,0.0,0.0,0.0,0.0,0.0,0.0,0.0,0.0,0.0,0.0,0.0,0.0,0.0,0.0,0.0,0.0,0.0,0.0,0.0,0.0,0.0,0.0,0.0,0.0,0.0,0.0,0.0,0.0,0.0,0.0,0.0,0.0,0.0,0.0,0.0,0.0,0.0,0.0,0.0,0.0,0.0,0.0,0.0,0.0,0.0,0.0,0.0,0.0,0.0,0.0,0.0,0.0,0.0,0.0,0.0,0.0,0.0,0.0,0.0,0.0,0.0,0.0,0.0,0.0,0.0,0.0,0.0,0.0,0.0,0.0,0.0,0.0,0.0,0.0,0.0,0.0,0.0,0.0,-1.7637,-1.9443,-2.0566,-2.0566,-2.0107,-1.8701,-1.6039,0.0,0.0,0.0,0.0,0.0,0.0,0.0,0.0,0.0,0.0,0.0,0.0,0.0,0.0,0.0,0.0,0.0,0.0,0.0,0.0,0.0,0.0,0.0,0.0,0.0,0.0,0.0,0.0,0.0,0.0,0.0,0.0,0.0,0.0,0.0,0.0,0.0,0.0,0.0,0.0,0.0,0.0,0.0,0.0,0.0,0.0,0.0,0.0,0.0,0.0,0.0,0.0,0.0,0.0,0.0,0.0,0.0,0.0,0.0,0.0,0.0,0.0,0.0,0.0,0.0,0.0,0.0,0.0,0.0,0.0,0.0,0.0,0.0,0.0,0.0,0.0,0.0,0.0,0.0,0.0,0.0,0.0,0.0,0.0,0.0,0.0,0.0,0.0,0.0,0.0,0.0,0.0,0.0,0.0,0.0,0.0,0.0,0.0,0.0,0.0,0.0,0.0,0.0,0.0,-1.6143,-1.9209,-2.0146,-2.0566,-2.0566,-1.9844,-1.8553,-1.6645,0.0,0.0,0.0,0.0,0.0,0.0,0.0,0.0,0.0,0.0,0.0,0.0,0.0,0.0,0.0,0.0,0.0,0.0,0.0,0.0,0.0,0.0,0.0,0.0,0.0,0.0,0.0,0.0,0.0,0.0,0.0,0.0,0.0,0.0,0.0,0.0,0.0,0.0,0.0,0.0,0.0,0.0,0.0,0.0,0.0,0.0,0.0,0.0,0.0,0.0,0.0,0.0,0.0,0.0,0.0,0.0,0.0,0.0,0.0,0.0,0.0,0.0,0.0,0.0,0.0,0.0,0.0,0.0,0.0,0.0,0.0,0.0,0.0,0.0,0.0,0.0,0.0,0.0,0.0,0.0,0.0,0.0,0.0,0.0,0.0,0.0,0.0,0.0,0.0,0.0,0.0,0.0,0.0,0.0,0.0,0.0,0.0,0.0,0.0,0.0,0.0,0.0,0.0,-1.5742,-1.6973,-1.9951,-2.0449,-2.0566,-2.0566,-1.9785,-1.8405,-1.6287,-1.4087,0.0,0.0,0.0,0.0,0.0,0.0,0.0,0.0,0.0,0.0,0.0,0.0,0.0,0.0,0.0,0.0,0.0,0.0,0.0,0.0,0.0,0.0,0.0,0.0,0.0,0.0,0.0,0.0,0.0,0.0,0.0,0.0,0.0,0.0,0.0,0.0,0.0,0.0,0.0,0.0,0.0,0.0,0.0,0.0,0.0,0.0,0.0,0.0,0.0,0.0,0.0,0.0,0.0,0.0,0.0,0.0,0.0,0.0,0.0,0.0,0.0,0.0,0.0,0.0,0.0,0.0,0.0,0.0,0.0,0.0,0.0,0.0,0.0,0.0,0.0,0.0,0.0,0.0,0.0,0.0,0.0,0.0,0.0,0.0,0.0,0.0,0.0,0.0,0.0,0.0,0.0,0.0,0.0,0.0,0.0,0.0,0.0,0.0,0.0,0.0,0.0,0.0,-1.7158,-1.8164,-2.0332,-2.0566,-2.0566,-2.0566,-1.959,-1.8043,-1.5873,-1.3496,0.0,0.0,0.0,0.0,0.0,0.0,0.0,0.0,0.0,0.0,0.0,0.0,0.0,0.0,0.0,0.0,0.0,0.0,0.0,0.0,0.0,0.0,0.0,0.0,0.0,0.0,0.0,0.0,0.0,0.0,0.0,0.0,0.0,0.0,0.0,0.0,0.0,0.0,0.0,0.0,0.0,0.0,0.0,0.0,0.0,0.0,0.0,0.0,0.0,0.0,0.0,0.0,0.0,0.0,0.0,0.0,0.0,0.0,0.0,0.0,0.0,0.0,0.0,0.0,0.0,0.0,0.0,0.0,0.0,0.0,0.0,0.0,0.0,0.0,0.0,0.0,0.0,0.0,0.0,0.0,0.0,0.0,0.0,0.0,0.0,0.0,0.0,0.0,0.0,0.0,0.0,0.0,0.0,0.0,0.0,0.0,0.0,0.0,0.0,0.0,0.0,0.0,-1.7627,-1.9482,-2.0459,-2.0566,-2.0566,-2.0566,-1.9053,-1.7418,-1.5827,-1.2908,0.0,0.0,0.0,0.0,0.0,0.0,0.0,0.0,0.0,0.0,0.0,0.0,0.0,0.0,0.0,0.0,0.0,0.0,0.0,0.0,0.0,0.0,0.0,0.0,0.0,0.0,0.0,0.0,0.0,0.0,0.0,0.0,0.0,0.0,0.0,0.0,0.0,0.0,0.0,0.0,0.0,0.0,0.0,0.0,0.0,0.0,0.0,0.0,0.0,0.0,0.0,0.0,0.0,0.0,0.0,0.0,0.0,0.0,0.0,0.0,0.0,0.0,0.0,0.0,0.0,0.0,0.0,0.0,0.0,0.0,0.0,0.0,0.0,0.0,0.0,0.0,0.0,0.0,0.0,0.0,0.0,0.0,0.0,0.0,0.0,0.0,0.0,0.0,0.0,0.0,0.0,0.0,0.0,0.0,0.0,0.0,0.0,0.0,0.0,0.0,0.0,0.0,-1.6982,-1.873,0.0,-2.0566,-2.0566,-2.0566,-1.9482,-1.7665,-1.4925,0.0,0.0,0.0,0.0,0.0,0.0,0.0,0.0,0.0,0.0,0.0,0.0,0.0,0.0,0.0,0.0,0.0,0.0,0.0,0.0,0.0,0.0,0.0,0.0,0.0,0.0,0.0,0.0,0.0,0.0,0.0,0.0,0.0,0.0,0.0,0.0,0.0,0.0,0.0,0.0,0.0,0.0,0.0,0.0,0.0,0.0,0.0,0.0,0.0,0.0,0.0,0.0,0.0,0.0,0.0,0.0,0.0,0.0,0.0,0.0,0.0,0.0,0.0,0.0,0.0,0.0,0.0,0.0,0.0,0.0,0.0,0.0,0.0,0.0,0.0,0.0,0.0,0.0,0.0,0.0,0.0,0.0,0.0,0.0,0.0,0.0,0.0,0.0,0.0,0.0,0.0,0.0,0.0,0.0,0.0,0.0,0.0,0.0,0.0,0.0,0.0,0.0,-1.5071,-1.6914,-1.8652,0.0,-2.0566,-2.0508,-2.0371,-1.9087,-1.7086,-1.4214,0.0,0.0,0.0,0.0,0.0,0.0,0.0,0.0,0.0,0.0,0.0,0.0,0.0,0.0,0.0,0.0,0.0,0.0,0.0,0.0,0.0,0.0,0.0,0.0,0.0,0.0,0.0,0.0,0.0,0.0,0.0,0.0,0.0,0.0,0.0,0.0,0.0,0.0,0.0,0.0,0.0,0.0,0.0,0.0,0.0,0.0,0.0,0.0,0.0,0.0,0.0,0.0,0.0,0.0,0.0,0.0,0.0,0.0,0.0,0.0,0.0,0.0,0.0,0.0,0.0,0.0,0.0,0.0,0.0,0.0,0.0,0.0,0.0,0.0,0.0,0.0,0.0,0.0,0.0,0.0,0.0,0.0,0.0,0.0,0.0,0.0,0.0,0.0,0.0,0.0,0.0,0.0,0.0,0.0,0.0,0.0,0.0,0.0,0.0,0.0,0.0,0.0,-1.5119,-1.7676,-1.9619,-2.0469,-2.0566,-2.0391,-1.9951,-1.7544,-1.5402,0.0,0.0,0.0,0.0,0.0,0.0,0.0,0.0,0.0,0.0,0.0,0.0,0.0,0.0,0.0,0.0,0.0,0.0,0.0,0.0,0.0,0.0,0.0,0.0,0.0,0.0,0.0,0.0,0.0,0.0,0.0,0.0,0.0,0.0,0.0,0.0,0.0,0.0,0.0,0.0,0.0,0.0,0.0,0.0,0.0,0.0,0.0,0.0,0.0,0.0,0.0,0.0,0.0,0.0,0.0,0.0,0.0,0.0,0.0,0.0,0.0,0.0,0.0,0.0,0.0,0.0,0.0,0.0,0.0,0.0,0.0,0.0,0.0,0.0,0.0,0.0,0.0,0.0,0.0,0.0,0.0,0.0,0.0,0.0,0.0,0.0,0.0,0.0,0.0,0.0,0.0,0.0,0.0,0.0,0.0,0.0,0.0,0.0,0.0,0.0,0.0,0.0,0.0,-1.426,-1.6606,-1.8667,-1.9973,-1.9743,-1.9353,-1.8935,-1.7788,-1.5677,-1.2481,0.0,0.0,0.0,0.0,0.0,0.0,0.0,0.0,0.0,0.0,0.0,0.0,0.0,0.0,0.0,0.0,0.0,0.0,0.0,0.0,0.0,0.0,0.0,0.0,0.0,0.0,0.0,0.0,0.0,0.0,0.0,0.0,0.0,0.0,0.0,0.0,0.0,0.0,0.0,0.0,0.0,0.0,0.0,0.0,0.0,0.0,0.0,0.0,0.0,0.0,0.0,0.0,0.0,0.0,0.0,0.0,0.0,0.0,0.0,0.0,0.0,0.0,0.0,0.0,0.0,0.0,0.0,0.0,0.0,0.0,0.0,0.0,0.0,0.0,0.0,0.0,0.0,0.0,0.0,0.0,0.0,0.0,0.0,0.0,0.0,0.0,0.0,0.0,0.0,0.0,0.0,0.0,0.0,0.0,0.0,0.0,0.0,0.0,0.0,0.0,0.0,0.0,-1.3791,-1.5641,-1.7421,-1.9052,-1.8502,-1.7821,-1.7585,-1.6508,-1.4672,-1.1786,0.0,0.0,0.0,0.0,0.0,0.0,0.0,0.0,0.0,0.0,0.0,0.0,0.0,0.0,0.0,0.0,0.0,0.0,0.0,0.0,0.0,0.0,0.0,0.0,0.0,0.0,0.0,0.0,0.0,0.0,0.0,0.0,0.0,0.0,0.0,0.0,0.0,0.0,0.0,0.0,0.0,0.0,0.0,0.0,0.0,0.0,0.0,0.0,0.0,0.0,0.0,0.0,0.0,0.0,0.0,0.0,0.0,0.0,0.0,0.0,0.0,0.0,0.0,0.0,0.0,0.0,0.0,0.0,0.0,0.0,0.0,0.0,0.0,0.0,0.0,0.0,0.0,0.0,0.0,0.0,0.0,0.0,0.0,0.0,0.0,0.0,0.0,0.0,0.0,0.0,0.0,0.0,0.0,0.0,0.0,0.0,0.0,0.0,0.0,0.0,0.0,0.0,-1.3474,-1.4612,-1.5986,-1.7899,-1.6945,-1.6211,-1.6027,-1.4472,-1.2937,-1.1518,0.0,0.0,0.0,0.0,0.0,0.0,0.0,0.0,0.0,0.0,0.0,0.0,0.0,0.0,0.0,0.0,0.0,0.0,0.0,0.0,0.0,0.0,0.0,0.0,0.0,0.0,0.0,0.0,0.0,0.0,0.0,0.0,0.0,0.0,0.0,0.0,0.0,0.0,0.0,0.0,0.0,0.0,0.0,0.0,0.0,0.0,0.0,0.0,0.0,0.0,0.0,0.0,0.0,0.0,0.0,0.0,0.0,0.0,0.0,0.0,-1.5837,0.0,0.0,0.0,0.0,0.0,0.0,0.0,0.0,0.0,0.0,0.0,0.0,0.0,0.0,0.0,0.0,0.0,0.0,0.0,0.0,0.0,0.0,0.0,0.0,0.0,0.0,0.0,0.0,0.0,0.0,0.0,0.0,0.0,0.0,0.0,0.0,0.0,0.0,0.0,0.0,0.0,-1.1632,-1.3084,-1.4639,-1.6169,-1.5583,-1.5065,-1.4803,-1.4194,-1.2942,-1.0905,-0.9971,0.0,0.0,0.0,0.0,0.0,0.0,0.0,0.0,0.0,0.0,0.0,0.0,0.0,0.0,0.0,0.0,0.0,0.0,0.0,0.0,0.0,0.0,0.0,0.0,0.0,0.0,0.0,0.0,0.0,0.0,0.0,0.0,0.0,0.0,0.0,0.0,0.0,0.0,0.0,0.0,0.0,0.0,0.0,0.0,0.0,0.0,0.0,0.0,0.0,0.0,0.0,0.0,0.0,0.0,0.0,0.0,0.0,0.0,0.0,0.0,-1.6538,0.0,0.0,0.0,0.0,0.0,0.0,0.0,0.0,0.0,0.0,0.0,0.0,0.0,0.0,0.0,0.0,0.0,0.0,0.0,0.0,0.0,0.0,0.0,0.0,0.0,0.0,0.0,0.0,0.0,0.0,0.0,0.0,0.0,0.0,0.0,0.0,0.0,0.0,0.0,0.0,-1.1165,-1.208,-1.3236,-1.4898,-1.4163,-1.3575,-1.3644,-1.3214,-1.2333,-1.0887,-1.0221,0.0,0.0,0.0,0.0,0.0,0.0,0.0,0.0,0.0,0.0,0.0,0.0,0.0,0.0,0.0,0.0,0.0,0.0,0.0,0.0,0.0,0.0,0.0,0.0,0.0,0.0,0.0,0.0,0.0,0.0,0.0,0.0,0.0,0.0,0.0,0.0,0.0,0.0,0.0,0.0,0.0,0.0,0.0,0.0,0.0,0.0,0.0,0.0,0.0,0.0,0.0,0.0,0.0,-2.1581,-2.2071,-2.2071,-2.2071,-2.2322,-2.2648,-2.0828,-1.9352,-1.8187,-1.6774,0.0,0.0,0.0,0.0,0.0,0.0,0.0,0.0,0.0,0.0,0.0,0.0,0.0,0.0,0.0,0.0,0.0,0.0,0.0,0.0,0.0,0.0,0.0,0.0,-1.0715,-1.0448,0.0,0.0,0.0,0.0,0.0,0.0,0.0,0.0,0.0,0.0,0.0,0.0,-1.1123,-1.14,-1.2079,-1.3695,-1.2959,-1.2405,-1.2721,-1.2298,-1.169,-1.1102,-1.0568,-0.988,0.0,0.0,0.0,0.0,0.0,0.0,0.0,0.0,0.0,0.0,0.0,0.0,0.0,0.0,0.0,0.0,0.0,0.0,0.0,0.0,0.0,0.0,0.0,0.0,0.0,0.0,0.0,0.0,0.0,0.0,0.0,0.0,-2.0809,-2.0339,0.0,0.0,0.0,0.0,0.0,0.0,0.0,0.0,0.0,0.0,0.0,0.0,0.0,-2.1435,-2.1857,-2.246,-2.3025,-2.3452,-2.4079,-2.4381,-2.4381,-2.4381,-2.4418,-2.4481,-2.418,0.0,-2.0127,-1.879,0.0,0.0,0.0,0.0,0.0,0.0,0.0,0.0,0.0,0.0,0.0,0.0,0.0,0.0,0.0,0.0,0.0,0.0,0.0,0.0,0.0,0.0,-1.1583,-1.1363,-1.1309,-1.1269,0.0,-1.0053,-0.915,-0.9037,-0.8691,0.0,0.0,0.0,0.0,0.0,0.0,0.0,-1.0601,-1.1397,-1.2022,-1.2466,-1.2399,-1.2318,-1.2358,-1.2285,-1.1997,-1.1403,-1.1062,-1.0481,-0.9606,-0.9005,0.0,0.0,0.0,0.0,0.0,0.0,0.0,0.0,0.0,0.0,0.0,0.0,0.0,0.0,0.0,0.0,0.0,0.0,0.0,0.0,0.0,0.0,0.0,0.0,0.0,0.0,0.0,0.0,0.0,-2.1768,-2.2656,-2.2517,-2.3072,-2.2794,0.0,0.0,0.0,0.0,0.0,0.0,0.0,0.0,0.0,-2.3571,-2.3175,-2.3436,-2.4455,-2.4481,-2.4887,-2.5651,-2.5724,-2.5749,-2.5749,-2.5749,-2.5749,-2.5737,-2.5185,-2.405,-2.25,-2.0611,-1.8376,-1.6052,0.0,0.0,0.0,0.0,-1.4286,-1.4222,-1.4332,-1.3925,0.0,-1.3788,0.0,0.0,0.0,0.0,0.0,0.0,0.0,0.0,0.0,0.0,-1.1877,-1.1911,-1.1917,-1.1917,-1.1917,-1.1283,-1.0575,0.0,-0.9773,-0.9392,-0.8731,0.0,0.0,0.0,0.0,-1.014,-1.0728,-1.143,-1.1984,-1.2271,-1.2305,-1.2305,-1.2305,-1.2305,-1.2051,-1.1463,-1.1309,-1.0842,-0.996,-0.9519,-0.9025,0.0,0.0,0.0,0.0,0.0,0.0,0.0,0.0,0.0,0.0,0.0,0.0,0.0,0.0,0.0,0.0,0.0,0.0,0.0,0.0,0.0,0.0,0.0,0.0,0.0,0.0,0.0,0.0,-2.3451,-2.4698,-2.4592,-2.5876,-2.5888,0.0,0.0,0.0,0.0,0.0,0.0,-2.4552,-2.4696,-2.5194,-2.6245,-2.5648,-2.5752,-2.6506,-2.6232,-2.6385,-2.6792,-2.6591,-2.6533,-2.6533,-2.6533,-2.6533,-2.6452,-2.5734,-2.5001,-2.4257,-2.1935,-1.9617,-1.7491,-1.6973,-1.6455,-1.6113,-1.6445,-1.6426,-1.6315,-1.7091,-1.6663,-1.5933,-1.6232,0.0,-1.3084,-1.2405,0.0,0.0,0.0,0.0,-1.1009,-1.1516,-1.1817,-1.2051,-1.2345,-1.2358,-1.2305,-1.2305,-1.2131,-1.1764,0.0,-1.084,-1.0394,-0.9519,0.0,0.0,0.0,0.0,-1.0635,-1.1149,-1.1663,-1.2064,-1.2278,-1.2305,-1.2305,-1.2305,-1.2231,-1.1971,-1.1456,-1.1356,-1.0989,-1.0261,-0.9947,-0.9519,-0.8931,0.0,0.0,0.0,0.0,0.0,0.0,0.0,0.0,0.0,0.0,0.0,0.0,0.0,0.0,0.0,0.0,0.0,0.0,0.0,0.0,0.0,0.0,0.0,0.0,0.0,0.0,0.0,0.0,0.0,-2.6202,-2.9062,0.0,0.0,0.0,0.0,-2.4996,-2.58,-2.6647,-2.7385,-2.8002,-2.8582,-2.9087,-2.9027,-2.8605,-2.7644,-2.7604,-2.7245,-2.6552,-2.6508,-2.6533,-2.6533,-2.6533,-2.6533,-2.6533,-2.6465,-2.5861,-2.4779,-2.2324,-2.0705,-1.9661,-1.8785,-1.8252,-1.7881,-1.791,-1.8154,-1.8337,-1.7466,-1.7251,-1.7305,-1.7215,-1.6424,-1.5212,-1.3415,-1.2591,0.0,0.0,-1.1363,-1.187,-1.2178,-1.2271,-1.2351,-1.2728,-1.2512,-1.2305,-1.2305,-1.2291,-1.2184,0.0,-1.1349,-1.0955,-1.0895,0.0,-1.0631,-1.0842,-1.1156,-1.147,-1.1784,-1.2091,-1.2285,-1.2305,-1.2305,-1.2305,-1.2305,-1.2051,-1.1757,-1.1443,-1.1169,-1.0868,-1.0618,-1.0254,-0.982,-0.9176,-0.8918,0.0,0.0,0.0,0.0,0.0,0.0,0.0,0.0,0.0,0.0,0.0,0.0,0.0,0.0,0.0,0.0,0.0,0.0,0.0,0.0,0.0,0.0,0.0,0.0,0.0,0.0,0.0,0.0,-2.9427,-3.1217,0.0,-2.8941,-2.8672,-2.8462,-2.8011,-2.7936,-2.8353,-2.94,-2.9175,-2.9348,-2.9909,-2.9426,-2.8907,-2.8556,-2.7986,-2.7537,-2.7297,-2.6782,-2.6533,-2.6533,-2.6533,-2.6533,-2.6452,-2.5804,-2.53,-2.485,-2.3335,-2.2002,-2.0862,-2.0514,-1.9767,-1.8838,-1.8838,-1.8926,-1.8981,-1.8682,-1.861,-1.8489,-1.7487,-1.6962,-1.6287,-1.4089,-1.3312,-1.3057,-1.2353,-1.2138,-1.2218,-1.2512,-1.2585,-1.2565,-1.2478,-1.2525,-1.2532,-1.2345,-1.2305,-1.2271,-1.2171,-1.183,-1.1496,-1.1303,-1.1182,-1.1089,-1.1002,-1.1403,-1.175,-1.1857,-1.2124,-1.2305,-1.2305,-1.2305,-1.2225,-1.2037,-1.1924,-1.1663,-1.1176,-1.0875,-1.0581,-1.0287,-0.9993,-0.9646,-0.919,-0.846,-0.7891,0.0,0.0,0.0,0.0,0.0,0.0,0.0,0.0,0.0,0.0,0.0,0.0,0.0,0.0,0.0,0.0,0.0,0.0,0.0,0.0,0.0,0.0,0.0,0.0,0.0,0.0,-3.0969,-3.1614,-3.3139,-3.3333,-3.1232,-3.1122,-3.1098,-3.0943,-3.033,-3.0319,-3.1167,-3.048,-3.028,-3.0689,-2.9889,-2.9317,-2.9002,-2.8117,-2.7537,-2.7284,-2.6782,-2.6533,-2.6533,-2.6533,-2.6533,-2.6452,-2.5804,-2.5523,-2.5441,-2.4767,-2.3758,-2.2611,-2.2247,-2.1324,-2.0206,-2.0206,-2.0004,-1.9717,-1.9717,-1.9619,-1.937,-1.8413,-1.7914,-1.735,-1.5419,-1.4761,-1.4593,-1.3985,-1.3548,-1.333,-1.3459,-1.3568,-1.345,-1.2621,-1.2818,-1.2981,-1.2419,-1.2305,-1.2305,-1.2305,-1.2144,-1.1951,-1.1757,-1.1724,-1.1657,-1.1463,-1.1764,-1.2011,-1.2011,-1.2184,-1.2305,-1.2305,-1.2305,-1.2184,-1.1897,-1.1777,-1.151,-1.1022,-1.0722,-1.0474,-1.0274,-0.9987,-0.9693,-0.9392,-0.8227,-0.7442,-0.7101,0.0,0.0,0.0,0.0,0.0,0.0,0.0,0.0,0.0,0.0,0.0,0.0,0.0,0.0,0.0,0.0,0.0,0.0,0.0,0.0,0.0,0.0,0.0,-2.9567,-3.1642,-3.3055,-3.269,-3.485,-3.5346,-3.2676,-3.3739,-3.4296,-3.362,-3.2958,-3.2602,-3.2641,-3.191,-3.1539,-3.1524,-3.0777,-2.995,-2.9066,-2.8182,-2.7351,-2.6589,-2.6521,-2.6521,-2.6521,-2.6533,-2.6533,-2.6533,-2.6533,-2.6533,-2.6533,-2.6533,-2.5955,-2.4933,-2.3963,-2.2925,-2.2027,-2.2027,-2.1451,-2.0566,-2.0566,-2.0283,-1.9932,-1.9922,-1.9355,-1.845,-1.7495,-1.6919,-1.6544,-1.599,-1.5532,-1.5129,-1.4927,-1.5051,-1.4832,-1.3257,-1.3326,-1.347,-1.2592,-1.2372,-1.2298,-1.2372,-1.2372,-1.2305,-1.2305,-1.2305,-1.2305,-1.2305,-1.2305,0.0,-1.2305,-1.2305,-1.2305,-1.2305,-1.2305,-1.2184,-1.1897,-1.1597,-1.1303,-1.1009,-1.0715,-1.0611,-1.0611,-1.0261,-0.9967,-0.9628,-0.8208,-0.6794,-0.5496,0.0,0.0,0.0,0.0,0.0,0.0,0.0,0.0,0.0,0.0,0.0,0.0,0.0,0.0,0.0,0.0,0.0,0.0,0.0,0.0,0.0,-3.0169,-3.1906,-3.2201,-3.3949,-3.5284,-3.5544,-3.6043,-3.6091,-3.5346,-3.488,-3.4493,-3.4296,-3.3228,-3.2788,-3.3287,-3.2145,-3.1754,-3.2272,-3.1537,-3.0777,-2.995,-2.969,-2.9192,-2.8298,-2.767,-2.7351,-2.7351,-2.6782,-2.6533,-2.6533,-2.6533,-2.6533,-2.6533,-2.6533,-2.6314,-2.6025,-2.4992,-2.3963,-2.2999,-2.2253,-2.1451,-2.0566,-2.0566,-2.0488,-2.0332,-2.0019,-1.9756,-1.928,-1.8073,-1.7614,-1.7376,-1.6759,-1.6105,-1.565,-1.581,-1.5666,-1.5364,-1.4704,-1.4286,-1.4111,-1.4361,-1.3302,-1.2732,-1.4163,-1.323,-1.2305,-1.2305,-1.2305,-1.2305,-1.2305,-1.2305,0.0,-1.2305,-1.2305,-1.2305,-1.2305,-1.2305,-1.2184,-1.1897,-1.1597,-1.1303,-1.1009,-1.0521,-1.0241,-1.0241,-0.996,-0.9219,-0.8005,-0.7245,-0.6201,0.0,0.0,0.0,0.0,0.0,0.0,0.0,0.0,0.0,0.0,0.0,0.0,0.0,0.0,0.0,0.0,0.0,0.0,0.0,0.0,0.0,0.0,-3.301,-3.495,-3.5354,-3.6029,-3.6687,-3.7151,-3.6738,-3.6374,-3.6374,-3.5582,-3.5005,-3.5005,-3.4037,-3.3582,-3.3987,-3.2718,-3.2176,-3.2602,-3.158,-3.0777,-3.0329,-2.995,-2.9504,-2.9002,-2.8117,-2.767,-2.767,-2.6837,-2.6533,0.0,-2.6533,-2.6533,-2.6533,-2.6533,-2.6533,0.0,0.0,0.0,0.0,0.0,-2.1669,-2.1155,-2.0712,-2.0566,-2.0527,-2.0273,-1.9941,-1.9564,-1.8957,-1.8471,-1.8165,-1.8181,-1.7743,-1.7276,-1.7206,-1.6985,-1.6595,-1.5652,-1.5363,-1.5202,-1.5213,-1.4307,-1.3882,-1.495,-1.4307,0.0,-1.2952,-1.2592,-1.2305,-1.2305,-1.2305,-1.2305,-1.2305,-1.2305,-1.2305,-1.2305,-1.2305,-1.2184,-1.1897,-1.171,0.0,0.0,0.0,-1.0374,-1.0127,-0.9582,0.0,0.0,0.0,0.0,0.0,0.0,0.0,0.0,-0.4952,-0.4938,0.0,0.0,0.0,0.0,0.0,0.0,0.0,0.0,0.0,0.0,0.0,0.0,0.0,0.0,0.0,0.0,-3.6045,-3.8216,-3.8439,-3.788,-3.7594,-3.7957,-3.7097,-3.6498,-3.6498,-3.5941,-3.5622,-3.5622,-3.4988,-3.4624,-3.4688,0.0,0.0,0.0,0.0,-3.051,-3.045,-2.969,-2.9254,-2.9254,-2.8427,-2.7986,-2.7986,-2.7162,-2.6714,-2.6658,-2.6658,-2.6589,-2.6533,-2.6533,-2.6533,-2.6533,-2.6533,-2.5873,-2.4779,-2.2999,-2.2253,-2.2027,-2.1231,0.0,0.0,-2.0789,-2.02,-1.9492,-1.9814,-1.9385,-1.8936,-1.9697,-1.958,-1.9097,-1.8787,-1.8571,-1.8132,-1.6486,-1.635,-1.6419,-1.5658,-1.5376,-1.5234,-1.5446,-1.5376,-1.495,-1.4171,-1.3237,-1.2519,-1.2305,-1.2372,-1.2445,-1.2298,-1.2305,-1.2305,-1.2305,0.0,0.0,-1.1944,-1.1891,-1.1643,-1.1122,-1.1062,-1.0744,-1.0096,-0.9246,-0.832,-0.7325,-0.6681,-0.6066,-0.5413,-0.5674,-0.581,-0.5813,-0.527,-0.5169,0.0,0.0,0.0,0.0,0.0,0.0,0.0,0.0,0.0,0.0,0.0,0.0,0.0,0.0,0.0,-3.5597,-3.77,-3.9133,-3.9331,-3.9242,-3.8973,-3.8585,-3.7667,-3.7038,-3.7038,-3.6165,-3.5622,-3.5622,-3.4988,-3.4847,-3.5362,-3.4153,-3.3391,-3.3391,-3.261,-3.1864,-3.1278,-3.1087,-3.1029,-3.1029,0.0,0.0,-2.9766,-2.8939,-2.8117,-2.7484,-2.7484,-2.7095,-2.6533,-2.6533,-2.6533,-2.6533,-2.6533,-2.5873,-2.4933,-2.4564,-2.3891,-2.3147,-2.2999,-2.2403,-2.1735,-2.1735,-2.111,-2.0264,-2.0,-1.9795,0.0,-1.9863,-1.9355,-1.8864,-1.9483,-1.8879,-1.8075,-1.8043,-1.7287,-1.6784,-1.7364,-1.6298,-1.5658,-1.7157,-1.6228,-1.5376,-1.593,-1.5226,-1.4091,-1.2519,-1.2952,-1.3164,-1.2372,-1.2305,-1.2305,-1.2305,-1.2305,-1.2278,-1.2225,-1.2004,-1.1824,-1.171,-1.1476,-1.0944,-1.0006,-0.9111,-0.8137,-0.7138,-0.6309,-0.5856,-0.5718,-0.5772,-0.5864,-0.5979,-0.5742,-0.5728,0.0,0.0,0.0,0.0,0.0,0.0,0.0,0.0,0.0,0.0,0.0,-3.0644,-3.2764,0.0,-3.6172,-3.7762,-3.9065,-3.9823,-3.9633,-3.9599,-3.9377,-3.8762,-3.8016,-3.7542,-3.7542,-3.6626,-3.6028,-3.6028,-3.5419,-3.5253,-3.5577,-3.4657,-3.3937,-3.3582,-3.2949,-3.2272,-3.1539,-3.1482,-3.1482,-3.1482,-3.0703,-3.0329,-3.0269,-2.938,-2.8748,-2.8298,-2.7855,-2.7484,-2.7095,-2.6658,-2.6533,-2.6533,-2.6533,-2.6164,-2.5664,-2.5229,-2.4707,-2.4192,-2.3661,-2.285,-2.1996,-2.1765,-2.0897,-1.9883,-1.9668,-1.9443,-1.9326,-1.9541,-1.9297,-1.9062,-1.9492,-1.8965,-1.8379,-1.8584,-1.7944,-1.7432,-1.7862,-1.7295,-1.6872,-1.7794,-1.7226,-1.6576,-1.6567,-1.621,-1.5226,-1.331,-1.3382,-1.3382,-1.2445,-1.2305,-1.2305,-1.2305,-1.2305,-1.2305,-1.2305,-1.2037,-1.187,-1.187,-1.159,-1.1142,-1.0648,-0.9324,-0.8343,-0.7854,-0.6596,-0.5915,-0.5915,-0.5993,-0.6071,-0.6142,-0.6067,-0.6071,0.0,0.0,0.0,0.0,0.0,0.0,0.0,0.0,-2.8866,-3.1391,-3.258,-3.3826,-3.6041,-3.7575,-3.8722,-3.9418,-4.0065,-4.0319,-3.9757,-3.9709,-3.9476,-3.8844,-3.8263,-3.7893,-3.7893,-3.7079,-3.6498,-3.6416,-3.6028,-3.5694,-3.5622,-3.5098,-3.4496,-3.3836,-3.3287,-3.2625,-3.1894,-3.1796,-3.1682,-3.1682,-3.0881,-3.0524,-3.0524,-2.9827,-2.938,-2.9192,-2.8298,-2.792,-2.792,-2.7229,-2.6905,-2.6714,-2.6714,-2.6658,-2.6383,-2.5594,-2.53,-2.5146,-2.4325,-2.3441,-2.2563,-2.2185,-2.1115,-1.9958,-1.9867,-1.9454,-1.9184,-1.934,-1.938,-1.9278,-1.9321,-1.8906,-1.8535,-1.8553,-1.832,-1.8008,-1.8008,-1.8008,-1.8008,-1.8008,-1.8008,-1.7716,-1.6775,-1.6636,-1.593,-1.3954,-1.3673,-1.3382,-1.2445,-1.2305,-1.2305,-1.2305,-1.2305,-1.2305,-1.2305,-1.2091,-1.1951,-1.1951,-1.1724,-1.1527,-1.1305,-0.982,-0.8969,-0.8755,-0.7183,-0.6371,-0.6371,-0.635,-0.6338,-0.6338,-0.6338,-0.6352,-2.4866,-2.4746,-2.4671,-2.5574,-2.6572,-2.8141,0.0,0.0,-3.4134,-3.5931,-3.6973,-3.7903,-3.8965,-3.9193,-3.9437,-4.0235,-4.0431,-4.0389,-4.0101,-4.0042,-3.9797,-3.9125,-3.8382,-3.7893,-3.7893,-3.7433,-3.6921,-3.6416,-3.6333,-3.6097,-3.5622,-3.5515,-3.5207,-3.4528,-3.4431,-3.4037,-3.3375,-3.2788,-3.2492,-3.2492,-3.1724,-3.1351,-3.1351,-3.1278,-3.0837,-3.0133,-2.9254,-2.8876,-2.8876,-2.8748,-2.8247,-2.7537,-2.7537,-2.7095,-2.6465,-2.6383,-2.6314,-2.6314,-2.6233,-2.5511,-2.4624,-2.4648,-2.3553,-2.2264,-2.1823,-2.136,-2.0784,-2.0033,-1.9567,-1.9318,-1.9298,-1.8691,-1.8174,-1.8545,-1.832,-1.8008,-1.8008,-1.8008,-1.8008,-1.8008,-1.8008,-1.7716,-1.6775,-1.6636,-1.593,-1.3954,-1.3673,-1.3382,-1.2445,-1.2305,-1.2305,-1.2305,-1.2305,-1.2305,-1.2305,-1.2271,-1.2258,-1.2258,-1.2225,-1.1825,-1.0923,-1.0701,-1.0107,-0.922,-0.8116,-0.76,-0.76,-0.671,-0.6338,-0.6338,-0.6338,-0.6329,-2.7407,-2.7529,-2.7528,0.0,-2.9446,-3.0962,-3.2632,-3.4129,-3.5655,-3.7439,-3.8506,-3.9385,-4.0248,-4.0282,-4.0269,0.0,-4.0545,-4.0425,-4.0139,-4.0101,-3.984,-3.916,-3.8783,-3.8524,-3.8364,-3.7929,-3.7396,-3.6921,-3.658,-3.6182,-3.5622,-3.5622,-3.5299,-3.4624,-3.4576,-3.4284,-3.3582,-3.2949,-3.2803,-3.3182,-3.2477,-3.212,-3.212,-3.212,-3.1465,-3.0269,-2.9889,-2.9442,-2.8939,-2.8427,-2.8051,-2.767,-2.7162,-2.6782,-2.6533,-2.6533,-2.6533,-2.6533,-2.6533,-2.5873,-2.4957,-2.4694,-2.3526,-2.219,-2.1767,-2.1285,-2.0751,-2.0435,-2.0162,-1.9911,-1.9442,-1.9005,-1.8704,-1.836,-1.8135,-1.8008,-1.8008,-1.8008,-1.8008,-1.8008,-1.8008,-1.7862,-1.7501,-1.6507,-1.5508,-1.4665,-1.4099,-1.3382,-1.2445,-1.2305,-1.2305,-1.2305,-1.2305,-1.2305,-1.2305,-1.2305,-1.2305,-1.2305,-1.2305,-1.2077,-1.1694,-1.1087,-1.0565,-1.019,-0.9216,-0.8389,-0.7783,-0.7403,-0.6872,-0.6342,-0.6346,-0.6464,-2.8831,0.0,0.0,-3.0333,-3.1761,-3.3147,-3.3422,-3.482,-3.6436,-3.7784,-3.8754,-3.9531,-4.0168,-4.0351,-4.0403,-4.0347,-4.0428,-4.0422,-4.0232,-4.0139,-3.988,-3.9289,-3.9178,-3.8999,-3.8719,-3.835,-3.7911,-3.7433,-3.6904,-3.6374,-3.5854,-3.5694,-3.5362,-3.4894,-3.4894,-3.464,-3.4153,-3.3495,-3.3391,-3.3887,-3.3198,-3.2788,-3.2586,-3.2382,-3.1694,-3.0644,-3.0644,-3.0269,-2.9628,-2.9002,-2.862,-2.8363,-2.7484,-2.704,-2.6782,-2.6589,-2.6533,-2.6533,-2.6533,-2.6025,-2.5344,-2.4844,-2.3827,-2.2703,-2.2271,-2.1696,-2.1227,-2.1037,-2.0974,-2.0782,-1.9879,-1.9694,-1.9431,-1.8596,-1.8327,-1.8269,-1.8076,-1.8008,-1.8008,-1.8008,-1.8008,-1.794,-1.7647,-1.6507,-1.5517,-1.5234,-1.4593,-1.3665,-1.2445,-1.2305,-1.2305,-1.2305,-1.2305,-1.2305,-1.2305,-1.2305,-1.2305,-1.2305,-1.2305,-1.2305,-1.2305,-1.162,-1.1236,-1.1236,-1.0196,-0.9367,-0.8609,-0.8084,-0.7581,-0.7247,-0.6738,-0.6735,0.0,0.0,-3.1023,-3.1366,-3.2868,-3.4284,-3.4425,-3.5846,-3.7168,-3.7211,-3.7871,-3.8459,-3.8475,-3.8999,-3.9441,-3.9441,-4.0048,-4.0489,-4.0489,-4.025,-3.9982,-3.9622,-3.9289,-3.8999,0.0,-3.8676,-3.8465,-3.7911,-3.7433,-3.696,-3.6416,-3.5898,-3.5577,-3.5577,-3.5577,-3.5577,-3.5532,-3.4894,-3.4528,-3.4576,-3.3887,-3.3251,-3.2602,-3.1853,-3.1524,-3.1467,-3.1467,-3.1467,-3.1409,-3.1409,-3.0896,-3.0133,-2.9254,-2.8427,-2.7537,-2.6782,-2.6533,-2.6533,-2.6533,-2.6452,-2.6364,-2.5787,-2.5169,-2.4643,-2.4092,-2.3528,-2.2884,-2.2063,-2.1877,-2.169,-2.0782,-2.059,-2.0333,-1.9497,-1.9243,-1.9044,-1.8202,-1.8008,-1.8008,-1.8008,-1.8008,-1.7716,-1.6775,-1.6636,-1.6219,-1.5376,-1.5163,-1.445,-1.2519,-1.2305,-1.2305,-1.2305,-1.2305,-1.2305,-1.2305,-1.2305,-1.2305,-1.2305,-1.2305,-1.2305,-1.2305,-1.2305,-1.2224,-1.2224,-1.1242,-1.0708,-1.0708,-0.8761,-0.8413,-0.9536,-0.7497,-0.7278,-2.987,0.0,-3.2707,-3.3226,-3.4274,-3.5203,-3.5388,-3.6341,-3.7201,-3.726,-3.748,-3.7847,-3.8433,-3.8141,-3.8188,-3.9344,-3.9625,-3.9892,-4.0412,-4.0286,-3.9982,-3.9645,-3.9289,0.0,0.0,0.0,0.0,-3.7946,-3.7755,-3.7268,-3.6457,-3.6224,-3.5985,-3.5622,-3.5622,-3.5622,-3.5622,-3.4941,-3.483,-3.5253,-3.4137,-3.3495,-3.3235,-3.2048,-3.1482,-3.1482,-3.1482,-3.1482,-3.1467,-3.0896,-3.0524,-3.0208,-2.9317,-2.8812,-2.8556,-2.8247,-2.7802,-2.7229,-2.6714,-2.6533,-2.6496,-2.6239,-2.5548,-2.4795,-2.4607,-2.3879,-2.3065,-2.2763,-2.2702,-2.2506,-2.169,-2.1491,-2.1112,-1.9617,-1.9299,-1.9044,-1.8202,-1.8008,-1.8008,-1.8008,-1.8008,-1.7862,-1.7579,-1.6991,-1.628,-1.5376,-1.4593,-1.3954,-1.331,-1.2659,-1.2305,-1.2305,-1.2305,-1.2305,-1.2305,-1.2305,-1.2305,-1.2305,-1.2305,-1.2305,-1.2305,-1.2305,-1.2305,-1.2305,-1.1996,-1.1465,-1.0783,-1.028,-0.9549,-0.8528,-0.8139,-0.7827,-3.1826,-3.3166,-3.4287,-3.5435,-3.5911,-3.6145,-3.6355,-3.6352,-3.6318,-3.6367,-3.6113,-3.6074,-3.6641,-3.6384,-3.6669,-3.8393,-3.876,-3.9219,-4.0335,-4.0176,-3.984,-3.9622,-3.9223,-3.8884,0.0,0.0,0.0,-3.8216,-3.8013,-3.7524,-3.6724,-3.6498,-3.6139,-3.5622,-3.5622,-3.5622,-3.5622,-3.5161,-3.5161,-3.5577,-3.4252,-3.3582,-3.3531,-3.2145,-3.1482,-3.1482,-3.1482,-3.1482,-3.1467,-3.097,-3.0718,-3.0644,-2.9827,-2.9442,-2.9442,-2.9129,-2.8427,-2.7604,-2.7095,-2.6714,-2.6496,-2.6214,-2.5548,-2.482,-2.482,-2.4029,-2.3115,-2.3389,-2.3288,-2.3005,-2.2445,-2.2322,-2.1865,-2.0204,-1.9748,-1.9473,-1.8468,-1.8115,-1.8057,-1.8203,-1.8115,-1.8008,-1.8008,-1.7501,-1.6932,-1.6298,-1.5367,-1.4593,-1.4314,-1.3382,-1.2806,-1.2806,-1.2519,-1.2305,-1.2305,-1.2305,-1.2305,-1.2305,-1.2305,-1.2305,-1.2305,-1.2305,-1.2305,-1.2305,-1.2405,-1.2153,-1.1539,-1.0956,-1.0253,-0.9375,-0.8493,-0.7885,-3.3996,-3.4963,-3.5733,-3.7791,-3.7649,-3.7052,-3.7262,-3.5957,-3.4707,-3.4707,-3.3945,-3.3281,0.0,0.0,-3.4931,-3.6647,-3.753,-3.8584,-4.0258,-3.9984,-3.9599,0.0,0.0,0.0,0.0,0.0,0.0,-3.8707,0.0,-3.772,-3.7228,-3.6724,-3.6182,-3.5622,-3.5622,-3.5622,-3.5622,-3.5622,-3.5622,-3.5577,-3.4252,-3.3633,-3.3582,-3.2201,-3.1582,-3.1582,-3.1582,-3.1524,-3.1482,-3.1482,-3.1482,-3.1409,-3.0644,-3.0329,-3.0269,-2.9442,-2.8556,-2.7802,-2.7802,-2.7229,-2.6445,-2.5824,-2.5285,-2.4858,-2.4858,-2.4092,-2.3265,-2.3853,-2.3602,-2.3115,-2.3078,-2.3078,-2.2689,-2.0974,-2.0613,-2.0238,-1.8884,-1.834,-1.8193,-1.8594,-1.833,-1.8037,-1.8018,-1.8008,-1.8008,-1.8008,-1.7207,-1.6358,-1.5376,-1.4378,-1.3818,-1.3818,-1.2952,-1.2372,-1.2372,-1.2305,-1.2305,-1.2305,-1.2305,-1.2311,-1.2325,-1.2325,-1.2331,-1.2351,-1.2625,-1.2849,-1.2849,-1.0971,-1.0637,-1.1781,-0.853,-0.7699,-3.4527,-3.6001,-3.725,-3.81,-3.7714,-3.7187,-3.7284,-3.5957,-3.4707,-3.4707,-3.3008,-3.1738,0.0,0.0,0.0,-3.5648,-3.7131,0.0,-4.0258,-3.9984,0.0,-3.9943,0.0,-3.8999,-3.8999,-3.8999,0.0,0.0,-3.8578,-3.8135,-3.7266,-3.7076,-3.6563,-3.5622,-3.5622,-3.5622,-3.5622,-3.5622,-3.5622,-3.5577,-3.4252,-3.3836,-3.4284,-3.2933,-3.2327,-3.2327,-3.2327,-3.2007,-3.1482,-3.1482,-3.1482,-3.1467,-3.1278,-3.1219,-3.1161,-3.097,-2.995,-2.8684,-2.8684,-2.7736,-2.6496,-2.6289,-2.585,-2.5398,-2.5398,-2.4921,-2.4343,-2.4067,-2.3891,-2.3678,-2.3251,-2.3078,-2.2689,-2.0974,-2.0794,-2.0631,-1.8944,-1.8809,-1.8994,-1.9102,-1.8769,-1.8379,-1.8057,-1.8008,-1.8008,-1.8008,-1.7794,-1.7285,-1.6349,-1.5438,-1.4807,-1.4807,-1.3954,-1.331,-1.331,-1.2739,-1.2305,-1.2305,-1.2305,-1.2405,-1.2625,-1.2708,-1.2746,-1.2973,-1.3053,-1.3093,-1.3093,-1.2804,-1.1975,-1.0616,-0.9937,-0.8922,-3.6365,-3.7598,-3.8508,-3.8788,-3.8291,-3.7552,-3.6874,-3.5371,-3.3926,-3.3184,-3.1582,0.0,-3.0427,0.0,0.0,0.0,0.0,0.0,-3.9719,-3.9872,-3.9901,0.0,-3.9645,0.0,-3.9107,-3.9099,-3.8999,0.0,-3.8707,-3.835,-3.7542,-3.7323,-3.6843,-3.5985,-3.5739,-3.5622,-3.5622,-3.5622,-3.5622,-3.5577,-3.4544,-3.4235,-3.4576,-3.3547,-3.3039,-3.3039,0.0,-3.2382,-3.1966,-3.164,-3.1482,-3.1482,-3.1482,-3.1482,-3.1482,-3.1482,-3.0703,-2.9566,-2.9566,-2.8427,-2.6973,-2.6589,-2.6063,-2.5636,-2.59,-2.5435,-2.4757,-2.4443,-2.4192,-2.3866,-2.3288,-2.3078,-2.275,-2.1491,-2.1221,-2.0895,-1.9766,-1.939,-1.9287,-1.9287,-1.9092,-1.8789,-1.8359,-1.8281,-1.8223,-1.8037,-1.8008,-1.7794,-1.7285,-1.6428,-1.579,-1.579,-1.4522,-1.3673,-1.3673,-1.3005,-1.2445,-1.2311,-1.2552,-1.2712,-1.2822,-1.2879,-1.3033,-1.3206,-1.334,-1.34,-1.34,-1.3181,-1.2122,-1.0344,-1.0038,-0.8882,-3.8529,-3.9273,-3.9587,-3.9599,-3.9023,-3.8004,-3.6366,-3.457,-3.2793,-3.1211,0.0,-2.9003,-2.8186,-2.9338,-3.0962,-3.258,0.0,-3.7199,-3.9027,-3.9656,-3.9967,-4.0139,-3.988,-3.9534,-3.9186,-3.9178,-3.9027,-3.8719,-3.8707,-3.8465,-3.7946,-3.747,-3.6921,-3.6291,-3.5854,-3.5622,-3.5622,-3.5622,-3.5622,-3.5577,-3.4941,-3.464,-3.4688,-3.4037,-3.3735,-3.3684,-3.3039,0.0,-3.2532,-3.1796,-3.1482,-3.1482,-3.1482,-3.1482,-3.1482,-3.1482,-3.097,-3.0329,-3.0329,-2.9192,-2.7604,-2.6905,-2.6249,-2.5787,-2.6214,-2.5686,-2.4895,-2.4745,-2.4368,-2.3866,-2.3288,-2.3078,-2.2884,-2.2075,-2.1608,-2.1241,-2.0709,-2.001,-1.9434,-1.9375,-1.9375,-1.9209,-1.8721,-1.8562,-1.8496,-1.8076,-1.8008,-1.8008,-1.8008,-1.7285,-1.6784,-1.6784,-1.5155,-1.4091,-1.4091,-1.3383,-1.2845,-1.2539,-1.295,-1.3093,-1.2896,-1.3106,-1.3287,-1.3327,-1.3574,-1.3701,-1.3619,-1.2909,-1.1901,-1.0611,-0.9579,-0.8364,-3.8961,-3.9926,-4.0431,-3.9828,-3.9122,-3.8105,-3.6387,-3.4141,0.0,0.0,-2.9062,-2.7382,-2.7171,-2.8437,-3.0081,-3.1739,0.0,0.0,0.0,0.0,-3.9393,0.0,0.0,0.0,0.0,0.0,0.0,0.0,0.0,-3.8465,-3.7946,-3.747,-3.6746,-3.5783,-3.5667,-3.5622,-3.5622,-3.5622,-3.5622,-3.5577,-3.4941,-3.4894,-3.5407,-3.4736,-3.4431,-3.4382,-3.3735,0.0,-3.2532,-3.1796,-3.1482,-3.1482,-3.1482,-3.1482,-3.1482,-3.1482,-3.097,-3.0329,-3.0329,-2.9192,-2.767,-2.7537,-2.6963,-2.6239,-2.5862,-2.5611,-2.5272,-2.4393,-2.4067,-2.3866,-2.3288,-2.3078,-2.2884,-2.2075,-2.2067,-2.1984,-2.0849,-2.0484,-2.0234,-1.9873,-1.9805,-1.9551,-1.8769,-1.8562,-1.8496,-1.8076,-1.8008,-1.8008,-1.8008,-1.7862,-1.7794,-1.7794,-1.6784,-1.607,-1.607,-1.4773,-1.3806,-1.3477,-1.3327,-1.3186,-1.3133,-1.3414,-1.3681,-1.3928,-1.3981,-1.4008,-1.4008,-1.3886,-1.2693,-1.0611,-1.0438,-0.9139,-3.9839,-4.0509,-4.0608,-3.9345,-3.8817,-3.7793,-3.4726,0.0,0.0,0.0,-2.785,-2.6784,-2.6263,-2.7515,0.0,0.0,0.0,0.0,0.0,0.0,0.0,0.0,0.0,0.0,0.0,0.0,0.0,0.0,0.0,-3.8578,-3.8332,-3.7596,-3.6706,-3.5605,-3.5622,-3.5622,-3.5622,-3.5622,-3.5622,-3.5577,-3.5253,-3.5316,-3.5577,-3.527,-3.5098,-3.5098,-3.4382,0.0,-3.3093,-3.2367,-3.1853,-3.1482,-3.1482,-3.1482,-3.1482,-3.1482,-3.1278,-3.0896,-3.0896,-2.9614,-2.7967,-2.7967,-2.7092,-2.5963,-2.5686,-2.541,-2.5021,-2.4217,-2.4004,-2.3866,-2.3288,-2.3078,-2.3005,-2.2628,-2.2344,-2.1823,-2.0504,-2.0411,-2.0508,-2.0293,-2.0068,-1.9717,-1.9082,-1.8789,-1.8496,-1.8076,-1.8008,-1.8008,-1.8008,-1.8008,-1.8008,-1.8008,-1.7139,-1.6636,-1.6636,-1.513,-1.403,-1.3695,-1.355,-1.3367,-1.322,-1.3634,-1.3941,-1.4082,-1.4088,-1.4088,-1.4088,-1.4088,-1.2869,-1.0611,-1.0611,-0.9309,-4.0315,-4.0783,-4.0586,-3.8879,-3.8373,-3.7246,-3.3144,-3.1914,0.0,0.0,-2.679,-2.6392,-2.5639,0.0,-2.8027,0.0,0.0,0.0,0.0,0.0,0.0,0.0,0.0,0.0,0.0,0.0,0.0,0.0,0.0,0.0,-3.8546,-3.7667,-3.6825,-3.5968,-3.5739,-3.5667,-3.5783,-3.5667,-3.5622,-3.5622,-3.5622,-3.5622,-3.5622,-3.5622,-3.5622,-3.556,-3.4894,0.0,0.0,-3.2949,-3.2272,-3.1739,-3.1582,-3.1482,-3.1452,-3.136,-3.1347,-3.1452,-3.136,-2.9928,-2.8227,-2.8227,-2.695,-2.541,-2.5285,-2.5046,-2.4682,-2.4004,-2.3904,-2.3866,-2.3288,-2.3078,-2.3078,-2.3078,-2.2456,-2.1603,-2.0563,-2.049,-2.0537,-2.0449,-2.0225,-1.9863,-1.9258,-1.8936,-1.8603,-1.8086,-1.8008,-1.8008,-1.8008,-1.8008,-1.8008,-1.8008,-1.7354,-1.6922,-1.6922,-1.5713,-1.4684,-1.4057,-1.4052,-1.3811,-1.3227,-1.3774,-1.4088,-1.4088,-1.4088,-1.4088,-1.4088,-1.4088,-1.2869,-1.0611,-1.0611,-0.9309,-3.9546,-4.0387,-4.0616,-3.8982,-3.8008,-3.6504,-3.3008,0.0,0.0,-2.7383,-2.6322,-2.5668,-2.5522,-2.6217,0.0,0.0,0.0,-3.1802,0.0,0.0,0.0,0.0,0.0,0.0,0.0,0.0,0.0,0.0,0.0,0.0,-3.798,-3.747,-3.7135,-3.7076,-3.6122,-3.581,-3.6291,-3.5854,-3.5622,-3.5622,-3.5622,-3.5622,-3.5622,-3.5622,-3.5622,-3.556,-3.4894,0.0,0.0,-3.3145,-3.2532,-3.2437,-3.1739,-3.1482,-3.1465,-3.0836,-3.1001,-3.1377,-3.0806,-2.9537,-2.8227,-2.8227,-2.6698,-2.4795,-2.4293,-2.4456,-2.4594,-2.3514,-2.359,-2.3866,-2.3288,-2.3078,-2.3078,-2.3078,-2.2456,-2.1862,-2.1768,-2.1135,-2.0449,-2.0049,-2.0264,-2.0117,-1.8906,-1.8994,-1.8945,-1.8135,-1.8008,-1.8008,-1.8008,-1.8008,-1.8008,-1.8008,-1.794,-1.7872,-1.7872,-1.7587,-1.6729,-1.5133,-1.5334,-1.482,-1.3233,-1.3774,-1.4088,-1.4088,-1.4088,-1.4088,-1.4088,-1.4088,-1.2869,-1.0611,-1.0611,-0.9309,-3.9283,-3.9681,-3.9409,-3.8769,-3.7559,-3.5625,-3.2207,0.0,-2.8899,-2.6613,-2.5808,-2.5477,-2.5428,-2.5673,-2.641,0.0,0.0,0.0,0.0,0.0,0.0,0.0,0.0,0.0,0.0,0.0,0.0,0.0,0.0,0.0,-3.8382,-3.7877,-3.7506,-3.7228,-3.6481,-3.6182,-3.6374,-3.5854,-3.5622,-3.5622,-3.5622,-3.5622,-3.5605,-3.5148,-3.4945,-3.4928,-3.4645,0.0,0.0,-3.2798,-3.2071,-3.1257,-3.0603,-3.0357,-3.0328,-3.0058,-3.0118,-3.0313,-3.0043,-2.8682,-2.719,-2.7611,-2.5953,-2.3828,-2.3954,-2.3904,-2.3715,-2.3203,-2.3301,-2.3427,-2.3128,-2.3078,-2.3005,-2.2506,-2.2297,-2.2025,-2.13,-2.1032,-2.0777,-2.0017,-2.0059,-1.9844,-1.8809,-1.8779,-1.8691,-1.8105,-1.8008,-1.8008,-1.8008,-1.8008,-1.8008,-1.8008,-1.8008,-1.8008,-1.8008,-1.7018,-1.6167,-1.5501,-1.4825,-1.4111,-1.348,-1.3868,-1.4088,-1.4088,-1.4088,-1.4088,-1.4088,-1.4088,-1.3215,-1.1638,-1.0956,-0.9749,-3.8164,-3.8672,-3.8535,-3.8281,-3.6894,-3.4785,0.0,-2.9975,-2.8455,-2.6091,-2.5484,-2.5406,-2.5394,-2.5357,-2.5793,0.0,0.0,-2.8409,0.0,0.0,0.0,0.0,0.0,0.0,0.0,0.0,0.0,0.0,0.0,0.0,-3.8707,-3.835,-3.7998,-3.7632,-3.6999,-3.6661,-3.6661,-3.6097,-3.5739,-3.5622,-3.5402,-3.5284,-3.5267,-3.4506,-3.4167,-3.4167,-3.4167,0.0,0.0,-3.2575,-3.1852,-3.0729,-3.0105,-2.978,-2.9564,-2.937,-2.9415,-2.9549,-2.9355,-2.8167,-2.6821,-2.7336,-2.5654,-2.356,-2.3981,-2.3761,-2.3351,-2.3128,-2.3078,-2.3078,-2.3078,-2.3078,-2.2944,-2.2384,-2.2396,-2.2201,-2.1004,-2.0997,-2.0833,-1.9728,-1.9736,-1.9639,-1.8779,-1.8562,-1.8535,-1.8242,-1.8086,-1.8008,-1.8008,-1.8008,-1.8008,-1.8008,-1.8008,-1.792,-1.7691,-1.683,-1.5939,-1.5335,-1.4605,-1.4049,-1.3647,-1.3928,-1.4088,-1.4088,-1.4088,-1.4088,-1.4088,-1.4088,-1.347,-1.2242,-1.1123,-0.9836,-3.5801,-3.7285,-3.8398,-3.7539,-3.5996,-3.4043,0.0,-2.9506,-2.7713,-2.5954,-2.5484,-2.5394,-2.5394,-2.5357,-2.5591,-2.6467,0.0,0.0,0.0,0.0,0.0,0.0,0.0,0.0,0.0,0.0,0.0,0.0,0.0,0.0,-3.8707,-3.8707,-3.8707,-3.8658,-3.7703,-3.7173,-3.7173,-3.6643,-3.6139,-3.5605,-3.4861,-3.4506,-3.4472,-3.3744,-3.3423,0.0,0.0,0.0,0.0,-3.2663,-3.2039,-3.1422,-3.0729,-3.0121,-2.9505,-2.8846,-2.9026,-2.949,-2.8831,-2.8139,-2.7501,-2.7501,-2.6064,-2.4292,-2.4292,-2.412,-2.3866,-2.3301,-2.3078,-2.3078,-2.3078,-2.3078,-2.3078,-2.3078,-2.2785,-2.2238,-2.1374,-2.1177,-2.072,-1.8951,-1.9336,-1.9639,-1.8779,-1.8562,-1.8562,-1.8562,-1.8271,-1.8008,-1.8008,-1.8008,-1.8008,-1.8008,-1.8008,-1.7751,-1.7072,-1.7403,-1.6783,-1.4717,-1.5249,-1.5068,-1.3654,-1.3928,-1.4088,-1.4088,-1.4088,-1.4088,-1.4088,-1.4088,-1.347,-1.2242,-1.1123,-0.9309,-3.3848,-3.4219,-3.416,-3.3887,-3.2949,-3.1582,-2.957,-2.8617,-2.7632,-2.589,-2.5421,-2.533,-2.533,-2.5313,-2.5793,-2.7255,-2.7486,0.0,0.0,0.0,0.0,0.0,0.0,0.0,0.0,0.0,0.0,0.0,0.0,0.0,-3.8707,-3.8707,-3.8707,-3.8707,-3.805,-3.7274,-3.6395,-3.588,-3.515,-3.41,-3.3863,-3.3744,-3.3728,-3.2983,-3.2645,0.0,0.0,0.0,0.0,-3.1788,-3.1325,-3.0559,-2.9517,-2.903,-2.8752,-2.8167,-2.8023,-2.8225,-2.7964,-2.7409,-2.692,-2.7394,-2.6426,-2.5063,-2.5063,-2.4294,-2.3376,-2.3128,-2.3078,-2.3078,-2.3078,-2.3078,-2.3078,-2.3078,-2.3008,-2.2587,-2.1427,-2.1217,-2.0653,-1.8953,-1.9092,-1.9209,-1.8359,-1.8447,-1.8545,-1.8252,-1.8096,-1.8008,-1.8008,-1.8008,-1.8008,-1.8008,-1.8271,-1.8346,-1.8119,-1.7155,-1.642,-1.6046,-1.5145,-1.4448,-1.3948,-1.4035,-1.4088,-1.4088,-1.4088,-1.4088,-1.4088,-1.4088,-1.347,-1.2322,-1.1895,-1.0519,-3.1504,-3.1836,-3.1719,-3.1719,-3.1055,-3.0039,-2.8591,-2.7917,-2.7211,-2.5754,-2.5387,-2.5303,-2.5303,-2.5303,-2.5649,-2.6736,-2.7198,0.0,0.0,0.0,0.0,0.0,0.0,0.0,0.0,0.0,0.0,0.0,0.0,0.0,-3.8248,-3.7955,-3.779,-3.779,-3.7763,-3.703,-3.5563,-3.5249,-3.4557,-3.3406,-3.3119,-3.2983,-3.2949,-3.2205,-3.1867,0.0,0.0,0.0,0.0,-3.1041,-3.0688,-3.0166,-2.8966,-2.8511,-2.8431,-2.781,-2.7625,-2.7625,-2.7625,-2.7306,-2.6982,-2.7458,-2.6587,-2.5342,-2.5063,-2.4105,-2.3078,-2.3078,-2.3078,-2.3078,-2.3078,-2.3078,-2.3078,-2.3078,-2.3078,-2.2776,-2.1684,-2.1305,-2.0718,-1.9158,-1.8952,-1.8867,-1.834,-1.833,-1.8359,-1.8262,-1.8115,-1.8008,-1.8008,-1.8008,-1.8008,-1.8008,-1.8389,-1.8489,-1.8284,-1.7067,-1.6124,-1.5771,-1.4712,-1.4088,-1.4088,-1.4088,-1.4088,-1.4088,-1.4088,-1.4088,-1.4088,-1.4088,-1.347,-1.2328,-1.2328,-1.1295,0.0,-2.9961,-3.0605,-3.0547,-2.9961,-2.9159,-2.8227,-2.7386,0.0,-2.5589,-2.5357,-2.5322,-2.538,-2.5341,-2.5341,-2.5457,-2.6159,0.0,0.0,0.0,0.0,0.0,0.0,0.0,0.0,0.0,0.0,0.0,0.0,0.0,-3.7404,-3.6707,-3.6266,-3.6211,-3.6927,-3.649,-3.4783,-3.4747,-3.4239,-3.3279,-3.2568,-3.2205,-3.2212,-3.1495,-3.119,0.0,0.0,0.0,0.0,-3.0617,-3.0335,-3.0251,-2.9058,-2.8559,-2.8511,-2.786,-2.7625,-2.7625,-2.7625,-2.7625,-2.7625,-2.7625,-2.6654,-2.5342,-2.4624,-2.3767,-2.3078,-2.3078,-2.3078,-2.3078,-2.3078,-2.3078,-2.3078,-2.3078,-2.3078,-2.2884,-2.2063,-2.1532,-2.0864,-1.9581,-1.892,-1.8654,-1.8594,-1.8271,-1.8144,-1.8535,-1.8262,-1.8008,-1.8008,-1.8008,-1.8008,-1.8008,-1.8418,-1.84,-1.7748,-1.7115,-1.5981,-1.4314,-1.4173,-1.4088,-1.4088,-1.4088,-1.4088,-1.4088,-1.4088,-1.4088,-1.4088,-1.4088,-1.3555,-1.2413,-1.2413,-1.1815,-2.6504,0.0,-2.7754,-2.709,-2.7223,-2.729,0.0,-2.6476,-2.6468,-2.558,-2.5357,-2.5495,-2.6178,-2.5755,-2.5736,-2.7063,-2.7467,-2.7871,0.0,0.0,0.0,0.0,0.0,0.0,0.0,0.0,0.0,0.0,0.0,-3.6578,-3.6578,-3.6395,-3.5991,-3.5349,-3.5495,-3.5246,-3.4501,-3.4138,-3.3354,-3.2193,-3.1691,-3.1444,-3.1444,-3.1275,-3.119,0.0,0.0,0.0,-3.119,-3.1055,-3.0975,-3.0878,-2.9673,-2.918,-2.9042,-2.7993,-2.7625,-2.7625,-2.7625,-2.7625,-2.7625,-2.7625,-2.6982,-2.6122,-2.5342,-2.4221,-2.3078,-2.3078,-2.3078,-2.3078,-2.3078,-2.3078,-2.3078,-2.3078,-2.3078,-2.2884,-2.2063,-2.1785,-2.1238,-1.9649,-1.9193,-1.8941,-1.8291,-1.8076,-1.8047,-1.8144,-1.8076,-1.8008,-1.8008,-1.8008,-1.8008,-1.8008,-1.8682,-1.8724,-1.7775,-1.7115,-1.6301,-1.5357,-1.4573,-1.4088,-1.4088,-1.4088,-1.4088,-1.4088,-1.4088,-1.4088,-1.4088,-1.4088,-1.3913,-1.3646,-1.3646,-1.3033,-2.5703,-2.6348,-2.6894,-2.6406,-2.6619,-2.6806,-2.6269,-2.6155,-2.599,-2.5468,0.0,0.0,-2.5928,-2.5947,0.0,0.0,-2.7948,0.0,0.0,0.0,0.0,0.0,0.0,0.0,0.0,0.0,0.0,0.0,0.0,-3.5716,-3.5716,-3.5349,-3.4945,-3.4468,-3.4468,-3.4282,-3.3864,-3.3611,-3.3024,-3.2144,-3.1677,-3.1487,-3.147,-3.1291,-3.119,0.0,0.0,0.0,-3.1151,-3.0601,-3.0518,-3.0658,-2.9164,-2.8717,-2.8857,-2.7944,-2.7625,-2.7625,-2.7625,-2.7625,-2.7625,-2.7625,-2.6864,-2.5906,-2.5508,-2.4323,-2.3078,-2.3078,-2.3078,-2.3078,-2.3078,-2.3078,-2.3078,-2.3078,-2.3078,-2.3005,-2.2567,-2.2125,-2.1616,-2.0655,-1.9814,-1.9177,-1.8654,-1.8269,-1.8008,-1.8008,-1.8008,-1.8008,-1.8008,-1.8008,-1.8008,-1.8008,-1.8603,-1.8543,-1.7432,-1.7247,-1.6756,-1.5749,-1.465,-1.4088,-1.4088,-1.4088,-1.4088,-1.4088,-1.4088,-1.4088,-1.4088,-1.4088,-1.4088,-1.4088,-1.4088,-1.3737,-2.582,-2.6445,-2.6973,-2.6836,-2.6894,-2.6929,-2.6661,0.0,0.0,0.0,0.0,0.0,0.0,-2.6188,0.0,0.0,0.0,0.0,0.0,0.0,0.0,0.0,0.0,0.0,0.0,0.0,0.0,0.0,0.0,-3.4807,-3.4807,-3.4174,-3.3807,-3.3807,-3.3807,-3.3652,-3.3302,-3.3243,-3.3014,-3.2616,-3.2057,-3.1789,-3.1789,-3.1372,-3.119,-3.119,0.0,0.0,-3.1112,-3.0123,-2.9935,-3.0123,-2.8528,-2.8125,-2.8431,-2.781,-2.7625,-2.7625,-2.7625,-2.7625,-2.7625,-2.7625,-2.6745,-2.5673,-2.5453,-2.4496,-2.3412,-2.3198,-2.3078,-2.3078,-2.3078,-2.3078,-2.3078,-2.3078,-2.3078,-2.3078,-2.3078,-2.2567,-2.2002,-2.1753,-2.0526,-1.9431,-1.9177,-1.8462,-1.8008,-1.8008,-1.8008,-1.8008,-1.8008,-1.8008,-1.8008,-1.8008,-1.8389,-1.8199,-1.7324,-1.755,-1.7235,-1.6149,-1.4906,-1.4203,-1.4082,-1.4088,-1.4088,-1.4088,-1.4088,-1.4088,-1.4088,-1.4088,-1.4088,-1.4088,-1.4088,-1.4088,-2.6406,-2.6894,-2.6816,-2.6074,-2.6402,-2.672,-2.5969,-2.5644,0.0,0.0,0.0,0.0,0.0,-2.7046,-2.7315,0.0,0.0,0.0,0.0,0.0,0.0,0.0,0.0,0.0,0.0,0.0,0.0,0.0,0.0,-3.399,-3.399,-3.3862,-3.3807,-3.3807,-3.3807,-3.3762,-3.3707,-3.3361,-3.3154,-3.3075,-3.223,-3.1789,-3.1789,-3.1372,-3.119,-3.119,0.0,-3.119,-3.119,-3.1015,-3.0658,-3.0208,-2.9451,-2.8873,-2.8431,-2.781,-2.7625,-2.7625,-2.7625,-2.7625,-2.7625,-2.7625,-2.7458,-2.7034,-2.5783,-2.5231,-2.4781,-2.3471,-2.3078,-2.3078,-2.3078,-2.3078,-2.3078,-2.3078,-2.3078,-2.3078,-2.3078,-2.3005,-2.2506,-2.1101,-2.059,-1.9944,-1.8462,-1.8076,-1.8008,-1.8008,-1.8008,-1.8008,-1.8008,-1.8008,-1.8008,-1.8008,-1.8389,-1.8562,-1.835,-1.7917,-1.7748,-1.7873,-1.6006,-1.4707,-1.4159,-1.4088,-1.4088,-1.4088,-1.4088,-1.4088,-1.4088,-1.4088,-1.4088,-1.4088,-1.4088,-1.4088,-2.4844,-2.5605,-2.6191,-2.5801,-2.705,-2.8235,-2.7813,-2.7329,0.0,0.0,0.0,0.0,0.0,0.0,-2.8695,-3.0799,0.0,0.0,0.0,0.0,0.0,0.0,0.0,0.0,0.0,0.0,0.0,0.0,0.0,0.0,-3.4018,-3.3876,-3.3807,-3.3807,-3.3807,-3.3807,-3.3807,-3.3625,-3.3522,-3.3522,-3.2598,-3.2161,-3.2179,-3.1487,-3.119,-3.119,0.0,-3.119,-3.119,-3.0838,-3.0559,-3.0208,-2.9271,-2.8732,-2.8431,-2.781,-2.7625,-2.7625,-2.7625,-2.7625,-2.7625,-2.7625,-2.7357,-2.6826,-2.5728,-2.5119,-2.4567,-2.3424,-2.3078,-2.3078,-2.3078,-2.3078,-2.3078,-2.3078,-2.3078,-2.3078,-2.3078,-2.3078,-2.275,-2.1553,-2.091,-2.0204,-1.8911,-1.8337,-1.8008,-1.8008,-1.8008,-1.8008,-1.8008,-1.8008,-1.8008,-1.8008,-1.8184,-1.8301,-1.8301,-1.8046,-1.7706,-1.7441,-1.6732,-1.6118,-1.5876,-1.5304,-1.4977,-1.4977,-1.4412,-1.4088,-1.4088,-1.4088,-1.4088,-1.4088,-1.4088,-1.4088,-2.3848,-2.457,-2.5449,-2.5644,0.0,-2.9082,-2.9445,-2.8856,0.0,0.0,0.0,0.0,0.0,-2.9512,0.0,-3.1788,0.0,0.0,0.0,0.0,0.0,0.0,0.0,0.0,0.0,0.0,0.0,0.0,0.0,0.0,-3.42,-3.3935,-3.3807,-3.3807,-3.3807,-3.3807,-3.3807,-3.3807,-3.3807,-3.3788,-3.3027,-3.2616,-3.2484,-3.1677,-3.1291,-3.119,-3.119,-3.119,-3.1151,-3.0699,-3.0435,-3.0208,-2.9271,-2.8732,-2.8431,-2.781,-2.7625,-2.7625,-2.7625,-2.7625,-2.7625,-2.7625,-2.7203,-2.6602,-2.5673,-2.5007,-2.4337,-2.3365,-2.3078,-2.3078,-2.3078,-2.3078,-2.3078,-2.3078,-2.3078,-2.3078,-2.3078,-2.3078,-2.2823,-2.1815,-2.1037,-2.0268,-1.9177,-1.8462,-1.8008,-1.8008,-1.8008,-1.8008,-1.8008,-1.8008,-1.8008,-1.8008,-1.8008,-1.8047,-1.8144,-1.834,-1.8122,-1.7501,-1.7522,-1.7493,-1.7334,-1.6519,-1.6108,-1.6108,-1.5061,-1.4489,-1.4489,-1.425,-1.4088,-1.4088,-1.4088,-1.4088,-2.5117,-2.5019,-2.4687,-2.5508,-2.6445,-2.7617,-2.9238,-2.8926,0.0,-3.0294,0.0,0.0,0.0,-3.1875,-3.2905,0.0,0.0,0.0,0.0,0.0,0.0,0.0,0.0,0.0,0.0,0.0,0.0,0.0,0.0,0.0,-3.42,-3.3935,-3.3807,-3.3807,-3.3807,-3.3807,-3.3807,-3.3807,-3.3807,-3.3788,-3.3361,-3.2921,-3.2484,-3.1986,-3.1528,-3.119,-3.119,-3.119,-3.119,-3.1151,-3.0797,-3.0293,-3.0208,-2.9496,-2.8431,-2.781,-2.7625,-2.7625,-2.7625,-2.7625,-2.7625,-2.7625,-2.756,-2.724,-2.5837,-2.5342,-2.5007,-2.3531,-2.3078,-2.3078,-2.3078,-2.3078,-2.3078,-2.3078,-2.3078,-2.3078,-2.3078,-2.3078,-2.2628,-2.1037,-2.0655,-2.0074,-1.8395,-1.8008,-1.8008,-1.8008,-1.8008,-1.8008,-1.8008,-1.8008,-1.8008,-1.8008,-1.8008,-1.8164,-1.8555,-1.9326,-1.9739,-1.9667,-1.8773,-1.7935,-1.7326,-1.7253,-1.7172,-1.7172,-1.6108,-1.5621,-1.5621,-1.4573,-1.4088,-1.4088,-1.4088,-1.4088,-2.3301,-2.3867,-2.4473,-2.4805,-2.6367,0.0,0.0,-3.0176,-3.1055,-3.2186,-3.2419,0.0,0.0,0.0,0.0,0.0,0.0,0.0,0.0,0.0,0.0,0.0,0.0,0.0,0.0,0.0,0.0,0.0,0.0,0.0,-3.4529,-3.4237,-3.3986,-3.3807,-3.3807,-3.3807,-3.3807,-3.3807,-3.3807,-3.3807,-3.339,-3.3124,-3.2921,-3.2161,-3.1733,-3.1565,-3.1329,-3.119,-3.119,-3.119,-3.1055,-3.0838,-3.0435,-2.954,-2.8463,-2.8222,-2.7894,-2.7625,-2.7625,-2.7625,-2.7625,-2.7625,-2.7625,-2.7408,-2.639,-2.5728,-2.5175,-2.4163,-2.3484,-2.3078,-2.3078,-2.3078,-2.3078,-2.3078,-2.3078,-2.3078,-2.3078,-2.3078,-2.2763,-2.1616,-2.0974,-2.0204,-1.9044,-1.8327,-1.8008,-1.8008,-1.8008,-1.8008,-1.8008,-1.8008,-1.8008,-1.8008,-1.8242,-1.8467,-1.8623,-1.9424,-1.9912,-1.9912,-1.9774,-1.9596,-1.9344,-1.8709,-1.839,-1.839,-1.7253,-1.6683,-1.6683,-1.6281,-1.5711,-1.5054,-1.5054,-1.4734,-2.25,-2.332,-2.4394,-2.4394,0.0,0.0,-2.9805,-3.1152,-3.2578,-3.3945,-3.3789,0.0,0.0,0.0,0.0,0.0,0.0,0.0,0.0,0.0,0.0,0.0,0.0,0.0,0.0,0.0,0.0,0.0,0.0,0.0,0.0,-3.3743,-3.3332,-3.3036,-3.3036,-3.3036,-3.3036,-3.3036,-3.3164,-3.3421,-3.2998,-3.2871,-3.2952,-3.2298,-3.1861,-3.1603,-3.1312,-3.119,-3.119,-3.119,-3.119,-3.1151,-3.0518,-2.9805,-2.9012,-2.8654,-2.8238,-2.786,-2.7675,-2.7625,-2.7625,-2.7625,-2.7625,-2.7458,-2.6721,-2.596,-2.5231,-2.4509,-2.3708,-2.3078,-2.3078,-2.3078,-2.3078,-2.3078,-2.3078,-2.3078,-2.3078,-2.3078,-2.2884,-2.2063,-2.1175,-2.0333,-1.9431,-1.8596,-1.8008,-1.8008,-1.8008,-1.8057,-1.8193,-1.8213,-1.8262,-1.8398,-1.8789,-1.9033,-1.9033,-1.9697,-2.0117,-2.0117,-2.04,-2.0566,-2.0566,-1.9923,-1.952,-1.952,-1.839,-1.7827,-1.7827,-1.7504,-1.6927,-1.6191,-1.6191,-1.5628,-2.332,-2.373,-2.4394,-2.4394,0.0,0.0,-3.0703,-3.1582,-3.2949,-3.5488,-3.4629,-3.3691,-3.4531,0.0,0.0,0.0,0.0,0.0,0.0,0.0,0.0,0.0,0.0,0.0,0.0,0.0,0.0,0.0,0.0,0.0,0.0,-3.2379,-3.1681,-3.1409,-3.1384,-3.1384,-3.1384,-3.1384,-3.1806,-3.257,-3.2182,-3.2199,-3.2517,-3.2484,-3.2021,-3.119,-3.119,-3.119,-3.119,-3.119,-3.119,-3.1151,-3.0518,-3.0293,-3.0166,-2.8966,-2.8511,-2.8415,-2.781,-2.761,-2.7625,-2.7625,-2.7625,-2.7458,-2.6721,-2.6014,-2.5231,-2.4509,-2.3708,-2.3138,-2.3078,-2.3078,-2.3078,-2.3078,-2.3078,-2.3078,-2.3078,-2.3078,-2.2884,-2.2063,-2.1164,-2.0333,-1.9431,-1.8596,-1.8008,-1.8008,-1.8018,-1.8164,-1.8523,-1.8643,-1.8809,-1.9238,-1.9668,-1.9912,-1.9912,-2.0312,-2.0566,-2.0566,-2.0566,-2.0566,-2.0566,-2.0566,-2.0566,-2.0566,-1.952,-1.9036,-1.9036,-1.7908,-1.7342,-1.7334,-1.7334,-1.6764,-2.248,-2.3301,0.0,-2.4394,0.0,0.0,0.0,-3.293,0.0,0.0,-3.5586,-3.5117,-3.4766,0.0,0.0,0.0,0.0,0.0,0.0,0.0,0.0,0.0,0.0,0.0,0.0,0.0,0.0,0.0,0.0,0.0,0.0,-3.2462,-3.2109,-3.1681,-3.1677,-3.1584,-3.1384,-3.1384,-3.1513,-3.1751,-3.2216,-3.2627,-3.2983,-3.2298,-3.1861,-3.1603,-3.1312,-3.119,-3.119,-3.119,-3.119,-3.119,-3.1015,-3.0658,-3.0251,-2.9892,-2.9225,-2.8463,-2.8286,-2.7959,-2.7625,-2.7625,-2.7625,-2.756,-2.7357,-2.6759,-2.6014,-2.5287,-2.4509,-2.3826,-2.3258,-2.3078,-2.3078,-2.3078,-2.3078,-2.3078,-2.3078,-2.3078,-2.2884,-2.2063,-2.1678,-2.1037,-1.9562,-1.911,-1.8721,-1.8076,-1.8262,-1.8603,-1.9043,-1.9092,-1.915,-1.9277,-1.9668,-1.9912,-1.9912,-2.0312,-2.0566,-2.0566,-2.0566,-2.0566,-2.0566,-2.0566,-2.0566,-2.0566,-2.0323,-2.0167,-2.0079,-1.9756,-1.9195,-1.8479,-1.8479,-1.79,-2.3457,-2.4394,0.0,-2.6719,-2.9219,-3.1816,-3.3359,0.0,0.0,0.0,0.0,-3.543,-3.5254,0.0,0.0,0.0,0.0,0.0,0.0,0.0,0.0,0.0,0.0,0.0,0.0,0.0,0.0,0.0,0.0,0.0,0.0,-3.1695,-3.1309,-3.0865,-3.0844,-3.0713,-3.0448,-3.0448,-3.0613,-3.0925,-3.125,-3.1701,-3.2234,-3.2135,-3.2004,-3.1789,-3.1372,-3.119,-3.119,-3.119,-3.119,-3.119,-3.119,-3.0975,-3.0617,-3.0393,-2.9848,-2.915,-2.8654,-2.8286,-2.791,-2.7675,-2.7625,-2.7625,-2.7625,-2.7086,-2.6404,-2.596,-2.5063,-2.4176,-2.3708,-2.3365,-2.3078,-2.3078,-2.3078,-2.3078,-2.3078,-2.3078,-2.2944,-2.2445,-2.1815,-2.1037,-2.0009,-1.9233,-1.8647,-1.8301,-1.876,-1.9383,-2.0068,-1.9974,-1.9795,-1.9795,-2.0019,-2.0176,-2.0176,-2.041,-2.0566,-2.0566,-2.0566,-2.0566,-2.0566,-2.0566,-2.0566,-2.0566,-2.0566,-2.0566,-2.0566,-2.0566,-2.0245,-1.9599,-1.9599,-1.9036,-2.5254,-2.6152,-2.7519,-3.0137,-3.1601,0.0,-3.5449,-3.5937,-3.5898,-3.5976,0.0,-3.4941,0.0,0.0,0.0,0.0,0.0,0.0,0.0,0.0,0.0,0.0,0.0,0.0,0.0,0.0,0.0,0.0,0.0,0.0,0.0,-3.0481,-2.9845,-2.9474,-2.9434,-2.931,-2.904,-2.9017,-2.9384,-3.0099,-2.9769,-3.0044,-3.0784,-3.1809,-3.2072,-3.1685,-3.1355,-3.119,-3.119,-3.119,-3.119,-3.119,-3.119,-3.119,-3.1151,-3.0559,-3.0351,-3.0123,-2.8996,-2.8559,-2.8415,-2.781,-2.7625,-2.7625,-2.7625,-2.7137,-2.6563,-2.651,-2.5508,-2.4408,-2.435,-2.3708,-2.3078,-2.3078,-2.3078,-2.3078,-2.3078,-2.3078,-2.3078,-2.3005,-2.1803,-2.0782,-2.0655,-1.9365,-1.8486,-1.8824,-1.9565,-2.0386,-2.1335,-2.1055,-2.0712,-2.0644,-2.0566,-2.0566,-2.0566,-2.0566,-2.0566,-2.0566,-2.0566,-2.0566,-2.0566,-2.0566,-2.0566,-2.0566,-2.0566,-2.0566,-2.0566,-2.0566,-2.0566,-2.0566,-2.0566,-2.0079,-2.3613,-2.4785,0.0,0.0,-3.2031,-3.4492,-3.5723,-3.5469,-3.5176,-3.5859,-3.5312,-3.4766,0.0,0.0,0.0,0.0,0.0,0.0,0.0,0.0,0.0,0.0,0.0,0.0,0.0,0.0,0.0,0.0,0.0,0.0,-3.0599,-3.0426,-3.0182,-2.9877,-2.9731,-2.9533,-2.931,-2.9112,-2.9085,0.0,-2.9826,-3.0161,-3.0337,-3.054,-3.069,-3.0888,-3.1096,-3.119,-3.119,-3.119,-3.119,-3.119,-3.119,-3.119,-3.119,-3.1055,-3.0699,-3.0208,-2.9451,-2.8919,-2.8415,-2.781,-2.7625,-2.7625,-2.7625,-2.7509,-2.7255,-2.6669,-2.5837,-2.5007,-2.4452,-2.3708,-2.3078,-2.3078,-2.3078,-2.3078,-2.3078,-2.3078,-2.2884,-2.2249,-2.2372,-2.2113,-2.0846,-2.0846,-2.1076,-2.1279,-2.1435,-2.1635,-2.186,-2.1748,-2.1451,-2.0712,-2.0566,-2.0566,-2.0566,-2.0566,-2.0566,-2.0566,-2.0566,-2.0566,-2.0566,-2.0566,-2.0566,-2.0566,-2.0566,-2.0566,-2.0566,-2.0566,-2.0566,-2.0566,-2.0566,-2.0479,-2.4004,0.0,0.0,-3.0566,0.0,-3.4824,-3.5273,-3.5039,-3.4707,-3.4746,-3.4394,0.0,0.0,0.0,0.0,0.0,0.0,0.0,0.0,0.0,0.0,0.0,0.0,0.0,0.0,0.0,0.0,0.0,0.0,-3.0398,-3.0398,-3.0398,-3.0286,-3.0013,-2.9908,-2.9765,-2.9551,-2.9312,-2.9181,-2.92,-2.949,-2.9641,-2.9635,-3.0196,-3.0429,-3.0365,-3.0384,-3.0409,-3.0372,-3.0221,-3.0345,-3.0666,-3.0666,-3.0886,-3.119,-3.119,-3.1015,-3.0658,-3.0038,-2.9451,-2.8826,-2.8222,-2.786,-2.7625,-2.7625,-2.7625,-2.7524,-2.7137,-2.6215,-2.5287,-2.4951,-2.3989,-2.3078,-2.3078,-2.3078,-2.3078,-2.3078,-2.3078,-2.3005,-2.2567,-2.2506,-2.2249,-2.1365,-2.1435,-2.1758,-2.2223,-2.2377,-2.2514,-2.2956,-2.2856,-2.2553,-2.2048,-2.1973,-2.1973,-2.1973,-2.1973,-2.1973,-2.1973,-2.1973,-2.1973,-2.1973,-2.1973,-2.1527,-2.0644,-2.0566,-2.0566,-2.0566,-2.0566,-2.0566,-2.0566,-2.0566,-2.0566,-2.4648,0.0,-2.834,-3.2031,-3.373,0.0,-3.4473,-3.4375,-3.4062,-3.334,0.0,0.0,0.0,0.0,0.0,0.0,0.0,0.0,0.0,0.0,0.0,0.0,0.0,0.0,0.0,0.0,0.0,0.0,0.0,-3.0398,-3.0398,-3.0398,-3.0299,-3.0075,-3.0013,-2.9924,-2.9746,-2.9551,-2.9434,-2.9392,-2.9134,-2.8994,-2.903,-3.0031,-3.0327,-3.0004,-2.9717,-2.9555,-2.9488,-2.9211,-2.9488,-3.0108,-3.0108,-3.0548,-3.119,-3.119,-3.119,-3.1095,-3.0518,-2.9978,-2.9451,-2.8732,-2.814,-2.771,-2.7625,-2.7625,-2.7625,-2.7625,-2.6654,-2.5563,-2.5453,-2.4381,-2.3245,-2.3138,-2.3078,-2.3078,-2.3078,-2.3078,-2.3078,-2.3078,-2.2567,-2.2125,-2.2125,-2.1766,-2.1874,-2.2779,-2.2907,-2.3202,-2.394,-2.3814,-2.3537,-2.3391,-2.347,-2.3514,-2.3514,-2.3514,-2.3514,-2.3514,-2.3514,-2.3514,-2.3514,-2.3514,-2.2702,-2.1155,-2.0934,-2.0867,-2.0867,-2.0712,-2.0566,-2.0566,-2.0566,-2.0566,-2.3164,0.0,-2.957,0.0,-3.2402,-3.3574,0.0,0.0,-3.25,0.0,0.0,0.0,0.0,0.0,0.0,0.0,0.0,0.0,0.0,0.0,0.0,0.0,0.0,0.0,0.0,0.0,0.0,0.0,-3.0398,-3.0398,-3.0398,-3.0398,-3.0379,-3.0355,-3.0122,-2.9984,-2.9969,-2.9746,-2.957,-2.9392,-2.9134,-2.8994,-2.9012,-2.9167,-2.9384,-2.9663,-2.9915,-2.9819,-2.9488,-2.9437,-2.9691,-3.0108,-3.0108,-3.0548,-3.119,-3.119,-3.119,-3.1095,-3.0518,-3.0251,-2.9978,-2.8873,-2.8463,-2.8271,-2.776,-2.7625,-2.7625,-2.7625,-2.6982,-2.6229,-2.5563,-2.4781,-2.3943,-2.3245,-2.3078,-2.3078,-2.3078,-2.3078,-2.3078,-2.3078,-2.3017,-2.2944,-2.2944,-2.2885,-2.3083,-2.3729,-2.3853,-2.3704,-2.3471,-2.3789,-2.3758,-2.2887,-2.3184,-2.3514,-2.3514,-2.3514,-2.3514,-2.3514,-2.3514,-2.3514,-2.3514,-2.3514,-2.3368,-2.3147,-2.2264,-2.1811,-2.1811,-2.1011,-2.0566,-2.0566,-2.0566,-2.0566,-2.334,-2.5586,-2.7988,0.0,-3.1445,-3.2129,-3.2617,0.0,-3.2051,0.0,0.0,0.0,0.0,0.0,0.0,0.0,0.0,0.0,0.0,0.0,0.0,0.0,0.0,0.0,0.0,0.0,0.0,0.0,-3.0417,-3.0398,-3.0398,-3.0398,-3.0179,-2.9698,-3.003,-2.9939,-2.9327,-2.9588,-2.9514,-2.9178,-2.9203,-2.9156,-2.8994,-2.8994,-2.9106,-2.9264,-2.9188,-2.9062,-2.8871,-2.8679,-2.8824,-2.9196,-2.9607,-3.0111,-3.0632,-3.1055,-3.119,-3.1151,-3.0878,-3.0559,-3.0208,-2.9673,-2.9271,-2.8873,-2.8271,-2.8091,-2.8042,-2.771,-2.7086,-2.6457,-2.6122,-2.5453,-2.4724,-2.3943,-2.3767,-2.3662,-2.3198,-2.3078,-2.3078,-2.3078,-2.3078,-2.3078,-2.3078,-2.3078,-2.3165,-2.3477,-2.3791,-2.3954,-2.3707,-2.4222,-2.4451,-2.4378,-2.4536,-2.48,-2.5181,-2.5205,-2.5205,-2.5205,-2.5205,-2.5205,-2.5205,-2.5205,-2.5205,-2.5205,-2.3661,-2.2553,-2.2027,-2.1593,-2.1078,-2.0566,-2.0566,-2.0566,0.0,0.0,-2.5762,-2.8828,-2.9746,-3.0137,0.0,0.0,-3.1094,0.0,0.0,0.0,0.0,0.0,0.0,0.0,0.0,0.0,0.0,0.0,0.0,0.0,0.0,0.0,0.0,0.0,0.0,0.0,-3.0259,-3.0078,-3.0063,-2.989,-2.9467,-2.8813,-2.9429,-2.939,-2.8574,-2.9109,-2.927,-2.9112,-2.9243,-2.9181,-2.8994,-2.8994,-2.8994,-2.8975,-2.8682,-2.8496,-2.8394,-2.8129,-2.8223,-2.8612,-2.9261,-2.978,-3.0309,-3.0959,-3.119,-3.119,-3.119,-3.0935,-3.0518,-3.0351,-2.9995,-2.954,-2.8919,-2.8606,-2.8431,-2.7959,-2.7342,-2.6721,-2.6563,-2.6068,-2.5453,-2.4509,-2.4292,-2.406,-2.3245,-2.3078,-2.3078,-2.3078,-2.3078,-2.3078,-2.3078,-2.3078,-2.3078,-2.3078,-2.3502,-2.3778,-2.3778,-2.4268,-2.4808,-2.5335,-2.5523,-2.5824,-2.6483,-2.6533,-2.6533,-2.6533,-2.6533,-2.6458,-2.6251,-2.6239,-2.6176,-2.605,-2.4588,-2.3485,-2.2776,-2.2478,-2.1886,-2.0934,-2.0934,-2.0867,0.0,-2.2617,0.0,-2.5508,-2.6582,0.0,0.0,0.0,0.0,0.0,0.0,0.0,0.0,0.0,0.0,0.0,0.0,0.0,0.0,0.0,0.0,0.0,0.0,0.0,0.0,0.0,0.0,0.0,-2.9724,-2.9226,-2.9171,-2.8429,-2.8005,-2.7948,-2.8005,-2.8005,-2.7956,-2.8297,-2.8781,-2.9372,-2.9134,-2.9017,-2.8994,-2.8994,-2.8994,-2.8994,-2.8994,-2.8749,-2.8394,-2.8394,-2.8603,-2.9011,-2.936,-2.9955,-3.0644,-3.104,-3.119,-3.119,-3.119,-3.119,-3.1055,-3.0477,-3.0293,-3.0123,-2.954,-2.895,-2.8511,-2.8463,-2.7993,-2.7357,-2.6669,-2.6457,-2.6068,-2.4624,-2.4292,-2.406,-2.3245,-2.3078,-2.3078,-2.3078,-2.3078,-2.3078,-2.3078,-2.3078,-2.3078,-2.3078,-2.3103,-2.3175,-2.3175,-2.369,-2.4255,-2.4808,-2.531,-2.5824,-2.6483,-2.6533,-2.6533,-2.6533,-2.6533,-2.6214,-2.5661,-2.5636,-2.541,-2.4921,-2.4766,-2.4786,-2.4862,-2.3891,-2.2925,-2.1962,-2.1962,-2.1441,0.0,0.0,0.0,-2.4434,-2.5527,-2.6387,-2.7266,-2.7891,0.0,0.0,0.0,0.0,0.0,0.0,0.0,0.0,0.0,0.0,0.0,0.0,0.0,0.0,0.0,0.0,0.0,0.0,0.0,0.0,0.0,-2.9016,-2.8434,-2.8125,-2.7682,-2.7082,-2.7601,-2.7827,-2.7631,-2.8332,-2.8636,-2.8573,-2.9174,-2.9293,-2.8994,-2.8994,-2.8994,-2.8994,-2.8994,-2.8929,-2.8791,-2.8791,-2.8721,-2.8693,-2.9563,-2.9878,-3.0007,-3.087,-3.119,-3.119,-3.119,-3.119,-3.1151,-3.0958,-3.0878,-3.0757,-3.0166,-2.9805,-2.9496,-2.8748,-2.8319,-2.8042,-2.7393,-2.7203,-2.6982,-2.5946,-2.5007,-2.4234,-2.3943,-2.3484,-2.3078,-2.3078,-2.3078,-2.3078,-2.3078,-2.3078,-2.3078,-2.3078,-2.3078,-2.3078,-2.3078,-2.3314,-2.3665,-2.423,-2.4456,-2.4795,-2.536,-2.541,-2.541,-2.541,-2.541,-2.531,-2.5109,-2.5096,-2.5008,-2.482,-2.482,-2.4526,-2.3914,-2.3559,-2.2854,-2.1936,-2.1373,-2.1031,-2.1267,0.0,0.0,0.0,0.0,-2.4648,-2.5527,0.0,0.0,0.0,0.0,0.0,0.0,0.0,0.0,0.0,0.0,0.0,0.0,0.0,0.0,0.0,0.0,0.0,0.0,0.0,0.0,0.0,0.0,0.0,-2.7632,-2.7292,-2.682,-2.6178,-2.6736,-2.7044,-2.7108,-2.7655,-2.7881,-2.7811,-2.8516,-2.8802,-2.8688,-2.8688,-2.8809,-2.8994,-2.8994,-2.8994,-2.8994,-2.8994,-2.8839,-2.8692,-2.9576,-2.9779,-2.9642,-3.0638,-3.0997,-3.1011,-3.1128,-3.119,-3.119,-3.119,-3.119,-3.1112,-3.0699,-3.0293,-2.9805,-2.9012,-2.8511,-2.8091,-2.771,-2.7408,-2.71,-2.6616,-2.5342,-2.4292,-2.4292,-2.3649,-2.3078,-2.3078,-2.3078,-2.3078,-2.3078,-2.3078,-2.3078,-2.3078,-2.3078,-2.3078,-2.3078,-2.3078,-2.3364,-2.3941,-2.4004,-2.4217,-2.477,-2.482,-2.482,-2.482,-2.482,-2.4745,-2.4556,-2.4544,-2.4456,-2.4255,-2.4255,-2.3914,-2.3224,-2.3598,-2.329,-2.2389,-2.1771,-2.1317,0.0,0.0,0.0,0.0,0.0,0.0,-2.2969,0.0,0.0,0.0,0.0,0.0,0.0,0.0,0.0,0.0,0.0,0.0,0.0,0.0,0.0,0.0,0.0,0.0,0.0,0.0,0.0,0.0,-2.7379,-2.6854,-2.6767,-2.59,-2.536,-2.5313,-2.5313,-2.5614,-2.6269,-2.6231,-2.6541,-2.7175,-2.7194,-2.7508,-2.807,-2.8108,-2.8431,-2.898,-2.8998,-2.9017,-2.8994,-2.8994,-2.8994,-2.9044,-2.9445,-2.9593,-2.9691,-3.0344,-3.0577,-3.0644,-3.1062,-3.1173,-3.119,-3.119,-3.119,-3.119,-3.119,-3.0393,-2.9406,-2.9406,-2.8528,-2.7625,-2.761,-2.7086,-2.651,-2.651,-2.5398,-2.435,-2.435,-2.3708,-2.3125,-2.3138,-2.3078,-2.3078,-2.3078,-2.3078,-2.3138,-2.3138,-2.3138,-2.3138,-2.3138,-2.3138,-2.3351,-2.3916,-2.3966,-2.4192,-2.4732,-2.477,-2.477,-2.477,-2.477,-2.4531,-2.4004,-2.3966,-2.3703,-2.3078,-2.3078,-2.3078,-2.3078,-2.4243,-2.4214,-2.3297,-2.3254,-2.2298,-2.0429,0.0,0.0,0.0,0.0,0.0,0.0,0.0,0.0,0.0,0.0,0.0,0.0,0.0,0.0,0.0,0.0,0.0,0.0,0.0,0.0,0.0,0.0,0.0,0.0,0.0,0.0,0.0,-2.7108,-2.6672,-2.5977,-2.5582,-2.5391,-2.5379,-2.5331,-2.5379,-2.5568,-2.6181,-2.6503,-2.6555,-2.7139,-2.7434,-2.7469,-2.8049,-2.8316,-2.8396,-2.9029,-2.9178,-2.8994,-2.8994,-2.8994,-2.9044,-2.9445,-2.9593,-2.9647,-3.0084,-3.04,-3.0629,-3.0728,-3.095,-3.119,-3.119,-3.119,-3.119,-3.119,-3.0658,-2.9935,-2.954,-2.8873,-2.814,-2.771,-2.7458,-2.7306,-2.7306,-2.6602,-2.5892,-2.5892,-2.5287,-2.4439,-2.3305,-2.3078,-2.3078,-2.3078,-2.3078,-2.3305,-2.3884,-2.3484,-2.3305,-2.3884,-2.3484,-2.3128,-2.3364,-2.3376,-2.3669,-2.4352,-2.4424,-2.4424,-2.4424,-2.4424,-2.412,-2.3376,-2.3376,-2.3301,-2.3078,-2.3078,-2.3078,-2.3078,-2.3452,-2.3405,-2.3145,-2.2208,-2.1173,0.0,0.0,0.0,0.0,0.0,0.0,0.0,-2.1737,0.0,0.0,0.0,0.0,0.0,0.0,0.0,0.0,0.0,0.0,0.0,0.0,0.0,0.0,0.0,0.0,0.0,-2.7226,-2.6992,-2.6504,-2.6465,-2.6209,-2.5622,-2.5531,-2.5477,-2.5441,-2.5387,-2.5348,-2.5348,-2.5813,-2.5992,-2.5891,-2.635,-2.6644,-2.6809,-2.7638,-2.8093,-2.8278,-2.9139,-2.9394,-2.9178,-2.9178,-2.9089,-2.903,-2.9253,-2.9359,-2.9399,-2.9776,-3.0034,-3.0159,-3.0161,-3.0486,-3.095,-3.0811,-3.0954,-3.119,-3.119,-3.0601,-2.9848,-2.9496,-2.8764,-2.8042,-2.766,-2.7625,-2.7625,-2.7625,-2.7034,-2.651,-2.651,-2.5906,-2.5119,-2.4208,-2.4034,-2.4034,-2.4034,-2.4034,-2.4221,-2.4681,-2.4394,-2.4105,-2.4292,-2.4163,-2.393,-2.3649,-2.359,-2.3767,-2.4234,-2.4002,-2.3826,-2.3826,-2.3826,-2.3603,-2.3138,-2.3078,-2.3078,-2.3078,-2.3078,-2.3078,-2.3078,-2.3078,-2.3078,-2.3078,-2.1655,-2.0676,0.0,0.0,0.0,0.0,0.0,0.0,-2.0482,-2.054,-2.0801,0.0,0.0,0.0,0.0,0.0,0.0,0.0,0.0,0.0,0.0,0.0,0.0,0.0,0.0,0.0,-2.5684,-2.5703,-2.5703,-2.5703,-2.5703,-2.5662,-2.5607,-2.5603,-2.5567,-2.5503,-2.5453,-2.5401,-2.5413,-2.5346,-2.5322,-2.5303,-2.5313,-2.5597,-2.613,-2.7001,-2.7723,-2.8353,-2.9221,-2.9532,-2.9434,-2.9412,-2.9246,-2.8994,-2.8994,-2.8994,-2.9044,-2.9399,-2.9575,-2.9601,-2.9548,-2.9953,-3.042,-3.0125,-3.0451,-3.0954,-3.0954,-3.0212,-2.9355,-2.93,-2.8543,-2.766,-2.7625,-2.7625,-2.7625,-2.7625,-2.71,-2.6616,-2.6616,-2.6122,-2.5673,-2.5673,-2.5508,-2.5398,-2.5398,-2.5398,-2.5453,-2.5508,-2.5453,-2.5175,-2.4624,-2.5063,-2.5119,-2.4509,-2.4408,-2.4452,-2.4509,-2.3872,-2.3412,-2.3365,-2.3365,-2.3305,-2.3138,-2.3078,-2.3078,-2.3078,-2.3078,-2.3078,-2.3078,-2.3078,-2.3078,-2.3078,-2.1479,-2.0719,0.0,0.0,0.0,0.0,0.0,0.0,-2.0414,-2.0475,-2.0573,0.0,0.0,0.0,0.0,0.0,0.0,0.0,0.0,0.0,0.0,0.0,0.0,0.0,0.0,0.0,-2.5625,-2.5703,-2.5703,-2.5703,-2.5703,-2.5683,-2.5683,-2.5633,-2.5598,-2.5573,-2.5526,-2.5473,-2.5488,-2.5477,-2.5434,-2.5387,-2.5376,-2.5415,-2.5512,-2.6376,-2.7101,-2.7718,-2.8589,-2.9241,-2.9644,-2.9474,-2.9246,-2.8994,-2.8994,-2.8994,-2.9012,-2.9088,-2.933,-2.9584,-2.9589,-2.9651,-2.9713,-2.9627,-2.9518,-2.9414,-2.9414,-2.9349,-2.9144,-2.8808,-2.8511,-2.8222,-2.771,-2.7625,-2.7625,-2.7625,-2.7509,-2.7408,-2.7408,-2.724,-2.7188,-2.7188,-2.6215,-2.5398,-2.5398,-2.5398,-2.5618,-2.6176,-2.5783,-2.5563,-2.6014,-2.5673,-2.5342,-2.5175,-2.5175,-2.5453,-2.6014,-2.5946,-2.555,-2.5007,-2.4951,-2.4381,-2.3125,-2.3078,-2.3078,-2.3078,-2.3078,-2.3078,-2.3078,-2.3078,-2.3078,-2.3078,-2.2125,-2.1628,0.0,0.0,0.0,-2.0294,0.0,0.0,0.0,0.0,0.0,0.0,0.0,0.0,0.0,0.0,0.0,0.0,0.0,0.0,0.0,0.0,0.0,0.0,0.0,0.0,-2.4355,-2.4805,-2.5234,-2.5664,-2.5703,-2.5703,-2.5703,-2.5662,-2.5658,-2.5658,-2.5573,-2.5551,-2.5551,-2.5526,-2.5473,-2.5453,-2.5453,-2.5434,-2.5425,-2.6271,-2.6805,-2.7176,-2.8413,-2.905,-2.9276,-2.9578,-2.9551,-2.9334,-2.9093,-2.8994,-2.8994,-2.8994,-2.9137,-2.925,-2.8892,-2.8977,-2.9179,-2.8767,-2.8815,-2.9011,-2.9011,-2.8858,-2.8543,-2.8009,-2.8133,-2.8263,-2.7668,-2.7783,-2.7944,-2.766,-2.7625,-2.7625,-2.7625,-2.7625,-2.7625,-2.7625,-2.7019,-2.6481,-2.6481,-2.6481,-2.6602,-2.6982,-2.6707,-2.6481,-2.651,-2.6496,-2.6375,-2.6014,-2.596,-2.6122,-2.6457,-2.6176,-2.5618,-2.4908,-2.4851,-2.4337,-2.3125,-2.3078,-2.3078,-2.3078,-2.3078,-2.3078,-2.3078,-2.3078,-2.2884,-2.2506,-2.1616,-2.1037,0.0,0.0,0.0,0.0,0.0,-2.0495,0.0,0.0,0.0,0.0,0.0,0.0,0.0,0.0,0.0,0.0,0.0,0.0,0.0,0.0,0.0,0.0,0.0,0.0,-2.3105,-2.373,-2.4434,-2.5156,-2.5352,-2.5449,-2.5449,-2.5605,-2.5703,-2.5703,-2.5658,-2.5629,-2.5629,-2.5564,-2.5539,-2.5526,-2.5526,-2.5503,-2.5527,-2.6178,-2.6563,-2.6788,-2.8078,-2.8722,-2.8925,-2.9513,-2.9756,-2.9712,-2.927,-2.9067,-2.9067,-2.9017,-2.8994,-2.8905,-2.8326,-2.8418,-2.8699,-2.8027,-2.8151,-2.8569,-2.8721,-2.8427,-2.7915,-2.7345,-2.771,-2.8056,-2.7287,-2.7566,-2.7965,-2.7534,-2.738,-2.746,-2.7595,-2.7625,-2.7625,-2.7625,-2.7625,-2.7625,-2.7625,-2.7625,-2.7625,-2.7625,-2.7625,-2.7408,-2.6774,-2.7255,-2.7357,-2.6774,-2.6721,-2.6721,-2.6721,-2.6162,-2.5453,-2.4567,-2.4509,-2.4105,-2.3125,-2.3078,-2.3078,-2.3078,-2.3078,-2.3078,-2.3078,-2.2944,-2.2567,-2.1877,-2.1175,-2.0398,0.0,0.0,0.0,0.0,-2.1358,0.0,0.0,0.0,0.0,0.0,0.0,0.0,0.0,0.0,0.0,0.0,0.0,0.0,0.0,0.0,0.0,0.0,0.0,0.0,0.0,-2.3223,-2.3281,-2.3398,-2.4102,-2.4551,-2.4551,-2.5273,-2.5703,-2.5703,-2.5683,-2.5683,-2.5683,-2.5683,-2.5658,-2.5595,-2.5595,-2.5558,-2.5489,-2.56,-2.6057,-2.6804,-2.6912,-2.7804,-2.9149,-2.9009,-2.9351,-2.9924,-2.9514,-2.9351,-2.933,-2.9089,-2.8994,-2.8994,-2.8905,-2.851,-2.7993,-2.7906,-2.7463,-2.708,-2.7757,-2.7872,-2.7774,-2.7405,-2.7688,-2.7753,-2.6184,-2.6214,-2.6627,-2.6702,-2.6692,-2.6856,-2.744,-2.7625,-2.7625,-2.7625,-2.7625,-2.7625,-2.7625,-2.7625,-2.7625,-2.7625,-2.7625,-2.7575,-2.7509,-2.7575,-2.7575,-2.7458,-2.7473,-2.7473,-2.7473,-2.7408,-2.6759,-2.5342,-2.5287,-2.461,-2.3125,-2.3078,-2.3078,-2.3078,-2.3078,-2.3078,-2.3078,-2.2384,-2.2002,-2.1877,-2.1815,-2.1302,0.0,0.0,0.0,0.0,0.0,0.0,-2.0485,0.0,-2.0294,0.0,0.0,0.0,0.0,0.0,0.0,0.0,0.0,0.0,0.0,0.0,0.0,0.0,0.0,0.0,0.0,0.0,0.0,0.0,-2.3437,-2.3867,-2.4375,-2.4746,-2.5176,-2.5684,-2.5703,-2.5703,-2.5703,-2.5703,-2.5683,-2.566,-2.566,-2.5637,-2.5607,-2.559,-2.5749,-2.6135,-2.6571,-2.7147,-2.7782,-2.8164,-2.8779,-2.9449,-2.9159,-2.9194,-2.9392,-2.9267,-2.9134,-2.897,-2.8749,-2.8464,-2.8129,-2.7707,-2.7178,-2.6759,-2.7063,-2.7165,-2.7112,-2.7005,-2.7217,-2.7277,-2.6204,-2.62,-2.6394,-2.6086,-2.6019,-2.6093,-2.6378,-2.6737,-2.7006,-2.7006,-2.7305,-2.7625,-2.7625,-2.7625,-2.7625,-2.7625,-2.7625,-2.7625,-2.7625,-2.7625,-2.7625,-2.7625,-2.7625,-2.7625,-2.7625,-2.7625,-2.6967,-2.5508,-2.4553,-2.3754,-2.3138,-2.3078,-2.3078,-2.3078,-2.3078,-2.3078,-2.3078,-2.2322,-2.1628,-2.1101,-2.0655,-1.9944,-2.1216,0.0,0.0,0.0,0.0,0.0,0.0,0.0,0.0,0.0,0.0,0.0,0.0,0.0,0.0,0.0,0.0,0.0,0.0,0.0,0.0,0.0,0.0,0.0,0.0,0.0,0.0,0.0,0.0,-2.3047,-2.3672,-2.4141,-2.4687,-2.5312,-2.5586,-2.5703,-2.5703,-2.5703,-2.5703,-2.5703,-2.5703,-2.5703,-2.5703,-2.5658,-2.5633,-2.567,-2.6233,-2.6587,-2.6806,-2.7389,-2.8096,-2.8799,-2.8861,-2.8976,-2.9137,-2.9339,-2.9267,-2.9067,-2.8707,-2.8471,-2.8272,-2.7542,-2.7083,-2.6841,-2.6725,-2.6691,-2.6657,-2.6539,-2.6716,-2.6842,-2.6124,-2.6009,-2.6096,-2.5846,-2.5561,-2.5437,-2.5741,-2.6219,-2.6587,-2.6587,-2.7126,-2.7625,-2.7625,-2.7625,-2.7625,-2.7625,-2.7625,-2.7625,-2.7625,-2.7625,-2.7625,-2.7625,-2.7625,-2.7625,-2.7625,-2.7625,-2.6967,-2.5508,-2.3917,-2.3078,-2.3078,-2.3078,-2.3078,-2.3078,-2.3078,-2.3078,-2.3078,-2.2063,-2.1239,-2.059,-1.9694,-1.8844,0.0,0.0,0.0,-2.1677,0.0,0.0,0.0,0.0,-2.1235,0.0,0.0,0.0,0.0,0.0,0.0,0.0,0.0,0.0,0.0,0.0,0.0,0.0,0.0,0.0,0.0,0.0,0.0,0.0,-2.1465,0.0,-2.1973,-2.3516,-2.4414,-2.4434,-2.5254,-2.5703,-2.5703,-2.5703,-2.5703,-2.5703,-2.5703,-2.5703,-2.5703,-2.5703,-2.5703,-2.5683,-2.565,-2.6122,-2.6893,-2.6786,-2.7249,-2.8103,-2.8799,-2.8815,-2.8495,-2.9156,-2.9392,-2.9351,-2.9067,-2.8725,-2.8272,-2.7542,-2.7303,-2.721,-2.6808,-2.6691,-2.6624,-2.6156,-2.6349,-2.6504,-2.5481,-2.523,-2.5384,-2.6022,-2.5404,-2.4957,-2.6104,-2.6471,-2.6587,-2.6587,-2.7126,-2.7625,-2.7625,-2.7625,-2.7625,-2.7625,-2.7625,-2.7625,-2.7625,-2.7625,-2.7625,-2.7625,-2.7625,-2.7625,-2.7625,-2.7625,-2.6967,-2.5508,-2.3917,-2.3078,-2.3078,-2.3078,-2.3078,-2.3078,-2.3078,-2.3078,-2.3078,-2.1479,-2.0655,-2.059,-1.9694,-1.8844,0.0,0.0,-2.3321,-2.187,0.0,0.0,0.0,0.0,0.0,0.0,0.0,0.0,0.0,0.0,0.0,0.0,0.0,0.0,0.0,0.0,0.0,0.0,0.0,0.0,0.0,0.0,0.0,0.0,-2.0547,0.0,0.0,-2.2988,-2.3848,-2.4375,-2.5254,-2.5703,-2.5703,-2.5703,-2.5703,-2.5703,-2.5703,-2.5703,-2.5703,-2.5703,-2.5703,-2.5703,-2.5682,-2.5811,-2.6025,-2.5936,-2.6385,-2.7163,-2.7364,-2.7943,-2.8738,-2.9359,-2.9395,-2.9134,-2.904,-2.8749,-2.835,-2.8112,-2.7689,-2.7255,-2.7147,-2.6906,-2.6657,-2.6505,-2.6367,-2.6139,-2.5815,-2.5449,-2.5246,-2.5486,-2.5274,-2.5096,-2.5535,-2.5968,-2.6352,-2.6458,-2.7009,-2.7524,-2.7585,-2.7625,-2.7625,-2.7625,-2.7625,-2.7625,-2.7625,-2.7625,-2.7625,-2.7625,-2.7625,-2.7408,-2.693,-2.6,-2.5217,-2.4681,-2.3708,-2.3078,-2.3078,-2.3078,-2.3078,-2.3078,-2.3078,-2.3078,-2.3078,-2.1416,-2.059,-2.059,-1.911,-1.8269,-2.3331,-2.3667,0.0,-2.2312,-2.237,0.0,-2.1043,0.0,0.0,0.0,0.0,0.0,0.0,0.0,0.0,0.0,0.0,0.0,0.0,0.0,0.0,0.0,0.0,0.0,0.0,0.0,-2.0018,-1.9785,-2.0,0.0,0.0,0.0,-2.3125,-2.3945,-2.4805,-2.5391,-2.5703,-2.5703,-2.5703,-2.5703,-2.5703,-2.5703,-2.5703,-2.5703,-2.5703,-2.5703,-2.5662,-2.5636,-2.5598,-2.5489,-2.5764,-2.6262,-2.6516,-2.7309,-2.8422,-2.9025,-2.9136,-2.8994,-2.8994,-2.8839,-2.859,-2.8446,-2.8002,-2.7487,-2.7348,-2.7019,-2.6691,-2.6691,-2.647,-2.6262,-2.6262,-2.5872,-2.5524,-2.5709,-2.5449,-2.5259,-2.5449,-2.5876,-2.6252,-2.6318,-2.6873,-2.7425,-2.7779,-2.7677,-2.7538,-2.758,-2.7625,-2.7625,-2.7625,-2.7625,-2.7509,-2.7255,-2.7203,-2.693,-2.6176,-2.5007,-2.4292,-2.4292,-2.3531,-2.3078,-2.3078,-2.3078,-2.3078,-2.3078,-2.3078,-2.3078,-2.3078,-2.1741,-2.091,-2.059,-1.911,-1.8269]},{"header":{"parameterUnit":"m.s-1","parameterCategory":1,"la1":30.6,"la2":29.2853,"lo1":-89.7004,"lo2":-87.6739,"dy":0.0162,"dx":0.0183,"nx":112,"ny":82,"refTime":"2025-05-19T06:00:00:Z","depth":0,"parameterNumber":3,"parameterNumberName":"V-component_of_WINDS"},"data":[0.0,0.0,0.0,0.0,0.0,0.0,0.0,0.0,0.0,0.0,0.0,0.0,0.0,0.0,0.0,0.0,0.0,0.0,0.0,0.0,0.0,0.0,0.0,0.0,0.0,0.0,0.0,0.0,0.0,0.0,0.0,0.0,0.0,0.0,0.0,0.0,0.0,0.0,0.0,0.0,0.0,0.0,0.0,0.0,0.0,0.0,0.0,0.0,0.0,0.0,0.0,0.0,0.0,0.0,0.0,0.0,0.0,0.0,0.0,0.0,0.0,0.0,0.0,0.0,0.0,0.0,0.0,0.0,0.0,0.0,0.0,0.0,0.0,0.0,0.0,0.0,0.0,0.0,0.0,0.0,0.0,0.0,0.0,0.0,0.0,0.0,0.0,0.0,0.0,0.0,0.0,-3.0548,-3.3677,-3.5622,-3.5622,-3.4827,-3.2887,-2.954,0.0,0.0,0.0,0.0,0.0,0.0,0.0,0.0,0.0,0.0,0.0,0.0,0.0,0.0,0.0,0.0,0.0,0.0,0.0,0.0,0.0,0.0,0.0,0.0,0.0,0.0,0.0,0.0,0.0,0.0,0.0,0.0,0.0,0.0,0.0,0.0,0.0,0.0,0.0,0.0,0.0,0.0,0.0,0.0,0.0,0.0,0.0,0.0,0.0,0.0,0.0,0.0,0.0,0.0,0.0,0.0,0.0,0.0,0.0,0.0,0.0,0.0,0.0,0.0,0.0,0.0,0.0,0.0,0.0,0.0,0.0,0.0,0.0,0.0,0.0,0.0,0.0,0.0,0.0,0.0,0.0,0.0,0.0,0.0,0.0,0.0,0.0,0.0,0.0,0.0,0.0,0.0,0.0,0.0,0.0,0.0,0.0,0.0,0.0,0.0,0.0,0.0,0.0,0.0,-2.796,-3.3271,-3.4895,-3.5622,-3.5622,-3.437,-3.2297,-2.927,0.0,0.0,0.0,0.0,0.0,0.0,0.0,0.0,0.0,0.0,0.0,0.0,0.0,0.0,0.0,0.0,0.0,0.0,0.0,0.0,0.0,0.0,0.0,0.0,0.0,0.0,0.0,0.0,0.0,0.0,0.0,0.0,0.0,0.0,0.0,0.0,0.0,0.0,0.0,0.0,0.0,0.0,0.0,0.0,0.0,0.0,0.0,0.0,0.0,0.0,0.0,0.0,0.0,0.0,0.0,0.0,0.0,0.0,0.0,0.0,0.0,0.0,0.0,0.0,0.0,0.0,0.0,0.0,0.0,0.0,0.0,0.0,0.0,0.0,0.0,0.0,0.0,0.0,0.0,0.0,0.0,0.0,0.0,0.0,0.0,0.0,0.0,0.0,0.0,0.0,0.0,0.0,0.0,0.0,0.0,0.0,0.0,0.0,0.0,0.0,0.0,0.0,0.0,-2.7266,-2.9397,-3.4556,-3.5419,-3.5622,-3.5622,-3.4269,-3.2201,-2.9382,-2.7061,0.0,0.0,0.0,0.0,0.0,0.0,0.0,0.0,0.0,0.0,0.0,0.0,0.0,0.0,0.0,0.0,0.0,0.0,0.0,0.0,0.0,0.0,0.0,0.0,0.0,0.0,0.0,0.0,0.0,0.0,0.0,0.0,0.0,0.0,0.0,0.0,0.0,0.0,0.0,0.0,0.0,0.0,0.0,0.0,0.0,0.0,0.0,0.0,0.0,0.0,0.0,0.0,0.0,0.0,0.0,0.0,0.0,0.0,0.0,0.0,0.0,0.0,0.0,0.0,0.0,0.0,0.0,0.0,0.0,0.0,0.0,0.0,0.0,0.0,0.0,0.0,0.0,0.0,0.0,0.0,0.0,0.0,0.0,0.0,0.0,0.0,0.0,0.0,0.0,0.0,0.0,0.0,0.0,0.0,0.0,0.0,0.0,0.0,0.0,0.0,0.0,0.0,-2.9719,-3.1461,-3.5216,-3.5622,-3.5622,-3.5622,-3.3931,-3.189,-2.9541,-2.6486,0.0,0.0,0.0,0.0,0.0,0.0,0.0,0.0,0.0,0.0,0.0,0.0,0.0,0.0,0.0,0.0,0.0,0.0,0.0,0.0,0.0,0.0,0.0,0.0,0.0,0.0,0.0,0.0,0.0,0.0,0.0,0.0,0.0,0.0,0.0,0.0,0.0,0.0,0.0,0.0,0.0,0.0,0.0,0.0,0.0,0.0,0.0,0.0,0.0,0.0,0.0,0.0,0.0,0.0,0.0,0.0,0.0,0.0,0.0,0.0,0.0,0.0,0.0,0.0,0.0,0.0,0.0,0.0,0.0,0.0,0.0,0.0,0.0,0.0,0.0,0.0,0.0,0.0,0.0,0.0,0.0,0.0,0.0,0.0,0.0,0.0,0.0,0.0,0.0,0.0,0.0,0.0,0.0,0.0,0.0,0.0,0.0,0.0,0.0,0.0,0.0,0.0,-3.0531,-3.3744,-3.5436,-3.5622,-3.5622,-3.5622,-3.3,-3.0785,-2.9455,-2.5471,0.0,0.0,0.0,0.0,0.0,0.0,0.0,0.0,0.0,0.0,0.0,0.0,0.0,0.0,0.0,0.0,0.0,0.0,0.0,0.0,0.0,0.0,0.0,0.0,0.0,0.0,0.0,0.0,0.0,0.0,0.0,0.0,0.0,0.0,0.0,0.0,0.0,0.0,0.0,0.0,0.0,0.0,0.0,0.0,0.0,0.0,0.0,0.0,0.0,0.0,0.0,0.0,0.0,0.0,0.0,0.0,0.0,0.0,0.0,0.0,0.0,0.0,0.0,0.0,0.0,0.0,0.0,0.0,0.0,0.0,0.0,0.0,0.0,0.0,0.0,0.0,0.0,0.0,0.0,0.0,0.0,0.0,0.0,0.0,0.0,0.0,0.0,0.0,0.0,0.0,0.0,0.0,0.0,0.0,0.0,0.0,0.0,0.0,0.0,0.0,0.0,0.0,-2.9414,-3.2442,0.0,-3.5622,-3.5622,-3.5622,-3.3744,-3.1543,-2.9134,0.0,0.0,0.0,0.0,0.0,0.0,0.0,0.0,0.0,0.0,0.0,0.0,0.0,0.0,0.0,0.0,0.0,0.0,0.0,0.0,0.0,0.0,0.0,0.0,0.0,0.0,0.0,0.0,0.0,0.0,0.0,0.0,0.0,0.0,0.0,0.0,0.0,0.0,0.0,0.0,0.0,0.0,0.0,0.0,0.0,0.0,0.0,0.0,0.0,0.0,0.0,0.0,0.0,0.0,0.0,0.0,0.0,0.0,0.0,0.0,0.0,0.0,0.0,0.0,0.0,0.0,0.0,0.0,0.0,0.0,0.0,0.0,0.0,0.0,0.0,0.0,0.0,0.0,0.0,0.0,0.0,0.0,0.0,0.0,0.0,0.0,0.0,0.0,0.0,0.0,0.0,0.0,0.0,0.0,0.0,0.0,0.0,0.0,0.0,0.0,0.0,0.0,-2.6368,-2.9296,-3.2307,0.0,-3.5622,-3.552,-3.5284,-3.3566,-3.1305,-2.8508,0.0,0.0,0.0,0.0,0.0,0.0,0.0,0.0,0.0,0.0,0.0,0.0,0.0,0.0,0.0,0.0,0.0,0.0,0.0,0.0,0.0,0.0,0.0,0.0,0.0,0.0,0.0,0.0,0.0,0.0,0.0,0.0,0.0,0.0,0.0,0.0,0.0,0.0,0.0,0.0,0.0,0.0,0.0,0.0,0.0,0.0,0.0,0.0,0.0,0.0,0.0,0.0,0.0,0.0,0.0,0.0,0.0,0.0,0.0,0.0,0.0,0.0,0.0,0.0,0.0,0.0,0.0,0.0,0.0,0.0,0.0,0.0,0.0,0.0,0.0,0.0,0.0,0.0,0.0,0.0,0.0,0.0,0.0,0.0,0.0,0.0,0.0,0.0,0.0,0.0,0.0,0.0,0.0,0.0,0.0,0.0,0.0,0.0,0.0,0.0,0.0,0.0,-2.6588,-3.0615,-3.3981,-3.5453,-3.5622,-3.5318,-3.4556,-3.2145,-2.9745,0.0,0.0,0.0,0.0,0.0,0.0,0.0,0.0,0.0,0.0,0.0,0.0,0.0,0.0,0.0,0.0,0.0,0.0,0.0,0.0,0.0,0.0,0.0,0.0,0.0,0.0,0.0,0.0,0.0,0.0,0.0,0.0,0.0,0.0,0.0,0.0,0.0,0.0,0.0,0.0,0.0,0.0,0.0,0.0,0.0,0.0,0.0,0.0,0.0,0.0,0.0,0.0,0.0,0.0,0.0,0.0,0.0,0.0,0.0,0.0,0.0,0.0,0.0,0.0,0.0,0.0,0.0,0.0,0.0,0.0,0.0,0.0,0.0,0.0,0.0,0.0,0.0,0.0,0.0,0.0,0.0,0.0,0.0,0.0,0.0,0.0,0.0,0.0,0.0,0.0,0.0,0.0,0.0,0.0,0.0,0.0,0.0,0.0,0.0,0.0,0.0,0.0,0.0,-2.6127,-3.0743,-3.4202,-3.4769,-3.5617,-3.583,-3.5057,-3.3279,-3.0767,-2.7388,0.0,0.0,0.0,0.0,0.0,0.0,0.0,0.0,0.0,0.0,0.0,0.0,0.0,0.0,0.0,0.0,0.0,0.0,0.0,0.0,0.0,0.0,0.0,0.0,0.0,0.0,0.0,0.0,0.0,0.0,0.0,0.0,0.0,0.0,0.0,0.0,0.0,0.0,0.0,0.0,0.0,0.0,0.0,0.0,0.0,0.0,0.0,0.0,0.0,0.0,0.0,0.0,0.0,0.0,0.0,0.0,0.0,0.0,0.0,0.0,0.0,0.0,0.0,0.0,0.0,0.0,0.0,0.0,0.0,0.0,0.0,0.0,0.0,0.0,0.0,0.0,0.0,0.0,0.0,0.0,0.0,0.0,0.0,0.0,0.0,0.0,0.0,0.0,0.0,0.0,0.0,0.0,0.0,0.0,0.0,0.0,0.0,0.0,0.0,0.0,0.0,0.0,-2.5937,-3.0369,-3.3824,-3.4727,-3.5353,-3.5549,-3.5077,-3.3475,-3.0935,-2.7269,0.0,0.0,0.0,0.0,0.0,0.0,0.0,0.0,0.0,0.0,0.0,0.0,0.0,0.0,0.0,0.0,0.0,0.0,0.0,0.0,0.0,0.0,0.0,0.0,0.0,0.0,0.0,0.0,0.0,0.0,0.0,0.0,0.0,0.0,0.0,0.0,0.0,0.0,0.0,0.0,0.0,0.0,0.0,0.0,0.0,0.0,0.0,0.0,0.0,0.0,0.0,0.0,0.0,0.0,0.0,0.0,0.0,0.0,0.0,0.0,0.0,0.0,0.0,0.0,0.0,0.0,0.0,0.0,0.0,0.0,0.0,0.0,0.0,0.0,0.0,0.0,0.0,0.0,0.0,0.0,0.0,0.0,0.0,0.0,0.0,0.0,0.0,0.0,0.0,0.0,0.0,0.0,0.0,0.0,0.0,0.0,0.0,0.0,0.0,0.0,0.0,0.0,-2.5883,-2.9793,-3.3143,-3.494,-3.4935,-3.4765,-3.4765,-3.3086,-3.0664,-2.7468,0.0,0.0,0.0,0.0,0.0,0.0,0.0,0.0,0.0,0.0,0.0,0.0,0.0,0.0,0.0,0.0,0.0,0.0,0.0,0.0,0.0,0.0,0.0,0.0,0.0,0.0,0.0,0.0,0.0,0.0,0.0,0.0,0.0,0.0,0.0,0.0,0.0,0.0,0.0,0.0,0.0,0.0,0.0,0.0,0.0,0.0,0.0,0.0,0.0,0.0,0.0,0.0,0.0,0.0,0.0,0.0,0.0,0.0,0.0,0.0,-1.9821,0.0,0.0,0.0,0.0,0.0,0.0,0.0,0.0,0.0,0.0,0.0,0.0,0.0,0.0,0.0,0.0,0.0,0.0,0.0,0.0,0.0,0.0,0.0,0.0,0.0,0.0,0.0,0.0,0.0,0.0,0.0,0.0,0.0,0.0,0.0,0.0,0.0,0.0,0.0,0.0,0.0,-2.5821,-3.0091,-3.3269,-3.39,-3.4795,-3.5065,-3.4455,-3.344,-3.1635,-2.8785,-2.7028,0.0,0.0,0.0,0.0,0.0,0.0,0.0,0.0,0.0,0.0,0.0,0.0,0.0,0.0,0.0,0.0,0.0,0.0,0.0,0.0,0.0,0.0,0.0,0.0,0.0,0.0,0.0,0.0,0.0,0.0,0.0,0.0,0.0,0.0,0.0,0.0,0.0,0.0,0.0,0.0,0.0,0.0,0.0,0.0,0.0,0.0,0.0,0.0,0.0,0.0,0.0,0.0,0.0,0.0,0.0,0.0,0.0,0.0,0.0,0.0,-2.1456,0.0,0.0,0.0,0.0,0.0,0.0,0.0,0.0,0.0,0.0,0.0,0.0,0.0,0.0,0.0,0.0,0.0,0.0,0.0,0.0,0.0,0.0,0.0,0.0,0.0,0.0,0.0,0.0,0.0,0.0,0.0,0.0,0.0,0.0,0.0,0.0,0.0,0.0,0.0,0.0,-2.6303,-2.9898,-3.2759,-3.3859,-3.4406,-3.4684,-3.4636,-3.3546,-3.1919,-2.9709,-2.8081,0.0,0.0,0.0,0.0,0.0,0.0,0.0,0.0,0.0,0.0,0.0,0.0,0.0,0.0,0.0,0.0,0.0,0.0,0.0,0.0,0.0,0.0,0.0,0.0,0.0,0.0,0.0,0.0,0.0,0.0,0.0,0.0,0.0,0.0,0.0,0.0,0.0,0.0,0.0,0.0,0.0,0.0,0.0,0.0,0.0,0.0,0.0,0.0,0.0,0.0,0.0,0.0,0.0,-2.5719,-2.6303,-2.6303,-2.6303,-2.6602,-2.6991,-2.4822,-2.4438,-2.5148,-2.3301,0.0,0.0,0.0,0.0,0.0,0.0,0.0,0.0,0.0,0.0,0.0,0.0,0.0,0.0,0.0,0.0,0.0,0.0,0.0,0.0,0.0,0.0,0.0,0.0,-2.9439,-2.8705,0.0,0.0,0.0,0.0,0.0,0.0,0.0,0.0,0.0,0.0,0.0,0.0,-2.7188,-2.9892,-3.2308,-3.4111,-3.398,-3.4082,-3.4715,-3.356,-3.2118,-3.0503,-2.9035,-2.7145,0.0,0.0,0.0,0.0,0.0,0.0,0.0,0.0,0.0,0.0,0.0,0.0,0.0,0.0,0.0,0.0,0.0,0.0,0.0,0.0,0.0,0.0,0.0,0.0,0.0,0.0,0.0,0.0,0.0,0.0,0.0,0.0,-0.9814,-1.2525,0.0,0.0,0.0,0.0,0.0,0.0,0.0,0.0,0.0,0.0,0.0,0.0,0.0,-2.3087,-2.5819,-2.6767,-2.744,-2.7949,-2.8697,-2.9056,-2.9056,-2.9056,-2.9101,-2.9175,-2.8816,0.0,-2.6112,-2.5627,0.0,0.0,0.0,0.0,0.0,0.0,0.0,0.0,0.0,0.0,0.0,0.0,0.0,0.0,0.0,0.0,0.0,0.0,0.0,0.0,0.0,0.0,-3.1825,-3.1219,-3.1072,-3.0962,0.0,-2.7809,-2.5311,-2.4999,-2.3878,0.0,0.0,0.0,0.0,0.0,0.0,0.0,-2.8544,-3.0894,-3.2808,-3.3789,-3.3835,-3.3844,-3.3954,-3.3752,-3.2963,-3.1329,-3.0393,-2.8796,-2.6392,-2.474,0.0,0.0,0.0,0.0,0.0,0.0,0.0,0.0,0.0,0.0,0.0,0.0,0.0,0.0,0.0,0.0,0.0,0.0,0.0,0.0,0.0,0.0,0.0,0.0,0.0,0.0,0.0,0.0,0.0,-0.874,-1.0146,-1.2353,-1.2397,-1.27,0.0,0.0,0.0,0.0,0.0,0.0,0.0,0.0,0.0,-2.3881,-2.507,-2.6258,-2.7521,-2.8664,-2.9139,-2.8993,-3.0119,-3.0687,-3.0687,-3.0687,-3.0687,-3.0672,-3.1101,-3.0508,-2.919,-2.8239,-2.7372,-2.6584,0.0,0.0,0.0,0.0,-2.551,-2.5658,-2.7241,-2.7626,0.0,-2.7061,0.0,0.0,0.0,0.0,0.0,0.0,0.0,0.0,0.0,0.0,-3.2632,-3.2724,-3.2742,-3.2742,-3.2742,-3.0999,-2.9053,0.0,-2.6851,-2.5805,-2.3988,0.0,0.0,0.0,0.0,-2.786,-2.9475,-3.1403,-3.2926,-3.3715,-3.3807,-3.3807,-3.3807,-3.3807,-3.3109,-3.1494,-3.1072,-2.9787,-2.7365,-2.6153,-2.4795,0.0,0.0,0.0,0.0,0.0,0.0,0.0,0.0,0.0,0.0,0.0,0.0,0.0,0.0,0.0,0.0,0.0,0.0,0.0,0.0,0.0,0.0,0.0,0.0,0.0,0.0,0.0,0.0,-0.9475,-1.0547,-1.2395,-1.2972,-1.3548,0.0,0.0,0.0,0.0,0.0,0.0,-2.0602,-2.263,-2.4436,-2.5791,-2.7384,-2.8351,-2.88,-2.9912,-3.0219,-2.9886,-3.0997,-3.1482,-3.1482,-3.1482,-3.1482,-3.1524,-3.2064,-3.2144,-3.1756,-3.0752,-3.0064,-2.9547,-2.9104,-2.8501,-2.7909,-2.8484,-2.845,-2.8401,-3.0207,-3.069,-3.0283,-2.9434,0.0,-2.9216,-2.7379,0.0,0.0,0.0,0.0,-3.0246,-3.1641,-3.2467,-3.3109,-3.3917,-3.3954,-3.3807,-3.3807,-3.333,-3.232,0.0,-2.958,-2.8558,-2.6153,0.0,0.0,0.0,0.0,-2.9219,-3.0632,-3.2045,-3.3146,-3.3733,-3.3807,-3.3807,-3.3807,-3.3605,-3.2889,-3.1476,-3.1201,-3.0191,-2.8191,-2.7328,-2.6153,-2.4538,0.0,0.0,0.0,0.0,0.0,0.0,0.0,0.0,0.0,0.0,0.0,0.0,0.0,0.0,0.0,0.0,0.0,0.0,0.0,0.0,0.0,0.0,0.0,0.0,0.0,0.0,0.0,0.0,0.0,-1.3279,-1.4018,0.0,0.0,0.0,0.0,-1.7829,-2.0431,-2.2359,-2.2877,-2.3601,-2.4846,-2.677,-2.695,-2.7988,-3.0168,-3.0257,-3.0659,-3.1364,-3.1452,-3.1482,-3.1482,-3.1482,-3.1482,-3.1482,-3.1539,-3.1936,-3.2586,-3.3097,-3.25,-3.1312,-3.189,-3.1613,-3.097,-3.1021,-3.1444,-3.2083,-3.2676,-3.2789,-3.2717,-3.272,-3.1216,-2.9535,-3.0308,-3.0025,0.0,0.0,-3.1219,-3.2614,-3.3458,-3.3715,-3.3935,-3.4734,-3.4376,-3.3807,-3.3807,-3.377,-3.3476,0.0,-3.1182,-3.0099,-2.9934,0.0,-2.9012,-2.9787,-3.065,-3.1513,-3.2375,-3.322,-3.3752,-3.3807,-3.3807,-3.3807,-3.3807,-3.3109,-3.2302,-3.1439,-3.0687,-2.9861,-2.8975,-2.8172,-2.6979,-2.5384,-2.4502,0.0,0.0,0.0,0.0,0.0,0.0,0.0,0.0,0.0,0.0,0.0,0.0,0.0,0.0,0.0,0.0,0.0,0.0,0.0,0.0,0.0,0.0,0.0,0.0,0.0,0.0,0.0,0.0,-1.4115,-1.5479,0.0,-1.7476,-1.9068,-2.0302,-2.0822,-2.2421,-2.3791,-2.4669,-2.5473,-2.6309,-2.7406,-2.7924,-2.8656,-2.9442,-3.0011,-3.045,-3.0718,-3.1219,-3.1482,-3.1482,-3.1482,-3.1482,-3.1524,-3.2007,-3.2382,-3.268,-3.3326,-3.3241,-3.2747,-3.2989,-3.2897,-3.2628,-3.2628,-3.278,-3.3042,-3.3189,-3.323,-3.3185,-3.3062,-3.2412,-3.1794,-3.221,-3.2137,-3.2115,-3.304,-3.3348,-3.3568,-3.4376,-3.4578,-3.4523,-3.4284,-3.4412,-3.4431,-3.3917,-3.3807,-3.3715,-3.344,-3.2504,-3.1586,-3.1054,-3.0723,-3.0467,-3.0228,-3.1329,-3.2284,-3.2577,-3.3311,-3.3807,-3.3807,-3.3807,-3.3587,-3.3073,-3.2761,-3.2045,-3.0705,-2.9879,-2.9072,-2.8264,-2.7457,-2.6502,-2.5421,-2.4746,-2.3413,0.0,0.0,0.0,0.0,0.0,0.0,0.0,0.0,0.0,0.0,0.0,0.0,0.0,0.0,0.0,0.0,0.0,0.0,0.0,0.0,0.0,0.0,0.0,0.0,0.0,0.0,-1.3466,-1.4742,-1.6613,-1.8098,-1.8859,-2.0211,-2.1373,-2.2071,-2.3484,-2.4661,-2.5351,-2.6263,-2.6907,-2.7271,-2.8117,-2.8684,-2.9002,-2.9889,-3.045,-3.0703,-3.1219,-3.1482,-3.1482,-3.1482,-3.1482,-3.1524,-3.2007,-3.2231,-3.2272,-3.2718,-3.3002,-3.3209,-3.3453,-3.3634,-3.3795,-3.3795,-3.396,-3.415,-3.415,-3.3981,-3.3719,-3.3562,-3.3166,-3.2803,-3.3066,-3.2959,-3.2969,-3.4183,-3.396,-3.3626,-3.4834,-3.4666,-3.4146,-3.4211,-3.4284,-3.4264,-3.389,-3.3807,-3.3807,-3.3807,-3.3366,-3.2834,-3.2302,-3.221,-3.2027,-3.1494,-3.232,-3.2999,-3.2999,-3.3476,-3.3807,-3.3807,-3.3807,-3.3476,-3.2687,-3.2357,-3.1623,-3.0283,-2.9457,-2.8778,-2.8227,-2.7438,-2.6631,-2.5805,-2.4948,-2.3969,-2.2868,0.0,0.0,0.0,0.0,0.0,0.0,0.0,0.0,0.0,0.0,0.0,0.0,0.0,0.0,0.0,0.0,0.0,0.0,0.0,0.0,0.0,0.0,0.0,-0.904,-1.1909,-1.4201,-1.507,-1.7471,-1.8893,-1.8676,-2.0675,-2.1849,-2.1418,-2.3618,-2.5016,-2.4933,-2.5955,-2.6465,-2.6452,-2.7229,-2.8051,-2.8939,-2.9827,-3.0644,-3.1409,-3.1467,-3.1467,-3.1467,-3.1482,-3.1482,-3.1482,-3.1482,-3.1482,-3.1482,-3.1482,-3.191,-3.2641,-3.3287,-3.3987,-3.4576,-3.4576,-3.5005,-3.5622,-3.5622,-3.5131,-3.4523,-3.4506,-3.3525,-3.2445,-3.2904,-3.2501,-3.2123,-3.3336,-3.3121,-3.3006,-3.4954,-3.4005,-3.2927,-3.4535,-3.4047,-3.3339,-3.368,-3.3762,-3.3788,-3.3762,-3.3762,-3.3807,-3.3807,-3.3807,-3.3807,-3.3807,-3.3807,0.0,-3.3807,-3.3807,-3.3807,-3.3807,-3.3807,-3.3476,-3.2687,-3.1861,-3.1054,-3.0246,-2.9439,-2.8957,-2.8957,-2.8191,-2.7383,-2.6633,-2.5262,-2.4708,-2.5049,0.0,0.0,0.0,0.0,0.0,0.0,0.0,0.0,0.0,0.0,0.0,0.0,0.0,0.0,0.0,0.0,0.0,0.0,0.0,0.0,0.0,-0.6207,-0.766,-0.9082,-1.1607,-1.381,-1.5087,-1.7482,-1.8988,-1.8893,-2.0751,-2.1975,-2.1849,-2.3811,-2.4707,-2.3963,-2.5569,-2.6176,-2.5441,-2.6346,-2.7229,-2.8051,-2.8298,-2.8812,-2.969,-3.0329,-3.0644,-3.0644,-3.1219,-3.1482,-3.1482,-3.1482,-3.1482,-3.1482,-3.1482,-3.164,-3.1853,-3.2571,-3.3287,-3.3937,-3.4431,-3.5005,-3.5622,-3.5622,-3.5487,-3.5216,-3.4675,-3.4218,-3.3905,-3.3813,-3.3658,-3.3737,-3.4939,-3.4341,-3.3562,-3.4692,-3.4178,-3.3328,-3.3219,-3.3656,-3.3857,-3.3028,-3.3343,-3.3606,-3.2965,-3.3372,-3.3807,-3.3807,-3.3807,-3.3807,-3.3807,-3.3807,0.0,-3.3807,-3.3807,-3.3807,-3.3807,-3.3807,-3.3476,-3.2687,-3.1861,-3.1054,-3.0246,-2.8906,-2.8136,-2.8136,-2.7365,-2.6964,-2.7023,-2.6123,-2.5829,0.0,0.0,0.0,0.0,0.0,0.0,0.0,0.0,0.0,0.0,0.0,0.0,0.0,0.0,0.0,0.0,0.0,0.0,0.0,0.0,0.0,0.0,-0.6342,-0.7668,-0.9473,-1.1793,-1.3808,-1.5294,-1.7523,-1.9036,-1.9036,-2.044,-2.1451,-2.1451,-2.285,-2.3514,-2.2925,-2.4767,-2.5594,-2.5016,-2.6264,-2.7229,-2.767,-2.8051,-2.8492,-2.9002,-2.9889,-3.0329,-3.0329,-3.1146,-3.1482,0.0,-3.1482,-3.1482,-3.1482,-3.1482,-3.1482,0.0,0.0,0.0,0.0,0.0,-3.4847,-3.5207,-3.5515,-3.5622,-3.5554,-3.5115,-3.4539,-3.4058,-3.4199,-3.3842,-3.363,-3.4926,-3.4449,-3.3723,-3.4699,-3.4067,-3.3104,-3.3,-3.3135,-3.3166,-3.2623,-3.2903,-3.3105,-3.2616,-3.2903,0.0,-3.3522,-3.368,-3.3807,-3.3807,-3.3807,-3.3807,-3.3807,-3.3807,-3.3807,-3.3807,-3.3807,-3.3476,-3.2687,-3.2173,0.0,0.0,0.0,-2.8503,-2.7824,-2.7438,0.0,0.0,0.0,0.0,0.0,0.0,0.0,0.0,-2.8082,-2.8005,0.0,0.0,0.0,0.0,0.0,0.0,0.0,0.0,0.0,0.0,0.0,0.0,0.0,0.0,0.0,0.0,-0.6356,-0.7602,-1.0031,-1.2035,-1.3776,-1.5335,-1.7496,-1.8798,-1.8798,-1.9923,-2.0566,-2.0566,-2.1441,-2.1952,-2.1886,0.0,0.0,0.0,0.0,-2.7471,-2.7537,-2.8298,-2.8748,-2.8748,-2.9566,-3.0011,-3.0011,-3.0837,-3.1278,-3.1351,-3.1351,-3.1409,-3.1482,-3.1482,-3.1482,-3.1482,-3.1482,-3.1951,-3.2734,-3.3937,-3.4431,-3.4576,-3.5161,0.0,0.0,-3.547,-3.4638,-3.3761,-3.432,-3.3575,-3.2797,-3.4117,-3.3914,-3.3583,-3.4782,-3.3676,-3.2378,-3.3246,-3.2615,-3.188,-3.2282,-3.2417,-3.2484,-3.2384,-3.2417,-3.2616,-3.2983,-3.339,-3.3707,-3.3807,-3.3762,-3.3734,-3.3788,-3.3807,-3.3807,-3.3807,0.0,0.0,-3.2816,-3.2669,-3.199,-3.0558,-3.0393,-2.9719,-2.8312,-2.8457,-2.8315,-2.7821,-2.9527,-3.0496,-3.0698,-3.2179,-3.2949,-3.2968,-2.989,-2.9313,0.0,0.0,0.0,0.0,0.0,0.0,0.0,0.0,0.0,0.0,0.0,0.0,0.0,0.0,0.0,-0.6197,-0.6647,-0.7695,-1.0172,-1.0883,-1.2008,-1.4139,-1.6281,-1.7666,-1.7666,-1.9432,-2.0566,-2.0566,-2.1441,-2.1669,-2.0934,-2.2713,-2.3818,-2.3818,-2.4909,-2.5918,-2.6714,-2.6905,-2.6973,-2.6973,0.0,0.0,-2.8247,-2.9066,-2.9889,-3.0524,-3.0524,-3.0896,-3.1482,-3.1482,-3.1482,-3.1482,-3.1482,-3.1951,-3.2641,-3.2895,-3.3339,-3.3836,-3.3937,-3.4333,-3.4783,-3.4783,-3.4961,-3.5098,-3.4641,-3.4286,0.0,-3.4404,-3.3525,-3.2838,-3.4262,-3.3032,-3.1625,-3.2383,-3.2173,-3.1733,-3.1487,-3.1986,-3.2282,-3.16,-3.2021,-3.2417,-3.2127,-3.2466,-3.2996,-3.3707,-3.3522,-3.3419,-3.3762,-3.3807,-3.3807,-3.3807,-3.3807,-3.3733,-3.3587,-3.2981,-3.2485,-3.2173,-3.1531,-3.112,-3.1024,-3.1258,-3.1465,-3.1546,-3.2081,-3.2385,-3.2429,-3.2737,-3.3256,-3.391,-3.2564,-3.2487,0.0,0.0,0.0,0.0,0.0,0.0,0.0,0.0,0.0,0.0,0.0,0.0067,-0.2651,0.0,-0.4762,-0.6404,-0.6888,-0.7831,-1.025,-1.0611,-1.1477,-1.3822,-1.5553,-1.6519,-1.6519,-1.8461,-1.9766,-1.9766,-2.076,-2.1078,-2.0644,-2.1973,-2.2999,-2.3514,-2.4492,-2.5441,-2.6465,-2.6533,-2.6533,-2.6533,-2.7284,-2.767,-2.7736,-2.862,-2.9254,-2.969,-3.0133,-3.0524,-3.0896,-3.1351,-3.1482,-3.1482,-3.1482,-3.1739,-3.212,-3.2437,-3.2788,-3.3145,-3.3479,-3.4037,-3.4526,-3.4164,-3.4268,-3.4438,-3.4066,-3.3677,-3.3474,-3.3846,-3.3423,-3.3017,-3.3761,-3.2848,-3.1833,-3.2188,-3.1879,-3.1449,-3.1252,-3.1524,-3.1731,-3.1291,-3.1562,-3.1842,-3.1825,-3.1986,-3.2466,-3.3361,-3.3332,-3.3332,-3.3734,-3.3807,-3.3807,-3.3807,-3.3807,-3.3807,-3.3807,-3.3073,-3.2614,-3.2614,-3.1843,-3.1464,-3.1594,-3.1989,-3.2259,-3.2402,-3.3159,-3.3545,-3.3545,-3.3987,-3.443,-3.4834,-3.441,-3.443,0.0,0.0,0.0,0.0,0.0,0.0,0.0,0.0,0.3993,0.2884,0.1921,0.0369,-0.2836,-0.3866,-0.484,-0.6685,-0.7065,-0.7837,-1.0005,-1.0269,-1.1133,-1.347,-1.488,-1.5696,-1.5696,-1.7488,-1.8798,-1.8957,-1.9766,-2.0401,-2.0566,-2.1298,-2.2188,-2.3147,-2.3963,-2.4921,-2.5943,-2.6094,-2.6233,-2.6233,-2.7082,-2.7484,-2.7484,-2.8182,-2.862,-2.8812,-2.969,-3.0072,-3.0072,-3.0777,-3.1087,-3.1278,-3.1278,-3.1351,-3.1582,-3.2176,-3.2382,-3.2477,-3.3024,-3.3633,-3.4088,-3.3518,-3.3304,-3.3215,-3.3064,-3.2538,-3.2085,-3.2833,-3.29,-3.2892,-3.3296,-3.2747,-3.2104,-3.2297,-3.1732,-3.119,-3.119,-3.119,-3.119,-3.119,-3.119,-3.1312,-3.1716,-3.1789,-3.2127,-3.3075,-3.3214,-3.3332,-3.3734,-3.3807,-3.3807,-3.3807,-3.3807,-3.3807,-3.3807,-3.322,-3.2834,-3.2834,-3.221,-3.1887,-3.1925,-3.2371,-3.2617,-3.2675,-3.3796,-3.4375,-3.4375,-3.5114,-3.5493,-3.5493,-3.5493,-3.557,0.9173,0.846,0.7484,0.6733,0.6196,0.5789,0.0,0.0,0.2911,0.2986,0.0,-0.2817,-0.3495,-0.516,-0.6688,-0.7004,-0.7129,-0.7577,-0.889,-0.9061,-0.9923,-1.2242,-1.435,-1.5696,-1.5696,-1.6764,-1.7908,-1.8957,-1.9116,-1.9599,-2.0566,-2.0712,-2.1155,-2.2103,-2.2253,-2.285,-2.3806,-2.4707,-2.5158,-2.5158,-2.6151,-2.6658,-2.6658,-2.6714,-2.7162,-2.7855,-2.8748,-2.9129,-2.9129,-2.9254,-2.9766,-3.045,-3.045,-3.0896,-3.1539,-3.1582,-3.164,-3.164,-3.1682,-3.2216,-3.2826,-3.271,-3.2716,-3.2547,-3.1902,-3.1225,-3.0814,-3.1446,-3.1163,-3.1065,-3.2925,-3.2374,-3.1478,-3.2121,-3.1732,-3.119,-3.119,-3.119,-3.119,-3.119,-3.119,-3.1312,-3.1716,-3.1789,-3.2127,-3.3075,-3.3214,-3.3332,-3.3734,-3.3807,-3.3807,-3.3807,-3.3807,-3.3807,-3.3807,-3.3715,-3.3678,-3.3678,-3.3587,-3.3626,-3.3868,-3.3939,-3.412,-3.4411,-3.4808,-3.5005,-3.5005,-3.5345,-3.5493,-3.5493,-3.5493,-3.5892,0.937,0.8878,0.8089,0.0,0.6595,0.6229,0.5095,0.4266,0.3433,0.2454,0.084,-0.0859,-0.2285,-0.3879,-0.5212,0.0,-0.6694,-0.7492,-0.8715,-0.889,-0.9749,-1.2066,-1.3165,-1.4021,-1.4727,-1.5711,-1.6846,-1.7908,-1.8638,-1.9441,-2.0566,-2.0566,-2.1001,-2.1952,-2.2027,-2.2478,-2.3514,-2.4492,-2.4719,-2.4108,-2.5146,-2.5664,-2.5664,-2.5664,-2.6402,-2.7736,-2.8117,-2.8556,-2.9066,-2.9566,-2.995,-3.0329,-3.0837,-3.1219,-3.1482,-3.1482,-3.1482,-3.1482,-3.1482,-3.1951,-3.2524,-3.2037,-3.1939,-3.1839,-3.1086,-3.0398,-2.9913,-3.0154,-3.0032,-3.0082,-3.1264,-3.1166,-3.0824,-3.1483,-3.141,-3.119,-3.119,-3.119,-3.119,-3.119,-3.119,-3.1252,-3.1411,-3.1878,-3.2332,-3.2745,-3.3014,-3.3332,-3.3734,-3.3807,-3.3807,-3.3807,-3.3807,-3.3807,-3.3807,-3.3807,-3.3807,-3.3807,-3.3807,-3.3868,-3.3961,-3.4123,-3.4288,-3.4401,-3.4695,-3.4944,-3.5105,-3.5207,-3.5354,-3.5512,-3.5988,-3.6661,0.9298,0.0,0.0,0.6655,0.6318,0.5919,0.4252,0.3737,0.3268,0.1898,0.1099,0.0172,-0.149,-0.3087,-0.4425,-0.5222,-0.6313,-0.7401,-0.8277,-0.8715,-0.9666,-1.1638,-1.2072,-1.2766,-1.3997,-1.4817,-1.5703,-1.6764,-1.79,-1.9036,-2.0079,-2.0401,-2.0934,-2.1593,-2.1593,-2.1962,-2.2713,-2.3672,-2.3818,-2.3073,-2.412,-2.4707,-2.5004,-2.53,-2.6126,-2.7351,-2.7351,-2.7736,-2.8363,-2.9002,-2.938,-2.9628,-3.0524,-3.097,-3.1219,-3.1409,-3.1482,-3.1482,-3.1482,-3.1853,-3.2149,-3.1374,-3.1052,-3.0822,-3.0097,-2.9454,-2.895,-2.9088,-2.9134,-2.9271,-2.9892,-3.0038,-3.0208,-3.0797,-3.0958,-3.1015,-3.1151,-3.119,-3.119,-3.119,-3.119,-3.123,-3.1351,-3.1878,-3.235,-3.2484,-3.2777,-3.3196,-3.3734,-3.3807,-3.3807,-3.3807,-3.3807,-3.3807,-3.3807,-3.3807,-3.3807,-3.3807,-3.3807,-3.3807,-3.3807,-3.3986,-3.4074,-3.4074,-3.442,-3.4655,-3.4851,-3.5016,-3.5288,-3.5618,-3.6353,-3.7247,0.0,0.0,0.7735,0.5672,0.4839,0.4285,0.3163,0.2271,0.1704,0.1625,-0.0165,-0.1679,-0.1764,-0.3755,-0.5368,-0.5368,-0.6343,-0.7139,-0.7139,-0.8189,-0.9323,-1.0524,-1.1638,-1.2766,0.0,-1.4173,-1.4573,-1.5703,-1.6764,-1.7827,-1.8957,-2.0001,-2.0644,-2.0644,-2.0644,-2.0644,-2.0722,-2.1593,-2.2103,-2.2027,-2.3073,-2.4047,-2.5016,-2.6025,-2.6452,-2.6521,-2.6521,-2.6521,-2.6589,-2.6589,-2.7095,-2.7855,-2.8748,-2.9566,-3.045,-3.1219,-3.1482,-3.1482,-3.1482,-3.1524,-3.142,-3.0731,-3.0128,-2.9499,-2.8839,-2.8165,-2.776,-2.8367,-2.8511,-2.8654,-2.9271,-2.9406,-2.9585,-3.0166,-3.0351,-3.0477,-3.1055,-3.119,-3.119,-3.119,-3.119,-3.1312,-3.1716,-3.1789,-3.2004,-3.2417,-3.2517,-3.284,-3.3707,-3.3807,-3.3807,-3.3807,-3.3807,-3.3807,-3.3807,-3.3807,-3.3807,-3.3807,-3.3807,-3.3807,-3.3807,-3.3807,-3.3815,-3.3815,-3.4093,-3.4223,-3.4223,-3.4813,-3.5381,-3.5903,-3.6444,-3.7444,0.8777,0.0,0.8003,0.5337,0.4664,0.4167,0.2397,0.1825,0.138,0.065,-0.0082,-0.0578,-0.0587,-0.25,-0.4014,-0.4222,-0.5745,-0.7034,-0.7126,-0.8105,-0.9323,-1.0438,-1.1638,0.0,0.0,0.0,0.0,-1.5621,-1.6026,-1.7082,-1.8877,-1.9362,-1.9844,-2.0566,-2.0566,-2.0566,-2.0566,-2.1517,-2.1659,-2.1078,-2.2702,-2.3672,-2.4036,-2.5721,-2.6533,-2.6533,-2.6533,-2.6533,-2.6521,-2.7095,-2.7484,-2.7802,-2.8684,-2.9192,-2.9442,-2.9766,-3.0208,-3.0777,-3.1278,-3.1482,-3.1437,-3.127,-3.0447,-2.9549,-2.9325,-2.8457,-2.761,-2.786,-2.791,-2.8042,-2.8654,-2.8779,-2.9058,-3.0064,-3.0293,-3.0477,-3.1055,-3.119,-3.119,-3.119,-3.119,-3.1252,-3.1389,-3.1623,-3.1951,-3.2417,-3.2777,-3.3075,-3.3361,-3.3634,-3.3807,-3.3807,-3.3807,-3.3807,-3.3807,-3.3807,-3.3807,-3.3807,-3.3807,-3.3807,-3.3807,-3.3807,-3.3807,-3.3807,-3.3876,-3.4018,-3.42,-3.4986,-3.5637,-3.6216,-3.7486,-3.847,0.8826,0.8423,0.768,0.4822,0.4171,0.364,0.1508,0.1031,0.0872,0.0159,0.0,0.0,0.0,-0.1748,-0.3289,-0.3528,-0.5447,-0.6915,-0.7112,-0.8448,-0.9749,-1.0524,-1.1992,-1.3294,0.0,0.0,0.0,-1.5054,-1.5455,-1.6511,-1.831,-1.8798,-1.952,-2.0566,-2.0566,-2.0566,-2.0566,-2.1231,-2.1231,-2.0644,-2.2563,-2.3514,-2.3588,-2.5569,-2.6533,-2.6533,-2.6533,-2.6533,-2.6521,-2.704,-2.7297,-2.7351,-2.8182,-2.8556,-2.8556,-2.8876,-2.9566,-3.0389,-3.0896,-3.1278,-3.1437,-3.124,-3.0447,-2.9579,-2.9579,-2.8637,-2.767,-2.7874,-2.7754,-2.766,-2.8091,-2.8189,-2.8496,-2.9673,-2.9978,-3.0274,-3.1352,-3.1376,-3.1275,-3.1529,-3.1376,-3.119,-3.119,-3.1411,-3.1677,-3.1986,-3.24,-3.2777,-3.2921,-3.3332,-3.3578,-3.3578,-3.3707,-3.3807,-3.3807,-3.3807,-3.3807,-3.3807,-3.3807,-3.3807,-3.3807,-3.3807,-3.3807,-3.3807,-3.4082,-3.4318,-3.4488,-3.5557,-3.6355,-3.6914,-3.8308,-3.9195,0.9109,0.8313,0.6865,0.4055,0.3294,0.2672,0.0488,0.0,0.0,0.0,0.0,0.0,0.0,0.0,-0.321,-0.3529,-0.5358,-0.6803,-0.7099,-0.9139,-1.0611,0.0,0.0,0.0,0.0,0.0,0.0,-1.4088,0.0,-1.6108,-1.7261,-1.831,-1.9441,-2.0566,-2.0566,-2.0566,-2.0566,-2.0566,-2.0566,-2.0644,-2.2563,-2.3441,-2.3514,-2.5499,-2.6383,-2.6383,-2.6383,-2.6452,-2.6533,-2.6533,-2.6533,-2.6589,-2.7351,-2.767,-2.7736,-2.8556,-2.9442,-3.0208,-3.0208,-3.0777,-3.1377,-3.0776,-3.0133,-2.9624,-2.9624,-2.8712,-2.785,-2.8427,-2.8128,-2.767,-2.7625,-2.7625,-2.7894,-2.9134,-2.9438,-3.0004,-3.19,-3.1765,-3.1512,-3.2205,-3.1749,-3.1241,-3.1207,-3.119,-3.119,-3.119,-3.1528,-3.1933,-3.2417,-3.2872,-3.3154,-3.3154,-3.3522,-3.3762,-3.3762,-3.3807,-3.3807,-3.3807,-3.3807,-3.3825,-3.3862,-3.3862,-3.388,-3.3935,-3.4688,-3.5064,-3.5064,-3.6451,-3.7404,-3.794,-3.888,-3.961,0.8369,0.7324,0.615,0.392,0.272,0.1705,0.0325,0.0,0.0,0.0,0.0,0.0,0.0,0.0,0.0,-0.3511,-0.5384,0.0,-0.7099,-0.9139,0.0,-0.9405,0.0,-1.2766,-1.2766,-1.2766,0.0,0.0,-1.4328,-1.5311,-1.718,-1.7585,-1.863,-2.0566,-2.0566,-2.0566,-2.0566,-2.0566,-2.0566,-2.0644,-2.2563,-2.3147,-2.2478,-2.448,-2.537,-2.537,-2.537,-2.5804,-2.6533,-2.6533,-2.6533,-2.6521,-2.6714,-2.6782,-2.685,-2.704,-2.8051,-2.9317,-2.9317,-3.0269,-3.1437,-3.133,-3.0806,-3.0268,-3.0268,-2.9699,-2.9011,-2.8682,-2.8472,-2.8218,-2.7709,-2.7625,-2.7894,-2.9134,-2.9836,-3.0587,-3.2001,-3.2577,-3.2899,-3.3085,-3.251,-3.1833,-3.1275,-3.119,-3.119,-3.119,-3.1291,-3.1507,-3.1915,-3.2366,-3.2681,-3.2681,-3.3075,-3.3361,-3.3361,-3.3625,-3.3807,-3.3807,-3.3807,-3.4082,-3.4688,-3.4679,-3.5018,-3.5642,-3.5862,-3.5973,-3.5973,-3.6925,-3.7694,-3.8282,-3.9129,-3.9833,0.8145,0.6884,0.5412,0.3906,0.2594,0.1393,0.0241,0.0,0.0,0.0,0.0,0.0,-0.0398,0.0,0.0,0.0,0.0,0.0,-0.7004,-0.8657,-0.9579,0.0,-1.0438,0.0,-1.2237,-1.2328,-1.2766,0.0,-1.4088,-1.4817,-1.6519,-1.7009,-1.8069,-1.9844,-2.0323,-2.0566,-2.0566,-2.0566,-2.0566,-2.0644,-2.2113,-2.2553,-2.2027,-2.3599,-2.4337,-2.4337,0.0,-2.53,-2.5886,-2.6314,-2.6533,-2.6533,-2.6533,-2.6533,-2.6533,-2.6533,-2.7284,-2.8427,-2.8427,-2.9566,-3.1029,-3.1409,-3.1061,-3.0552,-3.0866,-3.0313,-2.9505,-2.9131,-2.8831,-2.8442,-2.7754,-2.7625,-2.7845,-2.8779,-2.975,-3.0833,-3.2097,-3.2917,-3.3406,-3.3406,-3.3068,-3.2544,-3.1799,-3.1664,-3.1562,-3.1241,-3.119,-3.1291,-3.1507,-3.1897,-3.2196,-3.2196,-3.2809,-3.3214,-3.3214,-3.3879,-3.4192,-3.3825,-3.4486,-3.4926,-3.499,-3.5385,-3.5807,-3.6285,-3.6652,-3.6817,-3.6817,-3.7745,-3.8447,-3.8943,-3.9526,-4.0062,0.7926,0.6484,0.4685,0.3639,0.2472,0.1327,0.0238,0.0,0.0,0.0,0.0,-0.0253,-0.0984,-0.2116,-0.3254,-0.4362,0.0,-0.6559,-0.6881,-0.8068,-0.886,-0.8715,-0.9666,-1.0778,-1.198,-1.2072,-1.2681,-1.3997,-1.4088,-1.4573,-1.5621,-1.6683,-1.7908,-1.9195,-2.0079,-2.0566,-2.0566,-2.0566,-2.0566,-2.0644,-2.1517,-2.1962,-2.1886,-2.285,-2.3294,-2.3368,-2.4337,0.0,-2.5075,-2.6094,-2.6533,-2.6533,-2.6533,-2.6533,-2.6533,-2.6533,-2.704,-2.767,-2.767,-2.8812,-3.0389,-3.1087,-3.1006,-3.0731,-3.124,-3.0612,-2.9669,-2.949,-2.9041,-2.8442,-2.7754,-2.7625,-2.776,-2.8383,-2.947,-3.0762,-3.2196,-3.3138,-3.366,-3.3558,-3.3558,-3.3271,-3.2425,-3.2313,-3.2036,-3.1309,-3.119,-3.119,-3.119,-3.1507,-3.1733,-3.1733,-3.25,-3.2996,-3.2996,-3.4193,-3.4586,-3.3762,-3.5339,-3.5973,-3.5192,-3.6009,-3.6505,-3.6615,-3.7294,-3.7643,-3.7672,-3.8581,-3.9231,-3.9599,-3.9901,-4.0213,0.6084,0.4814,0.3537,0.2436,0.1195,0.0249,0.0079,0.0,0.0,0.0,0.0,-0.0239,-0.0949,-0.2113,-0.3228,-0.4319,0.0,0.0,0.0,0.0,-0.8373,0.0,0.0,0.0,0.0,0.0,0.0,0.0,0.0,-1.4573,-1.5621,-1.6683,-1.8221,-2.0245,-2.0489,-2.0566,-2.0566,-2.0566,-2.0566,-2.0644,-2.1517,-2.1593,-2.0857,-2.1811,-2.2253,-2.2328,-2.3294,0.0,-2.5075,-2.6094,-2.6533,-2.6533,-2.6533,-2.6533,-2.6533,-2.6533,-2.704,-2.767,-2.767,-2.8812,-3.0329,-3.045,-3.0881,-3.127,-3.0821,-3.0522,-3.0118,-2.9071,-2.8682,-2.8442,-2.7754,-2.7625,-2.776,-2.8383,-2.9152,-3.0259,-3.2105,-3.3924,-3.5047,-3.4421,-3.4303,-3.3863,-3.251,-3.2313,-3.2036,-3.1309,-3.119,-3.119,-3.119,-3.1252,-3.1291,-3.1291,-3.1733,-3.2057,-3.2057,-3.3573,-3.4172,-3.3357,-3.5177,-3.6229,-3.6083,-3.6853,-3.7588,-3.8267,-3.8414,-3.8487,-3.8487,-3.8676,-3.9064,-3.9599,-3.9645,-3.9984,0.4715,0.3544,0.2484,0.1976,0.0932,0.0,0.0,0.0,0.0,0.0,-0.0304,-0.0818,-0.1549,-0.2589,0.0,0.0,0.0,0.0,0.0,0.0,0.0,0.0,0.0,0.0,0.0,0.0,0.0,0.0,0.0,-1.4328,-1.481,-1.6445,-1.8301,-2.0557,-2.0566,-2.0566,-2.0566,-2.0566,-2.0566,-2.0644,-2.1078,-2.1011,-2.0644,-2.1088,-2.1298,-2.1298,-2.2328,0.0,-2.4264,-2.5288,-2.6025,-2.6533,-2.6533,-2.6533,-2.6533,-2.6533,-2.6714,-2.7095,-2.7095,-2.798,-2.9087,-2.9087,-2.9957,-3.0941,-3.0612,-3.0283,-2.9819,-2.8861,-2.8607,-2.8442,-2.7754,-2.7625,-2.766,-2.7944,-2.9384,-3.1166,-3.3134,-3.465,-3.552,-3.5148,-3.4759,-3.415,-3.3051,-3.2544,-3.2036,-3.1309,-3.119,-3.119,-3.119,-3.119,-3.119,-3.119,-3.1565,-3.1789,-3.1789,-3.3392,-3.4081,-3.3268,-3.5531,-3.6725,-3.6321,-3.7459,-3.8303,-3.8689,-3.8707,-3.8707,-3.8707,-3.8707,-3.9027,-3.9599,-3.9599,-3.9925,0.3527,0.2494,0.1772,0.1443,0.067,0.0,0.0,0.0,0.0,0.0,-0.0585,-0.1325,-0.2074,0.0,-0.4064,0.0,0.0,0.0,0.0,0.0,0.0,0.0,0.0,0.0,0.0,0.0,0.0,0.0,0.0,0.0,-1.4412,-1.6281,-1.806,-1.9835,-2.0323,-2.0489,-2.0245,-2.0489,-2.0566,-2.0566,-2.0566,-2.0566,-2.0566,-2.0566,-2.0566,-2.0634,-2.1593,0.0,0.0,-2.4492,-2.5441,-2.6164,-2.6383,-2.6533,-2.6508,-2.6314,-2.642,-2.6508,-2.6314,-2.7066,-2.7982,-2.7982,-2.9027,-3.0283,-3.0133,-2.9849,-2.9415,-2.8607,-2.8487,-2.8442,-2.7754,-2.7625,-2.7625,-2.7625,-2.9666,-3.2028,-3.3556,-3.4785,-3.5571,-3.5419,-3.503,-3.4404,-3.3355,-3.2797,-3.2222,-3.1326,-3.119,-3.119,-3.119,-3.119,-3.119,-3.119,-3.147,-3.166,-3.166,-3.3316,-3.3974,-3.3117,-3.5903,-3.7186,-3.634,-3.7845,-3.8707,-3.8707,-3.8707,-3.8707,-3.8707,-3.8707,-3.9027,-3.9599,-3.9599,-3.9925,0.2246,0.1852,0.1507,0.0425,0.0083,0.0,0.0,0.0,0.0,0.0,-0.0574,-0.1345,-0.2065,-0.2987,0.0,0.0,0.0,-0.5679,0.0,0.0,0.0,0.0,0.0,0.0,0.0,0.0,0.0,0.0,0.0,0.0,-1.5538,-1.6683,-1.7415,-1.7585,-1.9511,-2.0157,-1.9195,-2.0079,-2.0566,-2.0566,-2.0566,-2.0566,-2.0566,-2.0566,-2.0566,-2.0634,-2.1593,0.0,0.0,-2.4192,-2.5075,-2.5229,-2.6164,-2.6533,-2.6402,-2.5875,-2.6013,-2.6445,-2.585,-2.6712,-2.7982,-2.7982,-2.8755,-2.9549,-2.8951,-2.9146,-2.931,-2.8023,-2.8113,-2.8442,-2.7754,-2.7625,-2.7625,-2.7625,-2.9666,-3.1662,-3.1821,-3.3822,-3.5419,-3.4726,-3.5098,-3.4844,-3.2747,-3.2899,-3.2814,-3.141,-3.119,-3.119,-3.119,-3.119,-3.119,-3.119,-3.123,-3.1269,-3.1269,-3.3076,-3.3736,-3.2639,-3.5906,-3.7384,-3.6358,-3.7845,-3.8707,-3.8707,-3.8707,-3.8707,-3.8707,-3.8707,-3.9027,-3.9599,-3.9599,-3.9925,0.1029,0.0693,0.0602,0.0085,0.0,0.0,0.0,0.0,-0.0631,-0.0639,-0.1635,-0.2565,-0.2841,-0.3551,-0.4301,0.0,0.0,0.0,0.0,0.0,0.0,0.0,0.0,0.0,0.0,0.0,0.0,0.0,0.0,0.0,-1.4734,-1.5786,-1.6601,-1.7261,-1.8789,-1.9441,-1.9036,-2.0079,-2.0566,-2.0566,-2.0566,-2.0566,-2.0557,-2.0293,-2.0176,-2.0166,-2.0611,0.0,0.0,-2.2965,-2.384,-2.4202,-2.5115,-2.5473,-2.5448,-2.5222,-2.5272,-2.5435,-2.5209,-2.5939,-2.6836,-2.6431,-2.723,-2.8397,-2.8547,-2.8487,-2.8263,-2.7775,-2.7769,-2.7919,-2.7685,-2.7625,-2.766,-2.8042,-2.9321,-3.0736,-3.1878,-3.3333,-3.4409,-3.4496,-3.4742,-3.437,-3.2577,-3.2527,-3.2374,-3.136,-3.119,-3.119,-3.119,-3.119,-3.119,-3.119,-3.119,-3.119,-3.119,-3.2867,-3.3706,-3.3243,-3.6013,-3.7491,-3.7037,-3.8102,-3.8707,-3.8707,-3.8707,-3.8707,-3.8707,-3.8707,-3.8931,-3.9289,-3.9505,-3.984,0.0167,0.0,0.0,0.0,0.0,0.0,0.0,-0.0589,-0.1118,-0.1082,-0.2286,-0.3345,-0.3287,-0.3959,-0.4548,0.0,0.0,-0.5009,0.0,0.0,0.0,0.0,0.0,0.0,0.0,0.0,0.0,0.0,0.0,0.0,-1.4088,-1.4817,-1.5545,-1.6363,-1.7747,-1.8479,-1.8479,-1.9599,-2.0323,-2.0566,-2.0439,-2.0371,-2.0361,-1.9922,-1.9727,-1.9727,-1.9727,0.0,0.0,-2.1663,-2.2511,-2.3156,-2.4054,-2.4549,-2.4808,-2.4644,-2.4682,-2.4795,-2.4632,-2.514,-2.5788,-2.5269,-2.6106,-2.7343,-2.7832,-2.7943,-2.7829,-2.7685,-2.7625,-2.7625,-2.7625,-2.7625,-2.771,-2.814,-2.8925,-3.0003,-3.1583,-3.28,-3.3665,-3.3828,-3.4184,-3.4015,-3.2527,-3.2313,-3.2104,-3.1596,-3.1326,-3.119,-3.119,-3.119,-3.119,-3.119,-3.119,-3.1353,-3.1752,-3.303,-3.3987,-3.4242,-3.6377,-3.7577,-3.7496,-3.8267,-3.8707,-3.8707,-3.8707,-3.8707,-3.8707,-3.8707,-3.8844,-3.9125,-3.9438,-3.9819,0.0,0.0,0.0,0.0,0.0,0.0,0.0,-0.0579,-0.1089,-0.1076,-0.2286,-0.3287,-0.3287,-0.3959,-0.457,-0.4667,0.0,0.0,0.0,0.0,0.0,0.0,0.0,0.0,0.0,0.0,0.0,0.0,0.0,0.0,-1.4088,-1.4088,-1.4088,-1.4166,-1.6198,-1.7334,-1.7334,-1.847,-1.952,-2.0557,-2.0127,-1.9922,-1.9902,-1.9482,-1.9297,0.0,0.0,0.0,0.0,-2.041,-2.1307,-2.2104,-2.3156,-2.4067,-2.4757,-2.4205,-2.4356,-2.4745,-2.4192,-2.4461,-2.509,-2.509,-2.5725,-2.651,-2.651,-2.7504,-2.8442,-2.7769,-2.7625,-2.7625,-2.7625,-2.7625,-2.7625,-2.7625,-2.8645,-2.9781,-3.0384,-3.2148,-3.3321,-3.2495,-3.3491,-3.4015,-3.2527,-3.2313,-3.2313,-3.2313,-3.1647,-3.119,-3.119,-3.119,-3.119,-3.119,-3.119,-3.1696,-3.2971,-3.379,-3.4602,-3.553,-3.7043,-3.7769,-3.7514,-3.8267,-3.8707,-3.8707,-3.8707,-3.8707,-3.8707,-3.8707,-3.8844,-3.9125,-3.9438,-3.9925,0.0,0.0,0.0,0.0,0.0,0.0,0.0,-0.0937,-0.1872,-0.1867,-0.3065,-0.4125,-0.4125,-0.4349,-0.4548,-0.4806,-0.4847,0.0,0.0,0.0,0.0,0.0,0.0,0.0,0.0,0.0,0.0,0.0,0.0,0.0,-1.4088,-1.4088,-1.4088,-1.4088,-1.547,-1.6401,-1.6875,-1.7987,-1.8887,-1.9687,-1.9551,-1.9482,-1.9473,-1.9043,-1.8848,0.0,0.0,0.0,0.0,-1.9671,-2.0149,-2.0322,-2.1841,-2.2579,-2.287,-2.3219,-2.3514,-2.3578,-2.3464,-2.3932,-2.4452,-2.3919,-2.4642,-2.5728,-2.5728,-2.6746,-2.7859,-2.7685,-2.7625,-2.7625,-2.7625,-2.7625,-2.7625,-2.7625,-2.7911,-2.8652,-3.0179,-3.1015,-3.1651,-3.2176,-3.3068,-3.3271,-3.1799,-3.1952,-3.2121,-3.1613,-3.1343,-3.119,-3.119,-3.119,-3.119,-3.119,-3.1647,-3.21,-3.252,-3.385,-3.5013,-3.5829,-3.7486,-3.8387,-3.8322,-3.856,-3.8707,-3.8707,-3.8707,-3.8707,-3.8707,-3.8707,-3.8844,-3.908,-3.9212,-3.9603,0.0,0.0,0.0,0.0,0.0,-0.0066,-0.0374,-0.1341,-0.2261,-0.2537,-0.3624,-0.4519,-0.4519,-0.4519,-0.458,-0.4714,-0.4796,0.0,0.0,0.0,0.0,0.0,0.0,0.0,0.0,0.0,0.0,0.0,0.0,0.0,-1.3921,-1.3814,-1.3754,-1.3754,-1.4496,-1.5433,-1.6489,-1.7192,-1.8085,-1.9287,-1.9121,-1.9043,-1.9023,-1.8594,-1.8398,0.0,0.0,0.0,0.0,-1.9209,-1.9551,-1.9497,-2.1239,-2.1877,-2.2013,-2.2823,-2.3078,-2.3078,-2.3078,-2.3424,-2.3767,-2.3245,-2.415,-2.5453,-2.5728,-2.6654,-2.7625,-2.7625,-2.7625,-2.7625,-2.7625,-2.7625,-2.7625,-2.7625,-2.7625,-2.8,-2.9438,-3.0145,-3.0716,-3.1416,-3.2336,-3.2679,-3.1765,-3.1749,-3.1799,-3.163,-3.1376,-3.119,-3.119,-3.119,-3.119,-3.119,-3.185,-3.2513,-3.2986,-3.4419,-3.5794,-3.693,-3.8077,-3.8707,-3.8707,-3.8707,-3.8707,-3.8707,-3.8707,-3.8707,-3.8707,-3.8707,-3.8844,-3.9099,-3.9099,-3.9389,0.0,0.0,0.0,0.0,-0.0065,-0.0254,-0.0924,-0.1735,0.0,-0.3142,-0.3959,-0.4522,-0.4532,-0.4525,-0.4525,-0.4546,-0.4613,0.0,0.0,0.0,0.0,0.0,0.0,0.0,0.0,0.0,0.0,0.0,0.0,0.0,-1.3614,-1.336,-1.32,-1.318,-1.344,-1.4374,-1.6035,-1.6111,-1.7164,-1.9117,-1.8708,-1.8594,-1.8504,-1.8184,-1.8008,0.0,0.0,0.0,0.0,-1.8854,-1.9233,-1.9365,-2.1112,-2.1815,-2.1877,-2.2763,-2.3078,-2.3078,-2.3078,-2.3078,-2.3078,-2.3078,-2.4105,-2.5453,-2.6176,-2.6982,-2.7625,-2.7625,-2.7625,-2.7625,-2.7625,-2.7625,-2.7625,-2.7625,-2.7625,-2.776,-2.8367,-2.9501,-3.0357,-3.0297,-3.1332,-3.2148,-3.2205,-3.1647,-3.1427,-3.2104,-3.163,-3.119,-3.119,-3.119,-3.119,-3.119,-3.1901,-3.2855,-3.4094,-3.5287,-3.6754,-3.8541,-3.8676,-3.8707,-3.8707,-3.8707,-3.8707,-3.8707,-3.8707,-3.8707,-3.8707,-3.8707,-3.8815,-3.9072,-3.9072,-3.9257,0.0,0.0,0.0,0.0,-0.0416,-0.0893,0.0,-0.2142,-0.3191,-0.3368,-0.3959,-0.4553,-0.4616,-0.4541,-0.4538,-0.4772,-0.4843,-0.4914,0.0,0.0,0.0,0.0,0.0,0.0,0.0,0.0,0.0,0.0,0.0,-1.3313,-1.3313,-1.3247,-1.31,-1.2866,-1.2919,-1.353,-1.4645,-1.5378,-1.6268,-1.7208,-1.7839,-1.8154,-1.8154,-1.8057,-1.8008,0.0,0.0,0.0,-1.8008,-1.8202,-1.8337,-1.8462,-2.0204,-2.091,-2.1101,-2.2567,-2.3078,-2.3078,-2.3078,-2.3078,-2.3078,-2.3078,-2.3767,-2.4681,-2.5453,-2.6549,-2.7625,-2.7625,-2.7625,-2.7625,-2.7625,-2.7625,-2.7625,-2.7625,-2.7625,-2.776,-2.8367,-2.8778,-2.9232,-3.0113,-3.0567,-3.0908,-3.1365,-3.1309,-3.1258,-3.1427,-3.1309,-3.119,-3.119,-3.119,-3.119,-3.119,-3.2357,-3.3434,-3.4146,-3.5287,-3.6613,-3.8011,-3.8465,-3.8707,-3.8707,-3.8707,-3.8707,-3.8707,-3.8707,-3.8707,-3.8707,-3.8707,-3.875,-3.8803,-3.8803,-3.8952,0.0,0.0,0.0,0.0,-0.029,-0.076,-0.1434,-0.2231,-0.3076,-0.3749,0.0,0.0,-0.4572,-0.4575,0.0,0.0,-0.4928,0.0,0.0,0.0,0.0,0.0,0.0,0.0,0.0,0.0,0.0,0.0,0.0,-1.2999,-1.2999,-1.2866,-1.2719,-1.2545,-1.2545,-1.2988,-1.394,-1.444,-1.5137,-1.5939,-1.6932,-1.7364,-1.7354,-1.7794,-1.8008,0.0,0.0,0.0,-1.8076,-1.8844,-1.8977,-1.8787,-2.0899,-2.1542,-2.1353,-2.2628,-2.3078,-2.3078,-2.3078,-2.3078,-2.3078,-2.3078,-2.3872,-2.4908,-2.5287,-2.6428,-2.7625,-2.7625,-2.7625,-2.7625,-2.7625,-2.7625,-2.7625,-2.7625,-2.7625,-2.766,-2.7993,-2.8319,-2.8685,-2.9361,-2.9935,-3.0393,-3.074,-3.1015,-3.119,-3.119,-3.119,-3.119,-3.119,-3.119,-3.119,-3.119,-3.2222,-3.311,-3.3665,-3.4591,-3.5934,-3.7787,-3.8415,-3.8707,-3.8707,-3.8707,-3.8707,-3.8707,-3.8707,-3.8707,-3.8707,-3.8707,-3.8707,-3.8707,-3.8707,-3.8792,0.0,0.0,0.0,0.0,-0.0059,-0.047,-0.1747,0.0,0.0,0.0,0.0,0.0,0.0,-0.4559,0.0,0.0,0.0,0.0,0.0,0.0,0.0,0.0,0.0,0.0,0.0,0.0,0.0,0.0,0.0,-1.2755,-1.2755,-1.2438,-1.2305,-1.2305,-1.2305,-1.2666,-1.3455,-1.36,-1.4099,-1.495,-1.607,-1.6636,-1.6636,-1.7569,-1.8008,-1.8008,0.0,0.0,-1.8144,-1.9562,-1.9814,-1.9562,-2.1791,-2.2372,-2.2013,-2.2823,-2.3078,-2.3078,-2.3078,-2.3078,-2.3078,-2.3078,-2.3975,-2.5119,-2.5342,-2.6269,-2.7291,-2.7524,-2.7625,-2.7625,-2.7625,-2.7625,-2.7625,-2.7625,-2.7625,-2.7625,-2.7625,-2.7993,-2.8415,-2.8606,-2.9451,-3.0208,-3.0393,-3.0878,-3.119,-3.119,-3.119,-3.119,-3.119,-3.119,-3.119,-3.119,-3.185,-3.2497,-3.2928,-3.3713,-3.5142,-3.7362,-3.8085,-3.8499,-3.8689,-3.8707,-3.8707,-3.8707,-3.8707,-3.8707,-3.8707,-3.8707,-3.8707,-3.8707,-3.8707,-3.8707,0.0,0.0,0.0,0.0,-0.0461,-0.0991,-0.1191,-0.1737,0.0,0.0,0.0,0.0,0.0,-0.4284,-0.4571,0.0,0.0,0.0,0.0,0.0,0.0,0.0,0.0,0.0,0.0,0.0,0.0,0.0,0.0,-1.2371,-1.2371,-1.2325,-1.2305,-1.2305,-1.2305,-1.2372,-1.2519,-1.331,-1.3818,-1.3954,-1.572,-1.6636,-1.6636,-1.7569,-1.8008,-1.8008,0.0,-1.8008,-1.8008,-1.8269,-1.8787,-1.9431,-2.0526,-2.1365,-2.2013,-2.2823,-2.3078,-2.3078,-2.3078,-2.3078,-2.3078,-2.3078,-2.3245,-2.3708,-2.5007,-2.5563,-2.6,-2.724,-2.7625,-2.7625,-2.7625,-2.7625,-2.7625,-2.7625,-2.7625,-2.7625,-2.7625,-2.766,-2.8042,-2.9042,-2.9406,-2.9848,-3.0878,-3.1151,-3.119,-3.119,-3.119,-3.119,-3.119,-3.119,-3.119,-3.119,-3.185,-3.2313,-3.2434,-3.352,-3.4644,-3.5654,-3.6594,-3.7576,-3.864,-3.8707,-3.8707,-3.8707,-3.8707,-3.8707,-3.8707,-3.8707,-3.8707,-3.8707,-3.8707,-3.8707,0.0,0.0,0.0,0.0,-0.0236,-0.0616,-0.1032,-0.1372,0.0,0.0,0.0,0.0,0.0,0.0,-0.4353,-0.4809,0.0,0.0,0.0,0.0,0.0,0.0,0.0,0.0,0.0,0.0,0.0,0.0,0.0,0.0,-1.1465,-1.1996,-1.2305,-1.2305,-1.2305,-1.2305,-1.2305,-1.2739,-1.2952,-1.2952,-1.4942,-1.586,-1.5869,-1.7364,-1.8008,-1.8008,0.0,-1.8008,-1.8008,-1.8529,-1.8911,-1.9431,-2.0782,-2.1553,-2.2013,-2.2823,-2.3078,-2.3078,-2.3078,-2.3078,-2.3078,-2.3078,-2.3365,-2.3943,-2.5063,-2.5673,-2.6229,-2.7306,-2.7625,-2.7625,-2.7625,-2.7625,-2.7625,-2.7625,-2.7625,-2.7625,-2.7625,-2.7625,-2.7845,-2.8732,-2.918,-2.9673,-3.0559,-3.0975,-3.119,-3.119,-3.119,-3.119,-3.119,-3.119,-3.119,-3.119,-3.1495,-3.1698,-3.1698,-3.2224,-3.3477,-3.5563,-3.6504,-3.7291,-3.7861,-3.8117,-3.8267,-3.8267,-3.8546,-3.8707,-3.8707,-3.8707,-3.8707,-3.8707,-3.8707,-3.8707,0.0,0.0,0.0,0.0,0.0,-0.0127,-0.0707,-0.0819,0.0,0.0,0.0,0.0,0.0,-0.2842,0.0,-0.5177,0.0,0.0,0.0,0.0,0.0,0.0,0.0,0.0,0.0,0.0,0.0,0.0,0.0,0.0,-1.0783,-1.1768,-1.2305,-1.2305,-1.2305,-1.2305,-1.2305,-1.2305,-1.2305,-1.2298,-1.4019,-1.495,-1.5234,-1.6932,-1.7794,-1.8008,-1.8008,-1.8008,-1.8076,-1.8721,-1.911,-1.9431,-2.0782,-2.1553,-2.2013,-2.2823,-2.3078,-2.3078,-2.3078,-2.3078,-2.3078,-2.3078,-2.3543,-2.4163,-2.5119,-2.5783,-2.6443,-2.7357,-2.7625,-2.7625,-2.7625,-2.7625,-2.7625,-2.7625,-2.7625,-2.7625,-2.7625,-2.7625,-2.781,-2.8559,-2.9088,-2.9629,-3.0393,-3.0878,-3.119,-3.119,-3.119,-3.119,-3.119,-3.119,-3.119,-3.119,-3.119,-3.1258,-3.1427,-3.1765,-3.3031,-3.5489,-3.6327,-3.6882,-3.7173,-3.7542,-3.772,-3.772,-3.8234,-3.8496,-3.8496,-3.8627,-3.8707,-3.8707,-3.8707,-3.8707,0.0,0.0,0.0,0.0,0.0,0.0,-0.0064,-0.0063,0.0,-0.1058,0.0,0.0,0.0,-0.2229,-0.3458,0.0,0.0,0.0,0.0,0.0,0.0,0.0,0.0,0.0,0.0,0.0,0.0,0.0,0.0,0.0,-1.0783,-1.1768,-1.2305,-1.2305,-1.2305,-1.2305,-1.2305,-1.2305,-1.2305,-1.2298,-1.331,-1.4314,-1.5234,-1.621,-1.7207,-1.8008,-1.8008,-1.8008,-1.8008,-1.8076,-1.8596,-1.9299,-1.9431,-2.0462,-2.2013,-2.2823,-2.3078,-2.3078,-2.3078,-2.3078,-2.3078,-2.3078,-2.3125,-2.3471,-2.4951,-2.5453,-2.5783,-2.7188,-2.7625,-2.7625,-2.7625,-2.7625,-2.7625,-2.7625,-2.7625,-2.7625,-2.7625,-2.7625,-2.7944,-2.9088,-2.9361,-2.9761,-3.0918,-3.119,-3.119,-3.119,-3.119,-3.119,-3.119,-3.119,-3.119,-3.119,-3.119,-3.1461,-3.2138,-3.3474,-3.4363,-3.4584,-3.5122,-3.5972,-3.7155,-3.721,-3.7248,-3.7248,-3.772,-3.7946,-3.7946,-3.8465,-3.8707,-3.8707,-3.8707,-3.8707,0.0,0.0,0.0,0.0,0.0,0.0,0.0,0.0,-0.0068,-0.0351,-0.0424,0.0,0.0,0.0,0.0,0.0,0.0,0.0,0.0,0.0,0.0,0.0,0.0,0.0,0.0,0.0,0.0,0.0,0.0,0.0,-0.982,-1.0795,-1.162,-1.2305,-1.2305,-1.2305,-1.2305,-1.2305,-1.2305,-1.2305,-1.3237,-1.389,-1.4314,-1.586,-1.6784,-1.7139,-1.7725,-1.8008,-1.8008,-1.8008,-1.8202,-1.8529,-1.911,-2.0398,-2.1939,-2.2249,-2.2689,-2.3078,-2.3078,-2.3078,-2.3078,-2.3078,-2.3078,-2.3305,-2.4394,-2.5063,-2.5618,-2.6602,-2.7255,-2.7625,-2.7625,-2.7625,-2.7625,-2.7625,-2.7625,-2.7625,-2.7625,-2.7625,-2.786,-2.8685,-2.9134,-2.9673,-3.0477,-3.0958,-3.119,-3.119,-3.119,-3.119,-3.119,-3.119,-3.119,-3.119,-3.1596,-3.1985,-3.2256,-3.3643,-3.4489,-3.4489,-3.5129,-3.572,-3.619,-3.6522,-3.6684,-3.6684,-3.721,-3.747,-3.747,-3.7667,-3.7929,-3.8216,-3.8216,-3.8382,0.0,0.0,0.0,0.0,0.0,0.0,0.0,0.0,0.0,0.0,0.0,0.0,0.0,0.0,0.0,0.0,0.0,0.0,0.0,0.0,0.0,0.0,0.0,0.0,0.0,0.0,0.0,0.0,0.0,0.0,0.0,-1.0075,-1.0991,-1.2024,-1.2024,-1.2024,-1.2024,-1.2024,-1.2071,-1.2164,-1.3165,-1.3784,-1.4243,-1.5579,-1.6498,-1.707,-1.7716,-1.8008,-1.8008,-1.8008,-1.8008,-1.8076,-1.8977,-2.0009,-2.1175,-2.169,-2.2261,-2.2763,-2.3017,-2.3078,-2.3078,-2.3078,-2.3078,-2.3245,-2.406,-2.4851,-2.5563,-2.6283,-2.7034,-2.7625,-2.7625,-2.7625,-2.7625,-2.7625,-2.7625,-2.7625,-2.7625,-2.7625,-2.776,-2.8367,-2.9012,-2.9585,-3.0208,-3.0797,-3.119,-3.119,-3.119,-3.1275,-3.1512,-3.1546,-3.163,-3.1867,-3.2544,-3.2966,-3.2966,-3.4117,-3.4844,-3.4844,-3.5334,-3.5622,-3.5622,-3.5941,-3.6139,-3.6139,-3.6684,-3.696,-3.696,-3.7114,-3.736,-3.7685,-3.7685,-3.7964,0.0,0.0,0.0,0.0,0.0,0.0,0.0,0.0,0.0,0.0,0.0,0.0,0.0,0.0,0.0,0.0,0.0,0.0,0.0,0.0,0.0,0.0,0.0,0.0,0.0,0.0,0.0,0.0,0.0,0.0,0.0,-0.9591,-1.0447,-1.1354,-1.1423,-1.1423,-1.1423,-1.1423,-1.1577,-1.1935,-1.2839,-1.3917,-1.5163,-1.5234,-1.6228,-1.8008,-1.8008,-1.8008,-1.8008,-1.8008,-1.8008,-1.8076,-1.8977,-1.9299,-1.9497,-2.1239,-2.1877,-2.2002,-2.2823,-2.3065,-2.3078,-2.3078,-2.3078,-2.3245,-2.406,-2.4794,-2.5563,-2.6283,-2.7034,-2.7575,-2.7625,-2.7625,-2.7625,-2.7625,-2.7625,-2.7625,-2.7625,-2.7625,-2.776,-2.8367,-2.8996,-2.9585,-3.0208,-3.0797,-3.119,-3.119,-3.1207,-3.1461,-3.2246,-3.229,-3.2577,-3.3322,-3.4066,-3.4489,-3.4489,-3.5182,-3.5622,-3.5622,-3.5622,-3.5622,-3.5622,-3.5622,-3.5622,-3.5622,-3.6139,-3.6374,-3.6374,-3.6921,-3.719,-3.7173,-3.7173,-3.7433,0.0,0.0,0.0,0.0,0.0,0.0,0.0,0.0,0.0,0.0,0.0,0.0,0.0,0.0,0.0,0.0,0.0,0.0,0.0,0.0,0.0,0.0,0.0,0.0,0.0,0.0,0.0,0.0,0.0,0.0,0.0,-0.8018,-0.8829,-1.0447,-1.0522,-1.0798,-1.1423,-1.1423,-1.147,-1.1557,-1.2045,-1.2935,-1.4171,-1.5579,-1.6498,-1.707,-1.7716,-1.8008,-1.8008,-1.8008,-1.8008,-1.8008,-1.8269,-1.8787,-1.9365,-1.9879,-2.0846,-2.1939,-2.2199,-2.2641,-2.3078,-2.3078,-2.3078,-2.3125,-2.3365,-2.3989,-2.4794,-2.5508,-2.6283,-2.693,-2.7473,-2.7625,-2.7625,-2.7625,-2.7625,-2.7625,-2.7625,-2.7625,-2.776,-2.8367,-2.8638,-2.9088,-3.0123,-3.0435,-3.0699,-3.1151,-3.163,-3.2222,-3.2983,-3.3068,-3.3169,-3.3389,-3.4066,-3.4489,-3.4489,-3.5182,-3.5622,-3.5622,-3.5622,-3.5622,-3.5622,-3.5622,-3.5622,-3.5622,-3.5739,-3.5827,-3.5854,-3.6011,-3.6291,-3.6661,-3.6661,-3.6904,0.0,0.0,0.0,0.0,0.0,0.0,0.0,0.0,0.0,0.0,0.0,0.0,0.0,0.0,0.0,0.0,0.0,0.0,0.0,0.0,0.0,0.0,0.0,0.0,0.0,0.0,0.0,0.0,0.0,0.0,0.0,-0.7099,-0.7879,-0.9732,-0.9799,-1.0202,-1.1082,-1.1082,-1.1142,-1.1256,-1.184,-1.2567,-1.3434,-1.5242,-1.6219,-1.6636,-1.7569,-1.8008,-1.8008,-1.8008,-1.8008,-1.8008,-1.8008,-1.8337,-1.8854,-1.9177,-1.9944,-2.0985,-2.169,-2.2199,-2.2702,-2.3017,-2.3078,-2.3078,-2.3078,-2.3649,-2.4408,-2.4851,-2.5728,-2.6616,-2.7034,-2.7357,-2.7625,-2.7625,-2.7625,-2.7625,-2.7625,-2.7625,-2.771,-2.8091,-2.8559,-2.9088,-2.9805,-3.0335,-3.0881,-3.154,-3.2493,-3.3237,-3.3399,-3.391,-3.4286,-3.4286,-3.4675,-3.4945,-3.4945,-3.5351,-3.5622,-3.5622,-3.5622,-3.5622,-3.5622,-3.5622,-3.5622,-3.5622,-3.5622,-3.5622,-3.5622,-3.5622,-3.5783,-3.6097,-3.6097,-3.6374,0.0,0.0,0.0,0.0,0.0,0.0,0.0,0.0,0.0,0.0,0.0,0.0,0.0,0.0,0.0,0.0,0.0,0.0,0.0,0.0,0.0,0.0,0.0,0.0,0.0,0.0,0.0,0.0,0.0,0.0,0.0,-0.6618,-0.7372,-0.9011,-0.9139,-0.9594,-1.0498,-1.0561,-1.0695,-1.0955,-1.1877,-1.2445,-1.2751,-1.4412,-1.5643,-1.6582,-1.756,-1.8008,-1.8008,-1.8008,-1.8008,-1.8008,-1.8008,-1.8008,-1.8076,-1.8911,-1.9243,-1.9562,-2.1164,-2.1815,-2.2002,-2.2823,-2.3078,-2.3078,-2.3078,-2.359,-2.4234,-2.4292,-2.5287,-2.6404,-2.6457,-2.7034,-2.7625,-2.7625,-2.7625,-2.7625,-2.7625,-2.7625,-2.7625,-2.766,-2.8543,-2.9271,-2.9361,-3.0251,-3.1227,-3.2117,-3.338,-3.4097,-3.365,-3.4697,-3.5515,-3.5577,-3.5622,-3.5622,-3.5622,-3.5622,-3.5622,-3.5622,-3.5622,-3.5622,-3.5622,-3.5622,-3.5622,-3.5622,-3.5622,-3.5622,-3.5622,-3.5622,-3.5622,-3.5622,-3.5622,-3.5854,0.0,0.0,0.0,0.0,0.0,0.0,0.0,0.0,0.0,0.0,0.0,0.0,0.0,0.0,0.0,0.0,0.0,0.0,0.0,0.0,0.0,0.0,0.0,0.0,0.0,0.0,0.0,0.0,0.0,0.0,-0.574,-0.5708,-0.6141,-0.7242,-0.7897,-0.8678,-0.9594,-1.0238,-1.0658,0.0,-1.1077,-1.1352,-1.1494,-1.3518,-1.5135,-1.6251,-1.7504,-1.8008,-1.8008,-1.8008,-1.8008,-1.8008,-1.8008,-1.8008,-1.8008,-1.8202,-1.8721,-1.9431,-2.0526,-2.1302,-2.2002,-2.2823,-2.3078,-2.3078,-2.3078,-2.3185,-2.3484,-2.4118,-2.4951,-2.5783,-2.6336,-2.7034,-2.7625,-2.7625,-2.7625,-2.7625,-2.7625,-2.7625,-2.776,-2.8222,-2.8125,-2.8304,-2.9225,-2.9225,-2.9685,-3.1399,-3.1929,-3.2688,-3.4149,-3.4636,-3.5005,-3.5515,-3.5622,-3.5622,-3.5622,-3.5622,-3.5622,-3.5622,-3.5622,-3.5622,-3.5622,-3.5622,-3.5622,-3.5622,-3.5622,-3.5622,-3.5622,-3.5622,-3.5622,-3.5622,-3.5622,-3.565,0.0,0.0,0.0,0.0,0.0,0.0,0.0,0.0,0.0,0.0,0.0,0.0,0.0,0.0,0.0,0.0,0.0,0.0,0.0,0.0,0.0,0.0,0.0,0.0,0.0,0.0,0.0,0.0,0.0,-0.5428,-0.5428,-0.5428,-0.5818,-0.6654,-0.7111,-0.7767,-0.8683,-0.9524,-0.9977,-0.9983,-1.0515,-1.0788,-1.086,-1.274,-1.4189,-1.5305,-1.6326,-1.6769,-1.6836,-1.7185,-1.7519,-1.7705,-1.7705,-1.7832,-1.8008,-1.8008,-1.8269,-1.8787,-1.9694,-2.0526,-2.1428,-2.2249,-2.2763,-2.3078,-2.3078,-2.3078,-2.3198,-2.359,-2.4553,-2.5508,-2.5837,-2.6759,-2.7625,-2.7625,-2.7625,-2.7625,-2.7625,-2.7625,-2.766,-2.7993,-2.8042,-2.8222,-2.8873,-2.9234,-2.9675,-3.0448,-3.1372,-3.2303,-3.309,-3.3727,-3.4235,-3.4609,-3.4657,-3.4657,-3.4657,-3.4657,-3.4657,-3.4657,-3.4657,-3.4657,-3.4657,-3.4657,-3.4958,-3.5577,-3.5622,-3.5622,-3.5622,-3.5622,-3.5622,-3.5622,-3.5622,-3.5622,0.0,0.0,0.0,0.0,0.0,0.0,0.0,0.0,0.0,0.0,0.0,0.0,0.0,0.0,0.0,0.0,0.0,0.0,0.0,0.0,0.0,0.0,0.0,0.0,0.0,0.0,0.0,0.0,0.0,-0.5428,-0.5428,-0.5428,-0.5752,-0.6461,-0.6654,-0.7046,-0.7762,-0.8613,-0.9139,-0.9338,-1.0174,-1.0624,-1.0638,-1.1905,-1.303,-1.3991,-1.4897,-1.5386,-1.5514,-1.6192,-1.6854,-1.7383,-1.7383,-1.7637,-1.8008,-1.8008,-1.8008,-1.8134,-1.8977,-1.9748,-2.0526,-2.1553,-2.2384,-2.2944,-2.3078,-2.3078,-2.3078,-2.3078,-2.4105,-2.5231,-2.5342,-2.6375,-2.7458,-2.7575,-2.7625,-2.7625,-2.7625,-2.7625,-2.7625,-2.7625,-2.7993,-2.8319,-2.8319,-2.9281,-2.9832,-2.9419,-3.0817,-3.1789,-3.1482,-3.2478,-3.3304,-3.3406,-3.3518,-3.3582,-3.3582,-3.3582,-3.3582,-3.3582,-3.3582,-3.3582,-3.3582,-3.3582,-3.4137,-3.5207,-3.5362,-3.5424,-3.5424,-3.5515,-3.5622,-3.5622,-3.5622,-3.5622,0.0,0.0,0.0,0.0,0.0,0.0,0.0,0.0,0.0,0.0,0.0,0.0,0.0,0.0,0.0,0.0,0.0,0.0,0.0,0.0,0.0,0.0,0.0,0.0,0.0,0.0,0.0,0.0,-0.5428,-0.5428,-0.5428,-0.5428,-0.5425,-0.5557,-0.6334,-0.6785,-0.685,-0.7762,-0.8549,-0.9338,-1.0174,-1.0624,-1.0631,-1.0832,-1.1575,-1.2744,-1.395,-1.4867,-1.5514,-1.5652,-1.6373,-1.7383,-1.7383,-1.7637,-1.8008,-1.8008,-1.8008,-1.8134,-1.8977,-1.9365,-1.9748,-2.1365,-2.1939,-2.2187,-2.2884,-2.3078,-2.3078,-2.3078,-2.3767,-2.4567,-2.5231,-2.6,-2.6826,-2.7458,-2.7625,-2.7625,-2.7625,-2.7625,-2.7625,-2.7625,-2.7675,-2.771,-2.771,-2.7886,-2.8127,-2.8658,-2.8936,-2.9535,-3.0587,-3.1426,-3.2107,-3.2686,-3.3265,-3.3582,-3.3582,-3.3582,-3.3582,-3.3582,-3.3582,-3.3582,-3.3582,-3.3582,-3.3684,-3.3836,-3.4447,-3.4736,-3.4736,-3.5316,-3.5622,-3.5622,-3.5622,-3.5622,0.0,0.0,0.0,0.0,0.0,0.0,0.0,0.0,0.0,0.0,0.0,0.0,0.0,0.0,0.0,0.0,0.0,0.0,0.0,0.0,0.0,0.0,0.0,0.0,0.0,0.0,0.0,0.0,-0.509,-0.5428,-0.5428,-0.5428,-0.5321,-0.5237,-0.5701,-0.6159,-0.6502,-0.7514,-0.8672,-1.0047,-0.9913,-1.011,-1.0624,-1.0624,-1.0882,-1.1454,-1.2465,-1.3092,-1.3463,-1.3911,-1.4845,-1.6017,-1.6243,-1.6863,-1.7686,-1.793,-1.8008,-1.8076,-1.8462,-1.8911,-1.9431,-2.0204,-2.0782,-2.1365,-2.2187,-2.2445,-2.2506,-2.2944,-2.3649,-2.435,-2.4681,-2.5342,-2.6054,-2.6826,-2.6982,-2.71,-2.7524,-2.7625,-2.7625,-2.7625,-2.7625,-2.7625,-2.7625,-2.7625,-2.773,-2.7979,-2.8353,-2.8801,-2.9407,-3.0046,-3.0739,-3.1343,-3.1689,-3.2029,-3.2376,-3.2407,-3.2407,-3.2407,-3.2407,-3.2407,-3.2407,-3.2407,-3.2407,-3.2407,-3.3479,-3.4235,-3.4576,-3.4894,-3.5253,-3.5622,-3.5622,-3.5622,0.0,0.0,0.0,0.0,0.0,0.0,0.0,0.0,0.0,0.0,0.0,0.0,0.0,0.0,0.0,0.0,0.0,0.0,0.0,0.0,0.0,0.0,0.0,0.0,0.0,0.0,0.0,0.0,-0.459,-0.5101,-0.5301,-0.527,-0.5196,-0.5081,-0.5189,-0.5513,-0.6009,-0.7258,-0.874,-1.0238,-0.9856,-0.9977,-1.0624,-1.0624,-1.0624,-1.0618,-1.1226,-1.1586,-1.1834,-1.2451,-1.3462,-1.4658,-1.5232,-1.6169,-1.7148,-1.7784,-1.8008,-1.8008,-1.8008,-1.8405,-1.8977,-1.9243,-1.9759,-2.0398,-2.1302,-2.1753,-2.2013,-2.2641,-2.3352,-2.406,-2.4234,-2.4738,-2.5342,-2.6283,-2.651,-2.6721,-2.7458,-2.7625,-2.7625,-2.7625,-2.7625,-2.7625,-2.7625,-2.7625,-2.7625,-2.7625,-2.8008,-2.8338,-2.8338,-2.8921,-2.9564,-3.0193,-3.0417,-3.0776,-3.1422,-3.1482,-3.1482,-3.1482,-3.1482,-3.1392,-3.1285,-3.127,-3.1195,-3.1046,-3.2044,-3.3077,-3.4087,-3.4284,-3.4688,-3.5362,-3.5362,-3.5424,0.0,0.0,0.0,0.0,0.0,0.0,0.0,0.0,0.0,0.0,0.0,0.0,0.0,0.0,0.0,0.0,0.0,0.0,0.0,0.0,0.0,0.0,0.0,0.0,0.0,0.0,0.0,0.0,-0.3913,-0.4238,-0.5078,-0.5013,-0.4938,-0.4928,-0.4938,-0.4938,-0.4992,-0.6794,-0.8253,-0.9402,-1.0174,-1.0561,-1.0624,-1.0624,-1.0624,-1.0624,-1.0624,-1.1108,-1.1834,-1.1834,-1.2586,-1.376,-1.504,-1.576,-1.6294,-1.7562,-1.8008,-1.8008,-1.8008,-1.8008,-1.8202,-1.9044,-1.9299,-1.9562,-2.0398,-2.1227,-2.1877,-2.1939,-2.2567,-2.3365,-2.4118,-2.435,-2.4738,-2.6176,-2.651,-2.6721,-2.7458,-2.7625,-2.7625,-2.7625,-2.7625,-2.7625,-2.7625,-2.7625,-2.7625,-2.7625,-2.7655,-2.7619,-2.7619,-2.8233,-2.8906,-2.9564,-3.0163,-3.0776,-3.1422,-3.1482,-3.1482,-3.1482,-3.1482,-3.124,-3.0582,-3.0552,-3.0283,-2.9699,-2.9778,-3.0745,-3.2695,-3.3339,-3.3987,-3.464,-3.464,-3.4988,0.0,0.0,0.0,0.0,0.0,0.0,0.0,0.0,0.0,0.0,0.0,0.0,0.0,0.0,0.0,0.0,0.0,0.0,0.0,0.0,0.0,0.0,0.0,0.0,0.0,0.0,0.0,0.0,0.0,-0.3434,-0.425,-0.4203,-0.4384,-0.4775,-0.4867,-0.5157,-0.5747,-0.6476,-0.7606,-0.9078,-0.8989,-0.9518,-1.0624,-1.0624,-1.0624,-1.0624,-1.0624,-1.0744,-1.1052,-1.1052,-1.1604,-1.2625,-1.4101,-1.5142,-1.5871,-1.7466,-1.8008,-1.8008,-1.8008,-1.8008,-1.8076,-1.8327,-1.8462,-1.8664,-1.9497,-2.0009,-2.0462,-2.1565,-2.2125,-2.2506,-2.3292,-2.3543,-2.3767,-2.4838,-2.5783,-2.6563,-2.6826,-2.7255,-2.7625,-2.7625,-2.7625,-2.7625,-2.7625,-2.7625,-2.7625,-2.7625,-2.7625,-2.7625,-2.7625,-2.7784,-2.8203,-2.8876,-2.9146,-2.9549,-3.0223,-3.0283,-3.0283,-3.0283,-3.0283,-3.0163,-2.9924,-2.9909,-2.9804,-2.9579,-2.9579,-3.0152,-3.1306,-3.1549,-3.204,-3.2675,-3.3069,-3.3657,-0.0325,0.0,0.0,0.0,0.0,0.0,0.0,0.0,0.0,0.0,0.0,0.0,0.0,0.0,0.0,0.0,0.0,0.0,0.0,0.0,0.0,0.0,0.0,0.0,0.0,0.0,0.0,0.0,0.0,0.0,-0.3332,-0.3532,-0.3949,-0.4616,-0.4714,-0.5196,-0.6134,-0.6194,-0.7016,-0.8503,-0.8042,-0.86,-1.0089,-1.0089,-1.0273,-1.0624,-1.0624,-1.0624,-1.0624,-1.0624,-1.0926,-1.1519,-1.3091,-1.3965,-1.4698,-1.6635,-1.7359,-1.7456,-1.7881,-1.8008,-1.8008,-1.8008,-1.8008,-1.8144,-1.8721,-1.9299,-2.0009,-2.1175,-2.1877,-2.2445,-2.2944,-2.3305,-2.3662,-2.4176,-2.5453,-2.651,-2.651,-2.7086,-2.7625,-2.7625,-2.7625,-2.7625,-2.7625,-2.7625,-2.7625,-2.7625,-2.7625,-2.7625,-2.7625,-2.7625,-2.7844,-2.8532,-2.8607,-2.8861,-2.952,-2.9579,-2.9579,-2.9579,-2.9579,-2.949,-2.9265,-2.925,-2.9146,-2.8906,-2.8906,-2.9139,-2.9592,-3.0068,-3.0627,-3.1244,-3.1677,-3.236,0.0,0.0,0.0,0.0,0.0,0.0,0.0,0.0,0.0,0.0,0.0,0.0,0.0,0.0,0.0,0.0,0.0,0.0,0.0,0.0,0.0,0.0,0.0,0.0,0.0,0.0,0.0,0.0,-0.1136,-0.1466,-0.2401,-0.3008,-0.3677,-0.4463,-0.4463,-0.4979,-0.5944,-0.5936,-0.6495,-0.7472,-0.7478,-0.8018,-0.8985,-0.893,-0.9513,-1.0548,-1.0555,-1.0561,-1.0624,-1.0624,-1.0624,-1.0715,-1.1897,-1.2409,-1.268,-1.5129,-1.6087,-1.6294,-1.7484,-1.7998,-1.8008,-1.8008,-1.8008,-1.8008,-1.8008,-1.9177,-2.059,-2.059,-2.1791,-2.3078,-2.3065,-2.3649,-2.4292,-2.4292,-2.5398,-2.6457,-2.6457,-2.7034,-2.756,-2.7575,-2.7625,-2.7625,-2.7625,-2.7625,-2.7575,-2.7575,-2.7575,-2.7575,-2.7575,-2.7575,-2.7829,-2.8502,-2.8562,-2.8831,-2.9475,-2.952,-2.952,-2.952,-2.952,-2.9235,-2.8607,-2.8562,-2.8248,-2.7625,-2.7625,-2.7625,-2.7625,-2.8891,-2.9902,-3.0499,-3.0581,-3.1261,-0.1563,0.0,0.0,0.0,0.0,0.0,0.0,0.0,0.0,0.0,0.0,0.0,0.0,0.0,0.0,0.0,0.0,0.0,0.0,0.0,0.0,0.0,0.0,0.0,0.0,0.0,0.0,0.0,-0.0296,-0.064,-0.1418,-0.2689,-0.3456,-0.368,-0.4239,-0.4646,-0.4912,-0.503,-0.5513,-0.6437,-0.6515,-0.7031,-0.7941,-0.8043,-0.8589,-0.9432,-0.9572,-1.0047,-1.0624,-1.0624,-1.0624,-1.0715,-1.1897,-1.2409,-1.2584,-1.4188,-1.5323,-1.6115,-1.6511,-1.7244,-1.8008,-1.8008,-1.8008,-1.8008,-1.8008,-1.8787,-1.9814,-2.0398,-2.1365,-2.2384,-2.2944,-2.3245,-2.3424,-2.3424,-2.4163,-2.4894,-2.4894,-2.5508,-2.6322,-2.7408,-2.7625,-2.7625,-2.7625,-2.7625,-2.7408,-2.6878,-2.7255,-2.7408,-2.6878,-2.7255,-2.7685,-2.7844,-2.7859,-2.7713,-2.7404,-2.7365,-2.7365,-2.7365,-2.7365,-2.7504,-2.7859,-2.7859,-2.7769,-2.7625,-2.7625,-2.7625,-2.7625,-2.7949,-2.8267,-2.8455,-2.9876,-3.0951,0.0,0.0,0.0,0.0,0.0,0.0,0.0,-0.019,0.0,0.0,0.0,0.0,0.0,0.0,0.0,0.0,0.0,0.0,0.0,0.0,0.0,0.0,0.0,0.0,0.0,0.0,0.0,0.0,0.0,-0.0343,-0.1063,-0.1953,-0.2565,-0.2899,-0.3624,-0.4015,-0.4015,-0.4435,-0.4876,-0.5385,-0.5481,-0.5968,-0.6871,-0.7019,-0.7593,-0.8443,-0.8701,-0.9268,-1.0047,-1.0047,-1.0301,-1.0638,-1.1376,-1.1639,-1.1803,-1.3024,-1.3925,-1.4709,-1.5534,-1.6466,-1.7244,-1.761,-1.7871,-1.8008,-1.8008,-1.8844,-1.9944,-2.0462,-2.1479,-2.2506,-2.3005,-2.3078,-2.3078,-2.3078,-2.3708,-2.4292,-2.4292,-2.4908,-2.5673,-2.6534,-2.6692,-2.6692,-2.6692,-2.6692,-2.6549,-2.6122,-2.639,-2.6654,-2.651,-2.6602,-2.6811,-2.7086,-2.7137,-2.6982,-2.6563,-2.6774,-2.693,-2.693,-2.693,-2.7152,-2.7575,-2.7625,-2.7625,-2.7625,-2.7625,-2.7625,-2.7625,-2.7625,-2.7625,-2.7625,-2.9265,-3.0226,0.0,0.0,0.0,0.0,0.0,0.0,-0.1029,-0.0538,-0.0091,0.0,0.0,0.0,0.0,0.0,0.0,0.0,0.0,0.0,0.0,0.0,0.0,0.0,0.0,0.0,0.0,0.0,0.0,0.0,0.0,-0.028,-0.095,-0.1062,-0.1396,-0.2063,-0.2788,-0.3231,-0.3289,-0.3901,-0.4294,-0.4405,-0.4349,-0.486,-0.5853,-0.5986,-0.6592,-0.7531,-0.7761,-0.8329,-0.9139,-0.9274,-0.9786,-1.0624,-1.0624,-1.0624,-1.0715,-1.1803,-1.225,-1.2641,-1.4491,-1.551,-1.6175,-1.6958,-1.7492,-1.7871,-1.7871,-1.9062,-2.0459,-2.0707,-2.1803,-2.3005,-2.3078,-2.3078,-2.3078,-2.3078,-2.3662,-2.4176,-2.4176,-2.4681,-2.5119,-2.5119,-2.5287,-2.5398,-2.5398,-2.5398,-2.5342,-2.5287,-2.5342,-2.5618,-2.6176,-2.5728,-2.5673,-2.6283,-2.6404,-2.6336,-2.6283,-2.6864,-2.7291,-2.7357,-2.7357,-2.7408,-2.7575,-2.7625,-2.7625,-2.7625,-2.7625,-2.7625,-2.7625,-2.7625,-2.7625,-2.7625,-2.8764,-2.9316,0.0,0.0,0.0,0.0,0.0,0.0,-0.1741,-0.1163,-0.0718,0.0,0.0,0.0,0.0,0.0,0.0,0.0,0.0,0.0,0.0,0.0,0.0,0.0,0.0,0.0,0.0,0.0,0.0,0.0,0.0,-0.0056,-0.0224,-0.0783,-0.1174,-0.1284,-0.2009,-0.2397,-0.2454,-0.2565,-0.2954,-0.3624,-0.3566,-0.3968,-0.4786,-0.4948,-0.5514,-0.6527,-0.6666,-0.7291,-0.8291,-0.9011,-0.9786,-1.0624,-1.0624,-1.0624,-1.0631,-1.0876,-1.1553,-1.2482,-1.2866,-1.4143,-1.5633,-1.5836,-1.6362,-1.6982,-1.6982,-1.7897,-1.9381,-2.1123,-2.1877,-2.2249,-2.2944,-2.3078,-2.3078,-2.3078,-2.3185,-2.3305,-2.3305,-2.3471,-2.3531,-2.3531,-2.4553,-2.5398,-2.5398,-2.5398,-2.5175,-2.4624,-2.5007,-2.5231,-2.4794,-2.5119,-2.5453,-2.5618,-2.5618,-2.5342,-2.4794,-2.4838,-2.5217,-2.5783,-2.5837,-2.6375,-2.756,-2.7625,-2.7625,-2.7625,-2.7625,-2.7625,-2.7625,-2.7625,-2.7625,-2.7625,-2.8319,-2.8701,0.0,0.0,0.0,-0.3214,0.0,0.0,0.0,0.0,0.0,0.0,0.0,0.0,0.0,0.0,0.0,0.0,0.0,0.0,0.0,0.0,0.0,0.0,0.0,0.0,0.0,0.0,0.0,0.0,0.0,0.0,0.0,-0.0336,-0.056,-0.056,-0.1284,-0.1675,-0.1675,-0.2009,-0.2397,-0.2788,-0.2788,-0.2954,-0.3347,-0.3926,-0.4426,-0.4914,-0.5523,-0.6307,-0.7232,-0.7787,-0.8544,-0.939,-1.0231,-1.0624,-1.0624,-1.0624,-1.0967,-1.1596,-1.2413,-1.3512,-1.4707,-1.5538,-1.622,-1.6665,-1.6665,-1.7425,-1.8625,-2.0163,-2.0723,-2.1105,-2.191,-2.2298,-2.2628,-2.3005,-2.3078,-2.3078,-2.3078,-2.3078,-2.3078,-2.3078,-2.3695,-2.4266,-2.4266,-2.4266,-2.4163,-2.3767,-2.4047,-2.4266,-2.4292,-2.4279,-2.4381,-2.4794,-2.4851,-2.4681,-2.435,-2.4624,-2.5175,-2.5906,-2.596,-2.6443,-2.756,-2.7625,-2.7625,-2.7625,-2.7625,-2.7625,-2.7625,-2.7625,-2.776,-2.8042,-2.8685,-2.9088,0.0,0.0,0.0,0.0,0.0,-0.2926,0.0,0.0,0.0,0.0,0.0,0.0,0.0,0.0,0.0,0.0,0.0,0.0,0.0,0.0,0.0,0.0,0.0,0.0,0.0,0.0,0.0,0.0,0.0,0.0,0.0,0.0,0.0,0.0,-0.056,-0.0895,-0.0895,-0.1452,-0.1842,-0.2009,-0.2009,-0.2063,-0.2233,-0.2983,-0.3379,-0.3467,-0.4384,-0.5258,-0.5951,-0.6475,-0.7075,-0.7892,-0.9652,-1.0364,-1.0364,-1.0561,-1.0624,-1.0807,-1.2097,-1.2951,-1.3689,-1.5059,-1.5927,-1.6494,-1.6582,-1.7081,-1.7869,-1.897,-1.9403,-1.9828,-2.0938,-2.144,-2.1849,-2.2698,-2.2975,-2.294,-2.3053,-2.3078,-2.3078,-2.3078,-2.3078,-2.3078,-2.3078,-2.3078,-2.3078,-2.3078,-2.3078,-2.3305,-2.4002,-2.3484,-2.3365,-2.4002,-2.406,-2.406,-2.406,-2.461,-2.5342,-2.6229,-2.6283,-2.6654,-2.756,-2.7625,-2.7625,-2.7625,-2.7625,-2.7625,-2.7625,-2.771,-2.7993,-2.8511,-2.9012,-2.954,0.0,0.0,0.0,0.0,-0.3718,0.0,0.0,0.0,0.0,0.0,0.0,0.0,0.0,0.0,0.0,0.0,0.0,0.0,0.0,0.0,0.0,0.0,0.0,0.0,0.0,0.0,0.0,0.0,0.0,0.0,0.0,0.0,0.0,0.0,-0.0056,-0.0112,-0.0112,-0.0224,-0.056,-0.1229,-0.1229,-0.1563,-0.223,-0.2296,-0.2452,-0.264,-0.3424,-0.3969,-0.4356,-0.5836,-0.6574,-0.7046,-0.8742,-0.9466,-0.953,-1.0301,-1.0624,-1.0624,-1.0807,-1.1809,-1.3128,-1.331,-1.4372,-1.5635,-1.6025,-1.6255,-1.6688,-1.8572,-1.8676,-1.872,-2.0921,-2.1039,-2.0897,-2.211,-2.2397,-2.2535,-2.3025,-2.3078,-2.3078,-2.3078,-2.3078,-2.3078,-2.3078,-2.3078,-2.3078,-2.3078,-2.3078,-2.3138,-2.3185,-2.3138,-2.3138,-2.3245,-2.3258,-2.3258,-2.3258,-2.3305,-2.3989,-2.5453,-2.5508,-2.6162,-2.756,-2.7625,-2.7625,-2.7625,-2.7625,-2.7625,-2.7625,-2.814,-2.8415,-2.8511,-2.8559,-2.8919,0.0,0.0,0.0,0.0,0.0,0.0,-0.3612,0.0,-0.3214,0.0,0.0,0.0,0.0,0.0,0.0,0.0,0.0,0.0,0.0,0.0,0.0,0.0,0.0,0.0,0.0,0.0,0.0,0.0,0.0,0.0,0.0,0.0,0.0,0.0,0.0,0.0,0.0,0.0,-0.0168,-0.0448,-0.0448,-0.0615,-0.095,-0.1341,-0.1631,-0.1713,-0.2617,-0.3273,-0.3843,-0.4587,-0.5269,-0.5925,-0.7135,-0.8302,-0.9338,-0.9722,-1.0174,-1.0688,-1.1108,-1.1717,-1.2451,-1.3364,-1.4451,-1.5449,-1.5625,-1.5684,-1.5891,-1.6711,-1.7256,-1.7884,-1.939,-2.0013,-2.0529,-2.1599,-2.1832,-2.1895,-2.2133,-2.2435,-2.2661,-2.2661,-2.2912,-2.3078,-2.3078,-2.3078,-2.3078,-2.3078,-2.3078,-2.3078,-2.3078,-2.3078,-2.3078,-2.3078,-2.3078,-2.3078,-2.3078,-2.3078,-2.3754,-2.5287,-2.6215,-2.6967,-2.7575,-2.7625,-2.7625,-2.7625,-2.7625,-2.7625,-2.7625,-2.8189,-2.8701,-2.9042,-2.9361,-2.9848,-0.3741,0.0,0.0,0.0,0.0,0.0,0.0,0.0,0.0,0.0,0.0,0.0,0.0,0.0,0.0,0.0,0.0,0.0,0.0,0.0,0.0,0.0,0.0,0.0,0.0,0.0,0.0,0.0,0.0,0.0,0.0,0.0,0.0,0.0,0.0,0.0,0.0,0.0,0.0,0.0,0.0,0.0,0.0,-0.056,-0.0783,-0.084,-0.1719,-0.2443,-0.2995,-0.3545,-0.4136,-0.4819,-0.5675,-0.7225,-0.8908,-0.918,-0.9722,-1.0364,-1.1163,-1.1648,-1.2074,-1.3657,-1.4628,-1.5108,-1.5352,-1.541,-1.5468,-1.5633,-1.6212,-1.6936,-1.7955,-1.8896,-1.9665,-2.0467,-2.0977,-2.1249,-2.1219,-2.1806,-2.2309,-2.2309,-2.2761,-2.3078,-2.3078,-2.3078,-2.3078,-2.3078,-2.3078,-2.3078,-2.3078,-2.3078,-2.3078,-2.3078,-2.3078,-2.3078,-2.3078,-2.3078,-2.3754,-2.5287,-2.6797,-2.7625,-2.7625,-2.7625,-2.7625,-2.7625,-2.7625,-2.7625,-2.7625,-2.8367,-2.8966,-2.9406,-3.0038,-3.0601,0.0,0.0,0.0,-0.3822,0.0,0.0,0.0,0.0,-0.3744,0.0,0.0,0.0,0.0,0.0,0.0,0.0,0.0,0.0,0.0,0.0,0.0,0.0,0.0,0.0,0.0,0.0,0.0,0.0,0.0,0.0,0.0,0.0,0.0,0.0,0.0,0.0,0.0,0.0,0.0,0.0,0.0,0.0,0.0,0.0,-0.0056,-0.0056,-0.084,-0.1255,-0.1468,-0.2993,-0.3708,-0.395,-0.4819,-0.6191,-0.7902,-0.8914,-0.9338,-0.9466,-1.0364,-1.117,-1.2074,-1.3657,-1.4213,-1.4392,-1.5167,-1.541,-1.5526,-1.6265,-1.5989,-1.5768,-1.7268,-1.7667,-1.7856,-1.8476,-1.967,-2.0665,-2.0487,-2.1436,-2.2309,-2.2309,-2.2761,-2.3078,-2.3078,-2.3078,-2.3078,-2.3078,-2.3078,-2.3078,-2.3078,-2.3078,-2.3078,-2.3078,-2.3078,-2.3078,-2.3078,-2.3078,-2.3754,-2.5287,-2.6797,-2.7625,-2.7625,-2.7625,-2.7625,-2.7625,-2.7625,-2.7625,-2.7625,-2.8764,-2.9361,-2.9406,-3.0038,-3.0601,0.0,0.0,-0.406,-0.3856,0.0,0.0,0.0,0.0,0.0,0.0,0.0,0.0,0.0,0.0,0.0,0.0,0.0,0.0,0.0,0.0,0.0,0.0,0.0,0.0,0.0,0.0,0.0,0.0,0.0,0.0,0.0,0.0,0.0,0.0,0.0,0.0,0.0,0.0,0.0,0.0,0.0,0.0,0.0,0.0,0.0,0.0,-0.028,-0.0676,-0.125,-0.2269,-0.3065,-0.3757,-0.4518,-0.5685,-0.6966,-0.8073,-0.9198,-1.0174,-1.0498,-1.1108,-1.1888,-1.2443,-1.3356,-1.4264,-1.451,-1.4991,-1.5468,-1.569,-1.5921,-1.6255,-1.6765,-1.7246,-1.7678,-1.7846,-1.8279,-1.8655,-1.8552,-1.9216,-2.0038,-2.0858,-2.1484,-2.2091,-2.2942,-2.3078,-2.3078,-2.3078,-2.3078,-2.3078,-2.3078,-2.3078,-2.3078,-2.3078,-2.3078,-2.3305,-2.3826,-2.4781,-2.555,-2.6122,-2.7034,-2.7625,-2.7625,-2.7625,-2.7625,-2.7625,-2.7625,-2.7625,-2.7625,-2.881,-2.9406,-2.9406,-3.0435,-3.1015,-0.4114,-0.412,0.0,-0.3934,-0.3944,0.0,-0.371,0.0,0.0,0.0,0.0,0.0,0.0,0.0,0.0,0.0,0.0,0.0,0.0,0.0,0.0,0.0,0.0,0.0,0.0,0.0,-0.0218,0.0,0.0,0.0,0.0,0.0,0.0,0.0,0.0,0.0,0.0,0.0,0.0,0.0,0.0,0.0,0.0,0.0,0.0,0.0,-0.028,-0.0671,-0.1174,-0.223,-0.2992,-0.3574,-0.4378,-0.537,-0.6431,-0.7506,-0.9047,-1.0624,-1.0624,-1.0926,-1.1406,-1.171,-1.2687,-1.3855,-1.4085,-1.4746,-1.541,-1.541,-1.5748,-1.6093,-1.6093,-1.6641,-1.7135,-1.6856,-1.7246,-1.7523,-1.7246,-1.7867,-1.8725,-1.9563,-2.0159,-2.0854,-2.1801,-2.2213,-2.26,-2.304,-2.3078,-2.3078,-2.3078,-2.3078,-2.3185,-2.3484,-2.3543,-2.3826,-2.4624,-2.5783,-2.651,-2.651,-2.7188,-2.7625,-2.7625,-2.7625,-2.7625,-2.7625,-2.7625,-2.7625,-2.7625,-2.8591,-2.918,-2.9406,-3.0435,-3.1015]}]]